[[{"header":{"parameterUnit":"m.s-1","parameterCategory":1,"la1":30.6,"la2":29.2853,"lo1":-89.7004,"lo2":-87.6739,"dy":0.0162,"dx":0.0183,"nx":112,"ny":82,"refTime":"2023-08-23T12:00:00:Z","depth":0,"parameterNumber":2,"parameterNumberName":"U-component_of_WINDS"},"data":[0.0,0.0,0.0,0.0,0.0,0.0,0.0,0.0,0.0,0.0,0.0,0.0,0.0,0.0,0.0,0.0,0.0,0.0,0.0,0.0,0.0,0.0,0.0,0.0,0.0,0.0,0.0,0.0,0.0,0.0,0.0,0.0,0.0,0.0,0.0,0.0,0.0,0.0,0.0,0.0,0.0,0.0,0.0,0.0,0.0,0.0,0.0,0.0,0.0,0.0,0.0,0.0,0.0,0.0,0.0,0.0,0.0,0.0,0.0,0.0,0.0,0.0,0.0,0.0,0.0,0.0,0.0,0.0,0.0,0.0,0.0,0.0,0.0,0.0,0.0,0.0,0.0,0.0,0.0,0.0,0.0,0.0,0.0,0.0,0.0,0.0,0.0,0.0,0.0,0.0,-2.512,-2.5755,-2.8012,-2.9569,-2.9719,-2.9827,-2.9223,-2.7646,0.0,0.0,0.0,0.0,0.0,0.0,0.0,0.0,0.0,0.0,0.0,0.0,0.0,0.0,0.0,0.0,0.0,0.0,0.0,0.0,0.0,0.0,0.0,0.0,0.0,0.0,0.0,0.0,0.0,0.0,0.0,0.0,0.0,0.0,0.0,0.0,0.0,0.0,0.0,0.0,0.0,0.0,0.0,0.0,0.0,0.0,0.0,0.0,0.0,0.0,0.0,0.0,0.0,0.0,0.0,0.0,0.0,0.0,0.0,0.0,0.0,0.0,0.0,0.0,0.0,0.0,0.0,0.0,0.0,0.0,0.0,0.0,0.0,0.0,0.0,0.0,0.0,0.0,0.0,0.0,0.0,0.0,0.0,0.0,0.0,0.0,0.0,0.0,0.0,0.0,0.0,0.0,0.0,0.0,0.0,0.0,0.0,0.0,0.0,0.0,0.0,0.0,0.0,0.0,-2.4218,-2.7338,-2.8779,-2.9589,-2.9861,-2.9895,-2.9304,-2.7853,0.0,0.0,0.0,0.0,0.0,0.0,0.0,0.0,0.0,0.0,0.0,0.0,0.0,0.0,0.0,0.0,0.0,0.0,0.0,0.0,0.0,0.0,0.0,0.0,0.0,0.0,0.0,0.0,0.0,0.0,0.0,0.0,0.0,0.0,0.0,0.0,0.0,0.0,0.0,0.0,0.0,0.0,0.0,0.0,0.0,0.0,0.0,0.0,0.0,0.0,0.0,0.0,0.0,0.0,0.0,0.0,0.0,0.0,0.0,0.0,0.0,0.0,0.0,0.0,0.0,0.0,0.0,0.0,0.0,0.0,0.0,0.0,0.0,0.0,0.0,0.0,0.0,0.0,0.0,0.0,0.0,0.0,0.0,0.0,0.0,0.0,0.0,0.0,0.0,0.0,0.0,0.0,0.0,0.0,0.0,0.0,0.0,0.0,0.0,0.0,0.0,0.0,0.0,-2.4317,-2.63,-2.8466,-2.962,-3.0133,-2.9827,-3.0292,-2.9573,-2.7141,-2.5826,0.0,0.0,0.0,0.0,0.0,0.0,0.0,0.0,0.0,0.0,0.0,0.0,0.0,0.0,0.0,0.0,0.0,0.0,0.0,0.0,0.0,0.0,0.0,0.0,0.0,0.0,0.0,0.0,0.0,0.0,0.0,0.0,0.0,0.0,0.0,0.0,0.0,0.0,0.0,0.0,0.0,0.0,0.0,0.0,0.0,0.0,0.0,0.0,0.0,0.0,0.0,0.0,0.0,0.0,0.0,0.0,0.0,0.0,0.0,0.0,0.0,0.0,0.0,0.0,0.0,0.0,0.0,0.0,0.0,0.0,0.0,0.0,0.0,0.0,0.0,0.0,0.0,0.0,0.0,0.0,0.0,0.0,0.0,0.0,0.0,0.0,0.0,0.0,0.0,0.0,0.0,0.0,0.0,0.0,0.0,0.0,0.0,0.0,0.0,0.0,0.0,0.0,-2.6243,-2.788,-2.8574,-2.9808,-3.0359,-2.9792,-3.029,-2.9364,-2.6505,-2.5347,0.0,0.0,0.0,0.0,0.0,0.0,0.0,0.0,0.0,0.0,0.0,0.0,0.0,0.0,0.0,0.0,0.0,0.0,0.0,0.0,0.0,0.0,0.0,0.0,0.0,0.0,0.0,0.0,0.0,0.0,0.0,0.0,0.0,0.0,0.0,0.0,0.0,0.0,0.0,0.0,0.0,0.0,0.0,0.0,0.0,0.0,0.0,0.0,0.0,0.0,0.0,0.0,0.0,0.0,0.0,0.0,0.0,0.0,0.0,0.0,0.0,0.0,0.0,0.0,0.0,0.0,0.0,0.0,0.0,0.0,0.0,0.0,0.0,0.0,0.0,0.0,0.0,0.0,0.0,0.0,0.0,0.0,0.0,0.0,0.0,0.0,0.0,0.0,0.0,0.0,0.0,0.0,0.0,0.0,0.0,0.0,0.0,0.0,0.0,0.0,0.0,0.0,-2.4624,-2.687,-2.7045,-2.8633,-2.9739,-2.9878,-2.9279,-2.817,-2.6503,-2.4824,0.0,0.0,0.0,0.0,0.0,0.0,0.0,0.0,0.0,0.0,0.0,0.0,0.0,0.0,0.0,0.0,0.0,0.0,0.0,0.0,0.0,0.0,0.0,0.0,0.0,0.0,0.0,0.0,0.0,0.0,0.0,0.0,0.0,0.0,0.0,0.0,0.0,0.0,0.0,0.0,0.0,0.0,0.0,0.0,0.0,0.0,0.0,0.0,0.0,0.0,0.0,0.0,0.0,0.0,0.0,0.0,0.0,0.0,0.0,0.0,0.0,0.0,0.0,0.0,0.0,0.0,0.0,0.0,0.0,0.0,0.0,0.0,0.0,0.0,0.0,0.0,0.0,0.0,0.0,0.0,0.0,0.0,0.0,0.0,0.0,0.0,0.0,0.0,0.0,0.0,0.0,0.0,0.0,0.0,0.0,0.0,0.0,0.0,0.0,0.0,0.0,0.0,-2.5557,-2.7698,0.0,-2.9604,-3.0265,-2.9863,-3.0063,-2.8871,-2.5791,0.0,0.0,0.0,0.0,0.0,0.0,0.0,0.0,0.0,0.0,0.0,0.0,0.0,0.0,0.0,0.0,0.0,0.0,0.0,0.0,0.0,0.0,0.0,0.0,0.0,0.0,0.0,0.0,0.0,0.0,0.0,0.0,0.0,0.0,0.0,0.0,0.0,0.0,0.0,0.0,0.0,0.0,0.0,0.0,0.0,0.0,0.0,0.0,0.0,0.0,0.0,0.0,0.0,0.0,0.0,0.0,0.0,0.0,0.0,0.0,0.0,0.0,0.0,0.0,0.0,0.0,0.0,0.0,0.0,0.0,0.0,0.0,0.0,0.0,0.0,0.0,0.0,0.0,0.0,0.0,0.0,0.0,0.0,0.0,0.0,0.0,0.0,0.0,0.0,0.0,0.0,0.0,0.0,0.0,0.0,0.0,0.0,0.0,0.0,0.0,0.0,0.0,-2.3379,-2.6072,-2.8178,0.0,-2.9886,-3.0321,-2.981,-3.0105,-2.8821,-2.5266,0.0,0.0,0.0,0.0,0.0,0.0,0.0,0.0,0.0,0.0,0.0,0.0,0.0,0.0,0.0,0.0,0.0,0.0,0.0,0.0,0.0,0.0,0.0,0.0,0.0,0.0,0.0,0.0,0.0,0.0,0.0,0.0,0.0,0.0,0.0,0.0,0.0,0.0,0.0,0.0,0.0,0.0,0.0,0.0,0.0,0.0,0.0,0.0,0.0,0.0,0.0,0.0,0.0,0.0,0.0,0.0,0.0,0.0,0.0,0.0,0.0,0.0,0.0,0.0,0.0,0.0,0.0,0.0,0.0,0.0,0.0,0.0,0.0,0.0,0.0,0.0,0.0,0.0,0.0,0.0,0.0,0.0,0.0,0.0,0.0,0.0,0.0,0.0,0.0,0.0,0.0,0.0,0.0,0.0,0.0,0.0,0.0,0.0,0.0,0.0,0.0,0.0,-2.252,-2.5649,-2.7941,-2.8104,-2.9064,-2.9701,-2.9699,-2.9099,-2.7627,0.0,0.0,0.0,0.0,0.0,0.0,0.0,0.0,0.0,0.0,0.0,0.0,0.0,0.0,0.0,0.0,0.0,0.0,0.0,0.0,0.0,0.0,0.0,0.0,0.0,0.0,0.0,0.0,0.0,0.0,0.0,0.0,0.0,0.0,0.0,0.0,0.0,0.0,0.0,0.0,0.0,0.0,0.0,0.0,0.0,0.0,0.0,0.0,0.0,0.0,0.0,0.0,0.0,0.0,0.0,0.0,0.0,0.0,0.0,0.0,0.0,0.0,0.0,0.0,0.0,0.0,0.0,0.0,0.0,0.0,0.0,0.0,0.0,0.0,0.0,0.0,0.0,0.0,0.0,0.0,0.0,0.0,0.0,0.0,0.0,0.0,0.0,0.0,0.0,0.0,0.0,0.0,0.0,0.0,0.0,0.0,0.0,0.0,0.0,0.0,0.0,0.0,0.0,-2.327,-2.5625,-2.7676,-2.8888,-2.9438,-2.9719,-2.9754,-2.9544,-2.8615,-2.6767,0.0,0.0,0.0,0.0,0.0,0.0,0.0,0.0,0.0,0.0,0.0,0.0,0.0,0.0,0.0,0.0,0.0,0.0,0.0,0.0,0.0,0.0,0.0,0.0,0.0,0.0,0.0,0.0,0.0,0.0,0.0,0.0,0.0,0.0,0.0,0.0,0.0,0.0,0.0,0.0,0.0,0.0,0.0,0.0,0.0,0.0,0.0,0.0,0.0,0.0,0.0,0.0,0.0,0.0,0.0,0.0,0.0,0.0,0.0,0.0,0.0,0.0,0.0,0.0,0.0,0.0,0.0,0.0,0.0,0.0,0.0,0.0,0.0,0.0,0.0,0.0,0.0,0.0,0.0,0.0,0.0,0.0,0.0,0.0,0.0,0.0,0.0,0.0,0.0,0.0,0.0,0.0,0.0,0.0,0.0,0.0,0.0,0.0,0.0,0.0,0.0,0.0,-2.3773,-2.624,-2.8294,-2.9321,-2.9907,-3.0227,-3.0281,-3.0226,-2.9492,-2.7902,0.0,0.0,0.0,0.0,0.0,0.0,0.0,0.0,0.0,0.0,0.0,0.0,0.0,0.0,0.0,0.0,0.0,0.0,0.0,0.0,0.0,0.0,0.0,0.0,0.0,0.0,0.0,0.0,0.0,0.0,0.0,0.0,0.0,0.0,0.0,0.0,0.0,0.0,0.0,0.0,0.0,0.0,0.0,0.0,0.0,0.0,0.0,0.0,0.0,0.0,0.0,0.0,0.0,0.0,0.0,0.0,0.0,0.0,0.0,0.0,0.0,0.0,0.0,0.0,0.0,0.0,0.0,0.0,0.0,0.0,0.0,0.0,0.0,0.0,0.0,0.0,0.0,0.0,0.0,0.0,0.0,0.0,0.0,0.0,0.0,0.0,0.0,0.0,0.0,0.0,0.0,0.0,0.0,0.0,0.0,0.0,0.0,0.0,0.0,0.0,0.0,0.0,-2.4078,-2.7135,-2.9397,-2.9586,-3.0452,-3.1036,-3.1111,-3.1054,-3.0321,-2.8744,0.0,0.0,0.0,0.0,0.0,0.0,0.0,0.0,0.0,0.0,0.0,0.0,0.0,0.0,0.0,0.0,0.0,0.0,0.0,0.0,0.0,0.0,0.0,0.0,0.0,0.0,0.0,0.0,0.0,0.0,0.0,0.0,0.0,0.0,0.0,0.0,0.0,0.0,0.0,0.0,0.0,0.0,0.0,0.0,0.0,0.0,0.0,0.0,0.0,0.0,0.0,0.0,0.0,0.0,0.0,0.0,0.0,0.0,0.0,0.0,-1.7392,0.0,0.0,0.0,0.0,0.0,0.0,0.0,0.0,0.0,0.0,0.0,0.0,0.0,0.0,0.0,0.0,0.0,0.0,0.0,0.0,0.0,0.0,0.0,0.0,0.0,0.0,0.0,0.0,0.0,0.0,0.0,0.0,0.0,0.0,0.0,0.0,0.0,0.0,0.0,0.0,0.0,-2.4081,-2.6767,-2.9102,-3.0394,-3.081,-3.128,-3.1977,-3.1918,-3.1427,-3.0509,-2.8877,0.0,0.0,0.0,0.0,0.0,0.0,0.0,0.0,0.0,0.0,0.0,0.0,0.0,0.0,0.0,0.0,0.0,0.0,0.0,0.0,0.0,0.0,0.0,0.0,0.0,0.0,0.0,0.0,0.0,0.0,0.0,0.0,0.0,0.0,0.0,0.0,0.0,0.0,0.0,0.0,0.0,0.0,0.0,0.0,0.0,0.0,0.0,0.0,0.0,0.0,0.0,0.0,0.0,0.0,0.0,0.0,0.0,0.0,0.0,0.0,-1.9462,0.0,0.0,0.0,0.0,0.0,0.0,0.0,0.0,0.0,0.0,0.0,0.0,0.0,0.0,0.0,0.0,0.0,0.0,0.0,0.0,0.0,0.0,0.0,0.0,0.0,0.0,0.0,0.0,0.0,0.0,0.0,0.0,0.0,0.0,0.0,0.0,0.0,0.0,0.0,0.0,-2.4228,-2.7437,-2.9983,-3.0847,-3.1694,-3.2373,-3.2806,-3.2722,-3.2262,-3.14,-3.0062,0.0,0.0,0.0,0.0,0.0,0.0,0.0,0.0,0.0,0.0,0.0,0.0,0.0,0.0,0.0,0.0,0.0,0.0,0.0,0.0,0.0,0.0,0.0,0.0,0.0,0.0,0.0,0.0,0.0,0.0,0.0,0.0,0.0,0.0,0.0,0.0,0.0,0.0,0.0,0.0,0.0,0.0,0.0,0.0,0.0,0.0,0.0,0.0,0.0,0.0,0.0,0.0,0.0,-2.3465,-2.3731,-2.422,-2.4149,-2.4074,-2.3904,-2.2348,-2.1952,-2.2318,-2.0776,0.0,0.0,0.0,0.0,0.0,0.0,0.0,0.0,0.0,0.0,0.0,0.0,0.0,0.0,0.0,0.0,0.0,0.0,0.0,0.0,0.0,0.0,0.0,0.0,-2.3482,-2.3551,-2.1662,0.0,0.0,0.0,0.0,0.0,0.0,0.0,0.0,0.0,0.0,0.0,-2.4594,-2.837,-3.1092,-3.1279,-3.2619,-3.3523,-3.3614,-3.3465,-3.2918,-3.1815,-3.1106,-2.9672,0.0,0.0,0.0,0.0,0.0,0.0,0.0,0.0,0.0,0.0,0.0,0.0,0.0,0.0,0.0,0.0,0.0,0.0,0.0,0.0,0.0,0.0,0.0,0.0,0.0,0.0,0.0,0.0,0.0,0.0,0.0,0.0,-2.2868,-2.1625,0.0,0.0,0.0,0.0,0.0,0.0,0.0,0.0,0.0,0.0,0.0,0.0,0.0,-2.3887,-2.463,-2.6025,-2.681,-2.6942,-2.6928,-2.6578,-2.5882,-2.5806,-2.5414,-2.4728,-2.4431,0.0,-2.3343,-2.2295,0.0,0.0,0.0,0.0,0.0,0.0,0.0,0.0,0.0,0.0,0.0,0.0,0.0,0.0,0.0,0.0,0.0,0.0,0.0,0.0,0.0,0.0,-2.3702,-2.4686,-2.5045,-2.5087,0.0,-2.3409,-2.2712,-2.4042,-2.2627,0.0,0.0,0.0,0.0,0.0,0.0,0.0,-2.5428,-2.8781,-3.1355,-3.2071,-3.2901,-3.3708,-3.4461,-3.4304,-3.3515,-3.1964,-3.1712,-3.0854,-2.9126,-2.779,0.0,0.0,0.0,0.0,0.0,0.0,0.0,0.0,0.0,0.0,0.0,0.0,0.0,0.0,0.0,0.0,0.0,0.0,0.0,0.0,0.0,0.0,0.0,0.0,0.0,0.0,0.0,0.0,0.0,-2.3209,-2.4293,-2.3805,-2.3347,-2.2458,0.0,0.0,0.0,0.0,0.0,0.0,0.0,0.0,0.0,-2.4385,-2.5533,-2.6301,-2.665,-2.735,-2.7682,-2.7603,-2.7594,-2.739,-2.6982,-2.6925,-2.6687,-2.6337,-2.5773,-2.5597,-2.5597,-2.3747,-2.2971,-2.2769,0.0,0.0,0.0,0.0,-1.9456,-2.0277,-2.0567,-2.1218,-2.1807,-2.128,0.0,0.0,0.0,0.0,0.0,0.0,0.0,0.0,0.0,0.0,-2.5199,-2.5624,-2.576,-2.5891,-2.6281,-2.581,-2.5397,0.0,-2.5043,-2.4172,-2.3326,0.0,0.0,0.0,0.0,-2.6021,-2.6481,-2.921,-3.1259,-3.1688,-3.2713,-3.3496,-3.3893,-3.4124,-3.3533,-3.1848,-3.1737,-3.1036,-2.9405,-2.7732,-2.6283,0.0,0.0,0.0,0.0,0.0,0.0,0.0,0.0,0.0,0.0,0.0,0.0,0.0,0.0,0.0,0.0,0.0,0.0,0.0,0.0,0.0,0.0,0.0,0.0,0.0,0.0,0.0,0.0,-2.4538,-2.5879,-2.6106,-2.5643,-2.4869,0.0,0.0,0.0,0.0,0.0,0.0,-2.4228,-2.5402,-2.6431,-2.7238,-2.7824,-2.8219,-2.8363,-2.8358,-2.832,-2.8273,-2.8251,-2.8122,-2.7913,-2.7856,-2.7713,-2.7462,-2.6536,-2.6639,-2.7244,-2.4894,-2.4007,-2.4001,-2.2478,-2.2032,-2.2126,-2.1438,-2.1954,-2.302,-2.2975,-2.3577,-2.4247,-2.3548,-2.3253,-2.2921,-2.1494,0.0,0.0,0.0,0.0,-2.4006,-2.4633,-2.5631,-2.6465,-2.6477,-2.6477,-2.664,-2.7224,-2.7429,-2.7391,0.0,-2.7184,-2.7019,-2.5923,0.0,0.0,0.0,0.0,-2.7154,-2.7466,-2.9603,-3.1143,-3.1246,-3.2298,-3.3006,-3.2985,-3.3392,-3.299,-3.1418,-3.1399,-3.0816,-2.9386,-2.7751,-2.658,-2.5931,0.0,0.0,0.0,0.0,0.0,0.0,0.0,0.0,0.0,0.0,0.0,0.0,0.0,0.0,0.0,0.0,0.0,0.0,0.0,0.0,0.0,0.0,0.0,0.0,0.0,0.0,0.0,0.0,0.0,-2.7867,-2.7941,0.0,0.0,0.0,0.0,-2.533,-2.6152,-2.6963,-2.7721,-2.7832,-2.8242,-2.903,-2.9052,-2.9402,-3.017,-3.0113,-3.006,-3.007,-3.0009,-2.9541,-2.8751,-2.8751,-2.8284,-2.7443,-2.6645,-2.6764,-2.7346,-2.5498,-2.5238,-2.5876,-2.4959,-2.511,-2.5838,-2.5706,-2.5734,-2.578,-2.5645,-2.5127,-2.4461,-2.4302,-2.4098,-2.3923,-2.3771,-2.3509,0.0,0.0,-2.526,-2.5366,-2.773,-2.7876,-2.7464,-2.751,-2.751,-2.7551,-2.7657,-2.7743,-2.7989,0.0,-2.9034,-2.87,-2.7177,0.0,-2.6793,-2.578,-2.6517,-2.7466,-2.8239,-2.996,-3.1104,-3.1104,-3.1808,-3.22,-3.2079,-3.2091,-3.1666,-3.0617,-3.0737,-3.0406,-2.9444,-2.7923,-2.6991,-2.6746,-2.506,0.0,0.0,0.0,0.0,0.0,0.0,0.0,0.0,0.0,0.0,0.0,0.0,0.0,0.0,0.0,0.0,0.0,0.0,0.0,0.0,0.0,0.0,0.0,0.0,0.0,0.0,0.0,0.0,-2.8115,-2.8649,0.0,-2.748,-2.7305,-2.7261,-2.728,-2.8043,-2.8592,-2.8826,-2.9378,-2.9777,-2.9974,-2.9952,-3.0052,-3.0304,-3.0273,-3.0234,-3.0194,-3.0138,-2.9952,-2.9693,-2.9651,-2.9499,-2.9183,-2.8294,-2.8394,-2.9041,-2.7262,-2.6706,-2.6972,-2.6654,-2.6696,-2.6927,-2.6915,-2.6884,-2.6817,-2.6718,-2.6444,-2.6095,-2.5893,-2.5755,-2.5635,-2.5552,-2.5383,-2.5352,-2.5961,-2.6267,-2.6652,-2.7598,-2.807,-2.8348,-2.8419,-2.8466,-2.8507,-2.853,-2.8553,-2.8691,-2.9119,-2.9246,-2.9148,-2.8707,-2.8708,-2.8721,-2.8438,-2.8663,-2.8998,-2.9315,-2.9882,-3.0485,-3.1049,-3.1261,-3.154,-3.1965,-3.1958,-3.1315,-2.9872,-3.0381,-3.0104,-2.8685,-2.7549,-2.6674,-2.6041,-2.434,-2.285,0.0,0.0,0.0,0.0,0.0,0.0,0.0,0.0,0.0,0.0,0.0,0.0,0.0,0.0,0.0,0.0,0.0,0.0,0.0,0.0,0.0,0.0,0.0,0.0,0.0,0.0,-2.9201,-2.8992,-2.9575,-2.9757,-2.9236,-2.9114,-2.9081,-2.9086,-2.9547,-2.981,-2.9768,-3.0294,-3.0569,-3.046,-3.0439,-3.0417,-3.0371,-3.0355,-3.0299,-3.026,-3.0188,-3.0174,-3.0234,-3.018,-3.018,-3.015,-2.9254,-2.9341,-3.0028,-2.8588,-2.816,-2.8322,-2.7443,-2.7228,-2.7392,-2.7108,-2.6949,-2.6887,-2.6822,-2.689,-2.6972,-2.684,-2.6742,-2.6643,-2.6557,-2.6611,-2.6718,-2.6708,-2.7247,-2.7846,-2.7918,-2.839,-2.8881,-2.8975,-2.9021,-2.904,-2.904,-2.9067,-2.9156,-2.9286,-2.933,-2.9373,-2.955,-2.9664,-2.9866,-3.0255,-3.0065,-2.9969,-3.0269,-3.0307,-3.0404,-3.0636,-3.0865,-3.1054,-3.1202,-3.0937,-3.0259,-2.9097,-2.9603,-2.9266,-2.7829,-2.6972,-2.6117,-2.5208,-2.3768,-2.2428,-2.1187,0.0,0.0,0.0,0.0,0.0,0.0,0.0,0.0,0.0,0.0,0.0,0.0,0.0,0.0,0.0,0.0,0.0,0.0,0.0,0.0,0.0,0.0,0.0,-2.9309,-2.9376,-2.9786,-3.0599,-3.0829,-3.0898,-3.0895,-3.0843,-3.0807,-3.0798,-3.0755,-3.073,-3.0698,-3.0665,-3.0625,-3.0598,-3.053,-3.0509,-3.0509,-3.0428,-3.0394,-3.041,-3.0336,-3.0311,-3.0292,-3.0292,-3.0266,-3.0163,-2.9372,-2.9493,-3.0142,-2.9359,-2.9506,-2.9958,-2.7407,-2.6887,-2.7475,-2.6641,-2.6279,-2.6204,-2.6145,-2.6536,-2.7084,-2.7084,-2.699,-2.6895,-2.6891,-2.7264,-2.7702,-2.7702,-2.8228,-2.8832,-2.8897,-2.8938,-2.9003,-2.9119,-2.9156,-2.9112,-2.9112,-2.9206,-2.9332,-2.9412,-2.9353,-2.9394,-2.9664,-2.9755,-3.0089,-3.0935,-3.049,0.0,-3.0972,-3.1206,-3.0956,-2.9938,-3.065,-3.08,-2.9811,-2.9003,-2.8461,-2.8297,-2.839,-2.7997,-2.699,-2.6263,-2.5442,-2.4448,-2.3561,-2.2291,-2.0675,0.0,0.0,0.0,0.0,0.0,0.0,0.0,0.0,0.0,0.0,0.0,0.0,0.0,0.0,0.0,0.0,0.0,0.0,0.0,0.0,0.0,0.0,-3.0979,-2.9544,-3.0516,-3.1237,-3.0899,-3.0877,-3.0898,-3.0897,-3.0845,-3.0807,-3.0798,-3.132,-3.1378,-3.0737,-3.1239,-3.1258,-3.0623,-3.0588,-3.0559,-3.0501,-3.043,-3.0386,-3.0406,-3.0328,-3.0336,-3.0374,-3.0323,-3.0311,-3.0323,-3.0056,-3.0069,-3.0247,-2.9972,-3.001,-3.0131,-2.9415,-2.9268,-2.9431,-2.9188,-2.9055,-2.8981,-2.8869,-2.8921,-2.9005,-2.8933,-2.8858,-2.8819,-2.8702,-2.8278,-2.7831,-2.7787,-2.7378,-2.6944,-2.6968,-2.7588,-2.8206,-2.8249,-2.8841,-2.9392,-2.9392,-2.9412,-2.9474,-2.9608,-2.957,-2.9589,-2.9806,-2.9857,-2.9967,-3.0243,-3.0674,0.0,-3.0286,-3.1309,-3.1727,-3.077,-3.0937,-3.0976,-3.0603,-2.9922,-2.9189,-2.8427,-2.897,-2.8914,-2.7961,-2.7773,-2.6951,-2.5372,-2.3906,-2.2861,0.0,0.0,0.0,0.0,0.0,0.0,0.0,0.0,0.0,0.0,0.0,0.0,0.0,0.0,0.0,0.0,0.0,0.0,0.0,0.0,0.0,0.0,-3.1848,-3.2539,-3.1271,-3.1975,-3.2463,-3.2002,-3.1621,-3.1404,-3.1403,-3.1038,-3.0941,-3.1324,-3.1748,-3.1942,-3.18,-3.1856,-3.1678,-3.1212,-3.1164,-3.1137,-3.1088,-3.1043,-3.1021,-3.0981,-3.0548,-3.0352,-3.0402,-3.0328,-3.0336,-3.0398,-3.0362,-3.033,-3.0299,-3.0286,-3.0273,0.0,0.0,0.0,0.0,0.0,-2.9289,-2.9502,-2.9425,-2.9574,-2.9773,-2.9645,-2.9607,-2.9588,-2.9472,-2.9016,-2.8521,-2.8479,-2.8003,-2.7504,-2.7526,-2.8025,-2.8542,-2.8563,-2.9077,-2.9531,-2.9472,-2.9551,-2.9645,-2.9698,-2.9751,0.0,-3.0003,-2.9972,-3.0054,-3.0529,-3.07,-3.082,-3.0926,-3.155,-3.1741,-3.1108,-3.1087,-3.0954,-3.0508,-2.9787,0.0,0.0,0.0,-2.8818,-2.7848,-2.7474,0.0,0.0,0.0,-2.3483,-2.2977,0.0,0.0,0.0,-2.0547,-2.0445,0.0,0.0,0.0,0.0,0.0,0.0,0.0,0.0,0.0,0.0,0.0,0.0,0.0,0.0,0.0,0.0,-3.2963,-3.4438,-3.3778,-3.3685,-3.3619,-3.3413,-3.2637,-3.2107,-3.2104,-3.1307,-3.1129,-3.1906,-3.2079,-3.2435,-3.3109,0.0,0.0,0.0,0.0,-3.1995,-3.1895,-3.1891,-3.1816,-3.1651,-3.0816,-3.0398,-3.0398,-3.034,-3.0348,-3.041,-3.041,-3.0359,-3.0316,-3.0379,-3.0359,-3.0227,-2.9466,-2.911,-2.8983,-2.8192,-2.8316,-2.8874,-2.8867,0.0,0.0,-2.9645,-2.9626,-2.9589,-2.9531,-2.9398,-2.9302,-2.9302,-2.9169,-2.9035,-2.9094,-2.9208,-2.9302,-2.9361,-2.9494,-2.9589,-2.9492,-2.9645,-2.9806,-2.9767,-2.9953,-3.0132,-3.0199,-3.0064,-3.0235,-3.1119,-3.0757,-3.0807,-3.1967,-3.186,-3.1496,-3.1027,0.0,0.0,-2.9964,-2.9196,-2.873,-2.8714,-2.8714,-2.8324,-2.7434,-2.6651,-2.548,-2.3832,-2.4439,-2.4362,-2.3494,-2.4165,-2.4502,-2.4487,-2.2795,-2.2703,0.0,0.0,0.0,0.0,0.0,0.0,0.0,0.0,0.0,0.0,0.0,0.0,0.0,0.0,0.0,-3.2452,-3.4296,-3.5593,-3.5513,-3.5508,-3.4975,-3.3572,-3.2636,-3.2104,-3.21,-3.1301,-3.0872,-3.104,-3.2283,-3.2824,-3.2271,-3.3351,-3.3682,-3.299,-3.2959,-3.2613,-3.1903,-3.19,-3.1545,-3.082,0.0,0.0,-3.0481,-3.0409,-3.0417,-3.0488,-3.0488,-3.0447,-3.0375,-3.0386,-3.0383,-3.0359,-3.021,-3.0113,-3.0083,-2.9929,-2.9883,-2.9898,-2.9909,-2.9905,-2.9878,-2.979,-2.9718,-2.9681,-2.9663,-2.9157,0.0,-2.8596,-2.7998,-2.7344,-2.7306,-2.7942,-2.8577,-2.854,-2.9212,-2.9825,-2.9805,-2.9891,-2.9988,-3.0079,-3.0142,-3.0199,-3.0267,-3.0202,-3.019,-3.0318,-3.1401,-3.1787,-3.0595,-3.215,-3.2514,-3.0362,-3.0776,-3.0818,-2.9899,-2.9706,-2.9612,-2.949,-2.9491,-2.9398,-2.9213,-2.9044,-2.8462,-2.7397,-2.6873,-2.6165,-2.531,-2.4705,-2.4727,-2.5263,-2.421,-2.3859,0.0,0.0,0.0,0.0,0.0,0.0,0.0,0.0,0.0,0.0,0.0,-2.7494,0.0,0.0,-3.2715,-3.3685,-3.4971,-3.5899,-3.5981,-3.5625,-3.5035,-3.4157,-3.3281,-3.2749,-3.2746,-3.1577,-3.1168,-3.2046,-3.2853,-3.3297,-3.3297,-3.4066,-3.4311,-3.3898,-3.3876,-3.3635,-3.3215,-3.2779,-3.2328,-3.1903,-3.0945,-3.049,-3.0491,-3.0419,-3.0439,-3.0499,-3.0499,-3.0479,-3.0439,-3.0449,-3.0711,-3.1058,-3.0664,-3.0449,-3.0398,-3.0398,-3.009,-2.9704,-3.0032,-2.9787,-2.9344,-2.9693,-2.9754,-2.9717,-2.9735,-2.9454,-2.9098,-2.9098,-2.8744,-2.8333,-2.8315,-2.8724,-2.9133,-2.9116,-2.9557,-3.001,-3.0007,-3.0049,-3.0123,-3.0226,-3.0253,-3.0273,-3.0304,-3.0311,-3.026,-3.0166,-3.0892,-3.1264,-3.0706,-3.1409,-3.1599,-3.0644,-3.0517,-3.033,-2.9895,-2.9891,-2.9855,-2.9806,-2.9771,-2.9718,-2.9645,-2.9645,-2.9251,-2.8372,-2.7493,-2.6635,-2.5794,-2.4872,-2.4801,-2.5541,-2.5078,-2.5,0.0,0.0,0.0,0.0,0.0,0.0,0.0,0.0,-2.794,-2.8609,-2.8783,-2.9474,-3.1637,-3.2619,-3.3421,-3.4443,-3.5282,-3.5869,-3.5981,-3.5254,-3.4643,-3.4469,-3.3828,-3.3393,-3.339,-3.2124,-3.1874,-3.3278,-3.3482,-3.3855,-3.4536,-3.4703,-3.4785,-3.4827,-3.4785,-3.4602,-3.426,-3.3552,-3.3033,-3.2677,-3.1216,-3.0588,-3.0752,-3.0537,-3.0557,-3.0732,-3.0588,-3.0519,-3.0519,-3.0694,-3.1178,-3.1739,-3.1081,-3.0771,-3.0651,-3.0486,-2.996,-2.9428,-2.9964,-2.9626,-2.9068,-2.9685,-2.9823,-2.9787,-2.9823,-2.9859,-2.9857,-2.9857,-2.9859,-2.9859,-2.9859,-2.9893,-2.9945,-2.9926,-3.0022,-3.0113,-3.0128,-3.0194,-3.026,-3.0318,-3.0336,-3.0328,-3.0328,-3.0348,-3.0343,-3.0221,-3.0374,-3.0624,-3.1007,-3.0643,-3.0494,-3.089,-3.0273,-2.9841,-2.9907,-2.9891,-2.9874,-2.9876,-2.9825,-2.9719,-2.9588,-2.9607,-2.9195,-2.8315,-2.7606,-2.6878,-2.6054,-2.5298,-2.5338,-2.6098,-2.6041,-2.6182,-2.6841,-2.7157,0.0,-2.6972,-2.8596,-2.972,0.0,0.0,-2.9472,-2.9614,-2.9254,-2.9711,-3.2374,-3.2986,-3.3421,-3.4443,-3.5334,-3.5899,-3.5994,-3.5259,-3.4411,-3.3633,-3.3456,-3.339,-3.34,-3.323,-3.3173,-3.3307,-3.4027,-3.4478,-3.4509,-3.5244,-3.5652,-3.5676,-3.5655,-3.4917,-3.3367,-3.3242,-3.2421,-3.0886,-3.0692,-3.0964,-3.1632,-3.0917,-3.0975,-3.1613,-3.0906,-3.0597,-3.0646,-3.1429,-3.1777,-3.1787,-3.171,-3.1661,-3.1555,-3.077,-3.0398,-3.0263,-3.0273,-3.0131,-2.9965,-3.0049,-3.0072,-3.0057,-2.9991,-3.0019,-3.0064,-3.0064,-3.0068,-3.0072,-3.0072,-3.0072,-3.0087,-3.0079,-3.0133,-3.0215,-3.0267,-3.0328,-3.0406,-3.0458,-3.0428,-3.0386,-3.0386,-3.034,-3.0279,-3.0202,-3.0904,-3.1145,-3.0331,-3.0773,-3.0874,-3.0132,-2.9945,-2.9888,-2.9888,-2.9841,-2.9825,-2.9808,-2.9754,-2.9645,-2.9512,-2.9626,-2.9252,-2.8315,-2.826,-2.7828,-2.6948,-2.6839,-2.7177,-2.7903,-2.7845,-2.7432,-2.8132,0.0,0.0,0.0,-2.919,-3.0056,-2.9963,-3.0208,-3.0771,-3.1842,-3.1121,-3.0815,-3.2511,-3.2952,-3.3354,0.0,-3.5254,-3.5883,-3.5986,-3.4808,-3.3806,-3.3437,-3.3398,-3.3396,-3.34,-3.2943,-3.3048,-3.4042,-3.4428,-3.4594,-3.4549,-3.5385,-3.583,-3.5799,-3.5807,-3.5457,-3.4714,-3.4221,-3.3583,-3.2848,-3.1851,-3.1523,-3.1824,-3.0974,-3.079,-3.1081,-3.0741,-3.0595,-3.0643,-3.1028,-3.1463,-3.1803,-3.1301,-3.1409,-3.1758,-3.0839,-3.015,-2.9759,-3.017,-3.0253,-3.0233,-3.07,-3.0822,-3.0792,-3.0776,-3.0449,-3.0098,-3.0098,-3.0102,-3.0102,-3.0147,-3.0157,-3.018,-3.0202,-3.0267,-3.0328,-3.0352,-3.0417,-3.0469,-3.0479,-3.0469,-3.0458,-3.0417,-3.0375,-3.0328,-3.0279,-3.056,-3.0614,-3.0156,-3.0388,-3.0418,-2.9948,-2.9907,-2.9907,-2.991,-2.9876,-2.9842,-2.9808,-2.9737,-2.9664,-2.955,-2.9569,-2.942,-2.9064,-2.8596,-2.8184,-2.7847,-2.7343,-2.7494,-2.8259,-2.8259,-2.8296,-2.9292,0.0,0.0,-2.9816,-2.977,-3.0262,-3.1844,-3.1751,-3.1789,-3.3411,-3.2433,-3.1672,-3.2871,-3.2833,-3.301,-3.4207,-3.4983,-3.5567,-3.5919,-3.4488,-3.339,-3.3396,-3.2983,-3.287,-3.3348,-3.3049,-3.3431,-3.4909,-3.4789,-3.4728,-3.4956,-3.5554,-3.5859,-3.5803,-3.5803,-3.5687,-3.5477,-3.482,-3.4384,-3.4151,-3.2893,-3.241,-3.2587,-3.1717,-3.1069,-3.0625,-3.0632,-3.0637,-3.0653,-3.0948,-3.1402,-3.1853,-3.1235,-3.1366,-3.1786,-3.0869,-3.0123,-2.9629,-3.0167,-3.0305,-3.0349,-3.0934,-3.1097,-3.1049,-3.1035,-3.0634,-3.0171,-3.0171,-3.0171,-3.0171,-3.024,-3.026,-3.0279,-3.034,-3.0386,-3.0439,-3.0439,-3.0479,-3.053,-3.053,-3.0519,-3.0479,-3.0439,-3.0417,-3.0371,-3.0318,-3.0247,-3.018,-3.0117,-3.0072,-3.0007,-2.991,-2.9907,-2.9907,-2.9893,-2.9876,-2.9842,-2.9808,-2.9737,-2.9683,-2.9607,-2.957,-2.957,-2.9607,-2.9008,-2.8708,-2.8763,-2.8145,-2.8127,-2.8708,-2.8763,-2.9064,0.0,0.0,-3.0723,-3.0808,-3.0789,-3.1014,-3.1976,-3.2165,-3.2468,-3.3578,-3.2469,-3.1863,-3.3714,-3.2737,-3.2243,-3.409,-3.4478,-3.486,-3.5763,-3.4456,-3.3395,-3.3404,-3.19,-3.1538,0.0,-3.4132,-3.4976,-3.5797,-3.5149,-3.5037,-3.5827,-3.5891,-3.5866,-3.5811,-3.5803,-3.5441,-3.4644,-3.4552,-3.4117,-3.334,-3.3274,-3.3677,-3.439,-3.3518,-3.2227,-3.07,-3.0703,-3.0697,-3.075,-3.1605,-3.1975,-3.1994,-3.1972,-3.1938,-3.1778,-3.0916,-3.054,-3.0452,-3.049,-3.0458,-3.0406,-3.0429,-3.0441,-3.0414,-3.0355,-3.0355,-3.0398,-3.0398,-3.0336,-3.0316,-3.0375,-3.0386,-3.0417,-3.0469,-3.05,-3.0491,-3.0491,-3.0559,-3.0598,-3.0598,-3.053,-3.051,-3.0509,-3.0444,-3.0379,-3.0304,-3.0241,-3.018,-3.0117,-2.9991,-2.9905,-2.9888,-2.9888,-2.9888,-2.9888,-2.9841,-2.9808,-2.9808,-2.9754,-2.9682,-2.9607,-2.9664,-2.9645,-2.9607,-2.9645,-2.9662,-2.9662,-2.9697,-2.9715,-2.9753,-2.9753,-2.9771,-3.0503,0.0,-3.1267,-3.0281,-3.0903,-3.1826,-3.2166,-3.2298,-3.2599,-3.3597,-3.2502,-3.155,-3.2182,-3.1956,-3.2081,-3.3335,-3.4082,-3.4834,-3.5773,-3.494,-3.4042,-3.3467,-3.3383,0.0,0.0,0.0,0.0,-3.5828,-3.5178,-3.5053,-3.5866,-3.5904,-3.5883,-3.5872,-3.5859,-3.5723,-3.5403,-3.5376,-3.5232,-3.4948,-3.4369,-3.3627,-3.2768,-3.2477,-3.174,-3.07,-3.0703,-3.1034,-3.154,-3.1242,-3.1825,-3.2811,-3.2232,-3.1984,-3.2004,-3.2238,-3.1583,-3.0568,-3.053,-3.0835,-3.1256,-3.1272,-3.1264,-3.1268,-3.1241,-3.0849,-3.0389,-3.0389,-3.0389,-3.037,-3.0442,-3.0482,-3.0472,-3.0549,-3.0567,-3.0567,-3.0567,-3.0586,-3.0606,-3.0606,-3.0588,-3.0559,-3.051,-3.0479,-3.0425,-3.033,-3.0253,-3.0185,-3.0113,-3.0068,-3.0038,-3.0038,-2.9988,-2.9956,-2.9956,-2.9857,-2.9825,-2.9859,-2.9755,-2.9701,-2.9737,-2.9699,-2.9699,-2.9737,-2.9754,-2.9771,-2.9771,-2.979,-2.9771,-2.9735,-2.9822,-2.9876,-3.1121,-3.1691,-3.2292,-3.1337,-3.1676,-3.2449,-3.311,-3.2825,-3.2654,-3.3614,-3.2502,-3.1382,-3.1431,-3.1302,-3.1507,-3.2474,-3.3425,-3.4361,-3.529,-3.4987,-3.4462,-3.3927,-3.4061,-3.4109,0.0,0.0,0.0,-3.584,-3.4901,-3.4716,-3.5845,-3.5919,-3.5919,-3.5892,-3.5898,-3.5872,-3.5852,-3.5811,-3.5803,-3.5795,-3.5224,-3.4062,-3.2404,-3.2392,-3.1778,-3.069,-3.073,-3.1236,-3.1993,-3.144,-3.2018,-3.3219,-3.2364,-3.2214,-3.246,-3.2346,-3.1992,-3.1482,-3.112,-3.1138,-3.1311,-3.1279,-3.1259,-3.1281,-3.1245,-3.0863,-3.0432,-3.0432,-3.0452,-3.0492,-3.0548,-3.0565,-3.0574,-3.0629,-3.0637,-3.0637,-3.061,-3.0593,-3.0604,-3.0604,-3.0595,-3.0588,-3.0501,-3.0479,-3.0444,-3.033,-3.0266,-3.0199,-3.0109,-3.0098,-3.0102,-3.0102,-3.0053,-3.0038,-3.0038,-2.9924,-2.9893,-2.9893,-2.9825,-2.9773,-2.9808,-2.9789,-2.9771,-2.9808,-2.9825,-2.9825,-2.9825,-2.9842,-2.9823,-2.9769,-2.9905,-2.9972,-3.221,-3.2767,-3.3564,-3.3711,-3.3125,-3.2957,-3.4508,-3.3617,-3.2707,-3.3515,-3.2409,-3.1321,0.0,0.0,-3.0636,-3.1622,-3.2546,-3.3485,-3.4461,-3.4618,-3.4632,0.0,0.0,0.0,0.0,0.0,0.0,-3.5862,0.0,-3.4156,-3.5758,-3.5942,-3.5968,-3.5911,-3.5911,-3.5905,-3.5905,-3.5852,-3.5823,-3.5818,-3.5818,-3.4944,-3.3378,-3.3315,-3.2383,-3.0761,-3.0798,-3.132,-3.2153,-3.2114,-3.263,-3.3359,-3.2542,-3.2667,-3.3116,-3.1488,-3.1844,-3.3021,-3.2238,-3.1399,-3.0656,-3.055,-3.0501,-3.0491,-3.0419,-3.0471,-3.0511,-3.0511,-3.0558,-3.0618,-3.068,-3.0703,-3.071,-3.0707,-3.07,-3.0673,-3.061,-3.061,-3.061,-3.061,-3.0602,-3.0585,-3.0511,-3.0447,-3.0379,-3.0316,-3.0299,-3.0253,-3.0123,-3.0098,-3.0102,-3.0102,-3.0102,-3.0102,-3.0102,-3.0038,-2.9972,-2.9905,-2.9905,-2.9855,-2.9825,-2.9859,-2.9895,-2.9825,-2.9895,-2.9893,-2.9836,-2.9851,-2.9832,-2.9848,-2.9973,-3.0071,-3.212,-3.2373,-3.2711,-3.2746,-3.3596,-3.4184,-3.333,-3.3344,-3.3225,-3.2162,-3.1626,-3.1196,0.0,0.0,0.0,-3.1564,-3.2003,0.0,-3.4438,-3.4675,0.0,-3.4697,0.0,-3.5148,-3.4744,-3.4509,0.0,0.0,-3.4996,-3.4562,-3.4979,-3.5646,-3.5973,-3.5903,-3.5903,-3.5897,-3.5905,-3.5879,-3.5866,-3.5864,-3.5864,-3.53,-3.425,-3.3596,-3.2733,-3.1713,-3.1076,-3.1651,-3.303,-3.2367,-3.3341,-3.5159,-3.4291,-3.3721,-3.3384,-3.3543,-3.3044,-3.2361,-3.2734,-3.2294,-3.1465,-3.078,-3.0604,-3.0649,-3.0632,-3.0637,-3.0649,-3.0649,-3.0651,-3.0678,-3.0704,-3.0698,-3.0704,-3.0704,-3.069,-3.0703,-3.0676,-3.0661,-3.0673,-3.0673,-3.0629,-3.0595,-3.0578,-3.0519,-3.0436,-3.0379,-3.0336,-3.0267,-3.0194,-3.0185,-3.0171,-3.0166,-3.0171,-3.0157,-3.0157,-3.0098,-3.0072,-3.0038,-2.9956,-2.994,-3.0007,-2.9991,-2.9991,-3.0007,-3.0041,-2.9722,-2.9083,-2.908,-2.9064,-2.9014,-2.9087,-2.9513,-3.1789,-3.2033,-3.2462,-3.2495,-3.3266,-3.3792,-3.2806,-3.2721,-3.2562,-3.1546,-3.107,0.0,0.0,0.0,0.0,0.0,0.0,0.0,-3.3925,-3.4452,-3.4833,0.0,-3.5695,0.0,-3.5312,-3.5272,-3.5312,0.0,-3.4979,-3.4877,-3.5257,-3.5724,-3.5977,-3.5899,-3.5894,-3.5903,-3.5897,-3.5897,-3.5891,-3.5905,-3.5905,-3.5437,-3.458,-3.3729,-3.2897,-3.2051,0.0,-3.1783,-3.3336,-3.2454,-3.3395,-3.5256,-3.3999,-3.3448,-3.3351,-3.3044,-3.2789,-3.2571,-3.2214,-3.2025,-3.1868,-3.1338,-3.0942,-3.0657,-3.0657,-3.0661,-3.0651,-3.0685,-3.073,-3.0728,-3.0703,-3.0722,-3.0736,-3.071,-3.0698,-3.0698,-3.0698,-3.0704,-3.0697,-3.0703,-3.0637,-3.0595,-3.0606,-3.054,-3.049,-3.0447,-3.0406,-3.0352,-3.0292,-3.0247,-3.0253,-3.0241,-3.0234,-3.024,-3.024,-3.0185,-3.0142,-3.0147,-3.0034,-3.0019,-3.0102,-3.0053,-3.0053,-3.0098,-3.0102,-2.9688,-2.885,-2.9212,-2.9174,-2.8793,-2.9287,-2.9794,-3.1667,-3.2062,-3.2683,-3.2768,-3.2832,-3.2802,-3.2473,-3.201,-3.1551,-3.1153,0.0,-3.0236,-3.0161,-3.0216,-3.0332,-3.0519,0.0,-3.2211,-3.3095,-3.3984,-3.4856,-3.573,-3.593,-3.5993,-3.5996,-3.5994,-3.568,-3.4922,-3.4862,-3.5152,-3.5782,-3.5939,-3.5977,-3.5909,-3.5899,-3.5894,-3.5894,-3.5914,-3.5914,-3.5914,-3.5914,-3.5524,-3.4745,-3.3819,-3.2985,-3.221,-3.1235,-3.1726,-3.3177,-3.2405,-3.3052,-3.4386,-3.2865,-3.265,-3.3041,-3.1531,-3.1932,-3.2996,-3.1426,-3.1376,-3.1974,-3.1798,-3.1233,-3.0602,-3.0621,-3.0634,-3.0644,-3.0704,-3.0755,-3.0784,-3.0728,-3.0759,-3.0784,-3.0728,-3.0703,-3.0703,-3.0703,-3.0703,-3.0697,-3.0698,-3.0642,-3.0621,-3.061,-3.0558,-3.0511,-3.0511,-3.05,-3.0479,-3.0439,-3.0348,-3.0286,-3.0304,-3.0318,-3.0292,-3.0292,-3.0247,-3.0207,-3.0199,-3.0042,-3.0013,-3.0132,-3.0022,-2.9999,-3.0123,-3.0113,-2.9713,-2.8902,-2.9608,-2.9612,-2.8951,-2.9817,-3.0334,-3.3244,-3.3477,-3.3591,-3.3723,-3.3804,-3.3312,-3.1193,-3.1692,0.0,0.0,-3.024,-3.0791,-3.007,-3.0052,0.0,-3.0329,0.0,0.0,0.0,0.0,-3.3952,0.0,0.0,0.0,0.0,0.0,0.0,0.0,0.0,-3.5527,-3.4954,-3.5614,-3.5977,-3.5894,-3.5899,-3.5904,-3.5904,-3.5953,-3.5977,-3.5977,-3.5977,-3.5903,-3.5708,-3.4109,-3.3314,-3.3099,-3.15,0.0,-3.2307,-3.2155,-3.2709,-3.361,-3.3282,-3.2837,-3.229,-3.1998,-3.2065,-3.2279,-3.1963,-3.1953,-3.1957,-3.1164,-3.0801,-3.0685,-3.0755,-3.0767,-3.0773,-3.0784,-3.0794,-3.0799,-3.0794,-3.0789,-3.0803,-3.0784,-3.0734,-3.0703,-3.0703,-3.0703,-3.0703,-3.0697,-3.0685,-3.0676,-3.0683,-3.0629,-3.0586,-3.0586,-3.054,-3.052,-3.0559,-3.0406,-3.0323,-3.0379,-3.0336,-3.0292,-3.0292,-3.0292,-3.0267,-3.0279,-2.9608,-2.9499,-3.0234,-2.9576,-2.9518,-3.0247,-3.0207,-2.9792,-2.8977,-2.913,-2.9136,-2.9075,-2.9242,-2.9767,-3.1778,-3.1876,-3.1841,-3.1996,-3.2067,-3.1814,-3.0574,0.0,0.0,0.0,-3.006,-3.0414,-3.0032,0.0,0.0,0.0,0.0,0.0,0.0,0.0,0.0,0.0,0.0,0.0,0.0,0.0,0.0,0.0,0.0,-3.582,-3.5408,-3.5779,-3.5962,-3.5899,-3.5904,-3.5914,-3.5947,-3.597,-3.5994,-3.6001,-3.6001,-3.6001,-3.5962,-3.4654,-3.3838,-3.3328,-3.2037,-3.1702,-3.2053,-3.1604,-3.1939,-3.2687,-3.2218,-3.1792,-3.1421,-3.1421,-3.1415,-3.1429,-3.1425,-3.1418,-3.1352,-3.0901,-3.0745,-3.0759,-3.0789,-3.0794,-3.0799,-3.0798,-3.0798,-3.0793,-3.0802,-3.0793,-3.0808,-3.0793,-3.0778,-3.0759,-3.0743,-3.0754,-3.0745,-3.0755,-3.0728,-3.0698,-3.0704,-3.0676,-3.0645,-3.0657,-3.0613,-3.0595,-3.0597,-3.051,-3.0458,-3.0455,-3.0029,-2.9898,-3.0328,-2.9951,-2.985,-3.026,-2.9909,-2.9858,-3.0273,-2.989,-2.9883,-3.0343,-3.0318,-2.9908,-2.9118,-2.9563,-2.9591,-2.9215,-2.9702,-3.0212,-3.0609,-3.0632,-3.0575,-3.0527,-3.0414,-3.029,-3.0112,-3.0011,0.0,0.0,-2.987,-2.9921,-3.0007,0.0,0.0,0.0,0.0,0.0,0.0,0.0,0.0,0.0,0.0,0.0,0.0,0.0,0.0,0.0,0.0,0.0,-3.5993,-3.5996,-3.5974,-3.5914,-3.5914,-3.5947,-3.6001,-3.6004,-3.601,-3.5996,-3.5996,-3.5896,-3.5681,-3.4822,-3.3944,-3.3066,-3.2202,-3.1811,-3.1775,-3.1089,-3.1206,-3.1758,-3.1075,-3.0801,-3.0823,-3.0823,-3.0823,-3.0823,-3.0821,-3.0819,-3.0819,-3.081,-3.0806,-3.0799,-3.0793,-3.0793,-3.0793,-3.0798,-3.0794,-3.079,-3.0801,-3.0798,-3.0798,-3.0804,-3.0791,-3.0796,-3.0799,-3.0791,-3.0798,-3.079,-3.076,-3.0728,-3.073,-3.0711,-3.0697,-3.0688,-3.0707,-3.0673,-3.0613,-3.0451,-3.0298,-3.0249,-2.9629,-2.9385,-2.9833,-2.9387,-2.9375,-3.0021,-3.0042,-3.0126,-3.0299,-3.0163,-3.0186,-3.0421,-3.0421,-3.0098,-2.9506,-3.0173,-3.0197,-2.9622,-3.0364,-3.0747,-3.2292,-3.2498,-3.2307,-3.1705,-3.0964,-3.0216,-2.9544,0.0,0.0,-2.9008,-2.9478,-2.994,-3.0072,-2.9503,-2.9327,0.0,0.0,-3.004,0.0,0.0,0.0,0.0,0.0,0.0,0.0,0.0,0.0,0.0,0.0,0.0,-3.5996,-3.6004,-3.5994,-3.5986,-3.5994,-3.5981,-3.5991,-3.5999,-3.6003,-3.6003,-3.6003,-3.5591,-3.4783,-3.3925,-3.3046,-3.2168,-3.1309,-3.0914,0.0,-3.0838,-3.0855,-3.0911,-3.0838,-3.0843,-3.0888,-3.0888,-3.0889,-3.0894,-3.0894,-3.0892,-3.0873,-3.0829,-3.0796,-3.0798,-3.0807,-3.0804,-3.0798,-3.0807,-3.0791,-3.0791,-3.0791,-3.0799,-3.0808,-3.0808,-3.0804,-3.0799,-3.0801,-3.0796,-3.0791,-3.0791,-3.0806,-3.0794,-3.0784,-3.0748,-3.0704,-3.0697,-3.071,-3.0676,-3.061,-2.9915,-2.9416,-2.9419,-2.9273,-2.8914,-2.8191,-2.8728,-2.9151,-2.9289,-2.9248,-2.9575,-3.0367,-2.9693,-2.9676,-3.0479,-3.0428,-3.0413,-3.0477,-3.0496,-3.0515,-3.0579,-3.0726,-3.0786,-3.1092,-3.1238,-3.12,-3.096,-3.0285,-2.9727,-2.9927,0.0,-2.9072,-2.9527,-2.976,-2.9926,-2.9956,-2.9417,-2.9269,-3.0183,-2.9757,0.0,0.0,0.0,0.0,0.0,0.0,0.0,0.0,0.0,0.0,0.0,0.0,0.0,-3.6005,-3.5994,-3.6004,-3.5994,-3.6004,-3.5991,-3.5999,-3.6005,-3.6007,-3.5986,-3.546,-3.5047,-3.4666,-3.379,-3.2912,-3.207,-3.1738,-3.1309,0.0,-3.0821,-3.0821,-3.0862,-3.0864,-3.0886,-3.0907,-3.0891,-3.0894,-3.0895,-3.0895,-3.0895,-3.0895,-3.0818,-3.0835,-3.0849,-3.0806,-3.0806,-3.0808,-3.085,-3.0832,-3.0793,-3.0796,-3.0798,-3.0819,-3.0859,-3.0859,-3.0858,-3.0857,-3.0853,-3.0849,-3.0819,-3.0801,-3.0798,-3.0799,-3.0784,-3.0748,-3.0711,-3.0704,-3.069,-3.0653,-3.0354,-2.973,-2.8635,-2.8019,-2.7759,-2.7894,-2.8192,-2.8385,-2.8413,-2.8886,-2.9329,-2.9666,-2.9408,-2.967,-3.055,-3.052,-3.0574,-3.0664,-3.0665,-3.0706,-3.0757,-3.079,-3.08,-3.0085,-3.0196,-3.0292,-3.0352,-2.9743,-2.9338,0.0,0.0,-2.8706,-2.9516,-2.9614,-2.9472,-2.9289,-2.8911,-2.8941,-2.986,-2.9406,-2.9433,0.0,0.0,0.0,0.0,0.0,0.0,0.0,0.0,0.0,0.0,0.0,0.0,-3.5994,-3.6003,-3.5994,-3.6007,-3.5996,-3.6003,-3.6009,-3.5992,-3.5992,-3.5989,-3.5112,-3.4564,-3.4281,-3.3406,-3.2547,-3.1745,-3.1745,-3.1415,0.0,-3.0849,-3.085,-3.0875,-3.0875,-3.0876,-3.0877,-3.0879,-3.0879,-3.0879,-3.0879,-3.0879,-3.0859,-3.0819,-3.0839,-3.0859,-3.08,-3.08,-3.0818,-3.0859,-3.084,-3.0801,-3.0799,-3.0799,-3.0819,-3.0856,-3.0895,-3.0897,-3.0898,-3.0898,-3.0896,-3.0847,-3.0813,-3.0794,-3.0793,-3.0799,-3.0778,-3.071,-3.0724,-3.062,-3.0353,-3.0093,-2.9334,-2.7807,-2.6873,-2.6569,-2.7113,-2.7393,-2.7663,-2.7913,-2.8743,-2.9332,-2.9602,-2.9651,-2.9988,-3.0621,-3.063,-3.0665,-3.073,-3.079,-3.0801,-3.0838,-3.0801,-3.0796,-2.9962,-3.0099,-3.0215,-3.0292,-2.9639,-2.9212,0.0,0.0,-2.7742,-2.8559,-2.8704,-2.8506,-2.7847,-2.7781,-2.8144,-2.914,-2.863,0.0,0.0,0.0,0.0,0.0,0.0,0.0,0.0,0.0,0.0,0.0,0.0,0.0,-3.5996,-3.5992,-3.6003,-3.6003,-3.6009,-3.5993,-3.5995,-3.5995,-3.5995,-3.5995,-3.5116,-3.4256,-3.3374,-3.2513,-3.1675,-3.0913,-3.0913,-3.0915,0.0,-3.0897,-3.0859,-3.08,-3.08,-3.0797,-3.079,-3.079,-3.0806,-3.0801,-3.0801,-3.0801,-3.0801,-3.0801,-3.0801,-3.0801,-3.0801,-3.0795,-3.0801,-3.0798,-3.0795,-3.0808,-3.0796,-3.0804,-3.0808,-3.0801,-3.0849,-3.0895,-3.0897,-3.0898,-3.0897,-3.0895,-3.086,-3.0794,-3.0802,-3.0808,-3.0774,-3.0709,-3.0753,-3.0461,-2.9531,-2.8664,-2.779,-2.6916,-2.6029,-2.549,-2.5429,-2.6215,-2.7074,-2.7951,-2.8763,-2.9612,-3.0557,-3.0595,-3.0626,-3.0697,-3.07,-3.0724,-3.081,-3.0795,-3.082,-3.0907,-3.0823,-3.0804,-2.8343,-2.8308,-2.8561,-2.9121,-2.8651,-2.8262,-2.9069,-2.8313,-2.7528,-2.7883,-2.7951,-2.7908,-2.7739,-2.7351,-2.7526,-2.8991,-2.8604,-2.8812,0.0,0.0,0.0,0.0,0.0,0.0,0.0,0.0,0.0,0.0,0.0,0.0,-3.5995,-3.5995,-3.5994,-3.6009,-3.5993,-3.5994,-3.5995,-3.5996,-3.5996,-3.5995,-3.5117,-3.4237,-3.3374,-3.2499,-3.1659,-3.0897,-3.0859,-3.0859,-3.0898,-3.0859,-3.0819,-3.0797,-3.0795,-3.0792,-3.081,-3.0806,-3.0801,-3.0799,-3.0796,-3.0796,-3.0794,-3.079,-3.081,-3.079,-3.075,-3.0758,-3.0806,-3.0796,-3.0794,-3.081,-3.0804,-3.0807,-3.0791,-3.0794,-3.0819,-3.0845,-3.0896,-3.0859,-3.0859,-3.0892,-3.0841,-3.0804,-3.0794,-3.0802,-3.0594,-2.9966,-2.9907,-2.9591,-2.8693,-2.8338,-2.784,-2.6955,-2.6618,-2.6191,-2.5526,-2.6812,-2.7516,-2.7199,-2.8547,-2.9477,-2.9777,-2.9771,-3.0077,-3.07,-3.0742,-3.0786,-3.08,-3.0801,-3.0816,-3.0838,-3.0817,-3.0798,0.0,-2.7399,-2.7618,-2.8108,-2.7856,-2.7609,-2.8116,-2.7566,-2.6982,-2.7096,-2.7147,-2.7113,-2.6867,-2.6774,-2.7195,-2.8559,-2.8126,0.0,0.0,0.0,0.0,0.0,0.0,0.0,0.0,0.0,0.0,0.0,0.0,0.0,-3.5996,-3.5996,-3.5996,-3.5995,-3.5995,-3.5996,-3.5996,-3.5996,-3.5996,-3.5996,-3.5117,-3.4238,-3.3379,-3.2499,-3.1658,-3.0859,-3.0819,-3.0818,0.0,-3.0814,-3.0792,-3.0804,-3.0799,-3.0794,-3.0791,-3.0801,-3.0798,-3.0798,-3.0771,-3.0767,-3.0763,-3.0755,-3.0755,-3.0755,-3.0709,-3.0735,-3.0767,-3.0786,-3.0778,-3.0774,-3.0782,-3.0806,-3.081,-3.0801,-3.0807,-3.0819,-3.0853,-3.0858,-3.0859,-3.0892,-3.0591,-3.0345,-3.0317,-3.0033,-2.9632,-2.9093,-2.9011,-2.869,-2.7863,-2.7736,-2.7395,-2.6529,-2.6426,-2.6182,-2.5583,-2.6501,-2.718,-2.7291,-2.832,-2.9224,-2.9893,-2.992,-3.018,-3.0726,-3.0776,-3.0801,-3.0798,-3.0792,-3.0799,-3.0794,-3.0769,-3.0769,0.0,-2.7062,0.0,-2.7182,-2.7204,-2.721,-2.7213,-2.6681,0.0,-2.6212,-2.632,-2.6217,-2.5605,-2.6214,-2.7104,-2.8029,-2.7511,0.0,0.0,0.0,0.0,0.0,0.0,0.0,0.0,0.0,0.0,0.0,0.0,0.0,-3.5995,-3.5996,-3.5996,-3.5995,-3.5996,-3.5996,-3.5996,-3.5996,-3.5976,-3.5897,-3.5152,-3.4269,-3.3287,-3.2539,-3.168,0.0,-3.0808,-3.0806,-3.0799,-3.0799,-3.0804,-3.0798,-3.0798,-3.0789,-3.0799,-3.0789,-3.0784,-3.0784,-3.0728,-3.0697,-3.0697,-3.0697,-3.0697,-3.0697,-3.0697,-3.0697,-3.0709,-3.0769,-3.0739,-3.0709,-3.0774,-3.0799,-3.0804,-3.0798,-3.0798,-3.0796,-3.0808,-3.0855,-3.0879,-3.0818,-3.0146,-2.9552,-2.9445,-2.8736,-2.8184,-2.8122,-2.8119,-2.7819,-2.702,-2.6848,-2.6528,-2.5781,-2.5636,-2.5609,-2.5613,-2.5604,-2.6326,-2.7998,-2.8179,-2.8985,-3.0723,-3.0799,-3.0795,-3.0801,-3.0798,-3.079,-3.0796,-3.0801,-3.0782,-3.0794,-3.0725,-3.0697,-2.5084,0.0,-2.5458,-2.6075,-2.6226,-2.6244,0.0,-2.6211,-2.5991,0.0,0.0,-2.5677,-2.6279,-2.6624,-2.7285,-2.8776,-2.8897,0.0,0.0,0.0,0.0,0.0,0.0,0.0,0.0,0.0,0.0,0.0,0.0,-3.5995,-3.5995,-3.5995,-3.5995,-3.5992,-3.5991,-3.5992,-3.5995,-3.5994,-3.5679,-3.5011,-3.5474,-3.4532,-3.2424,-3.2885,-3.226,-3.0796,-3.0791,-3.0807,-3.0804,-3.0806,-3.0793,-3.0784,-3.0745,-3.0714,-3.0714,-3.0728,-3.0728,-3.0722,-3.0704,-3.0698,-3.0698,-3.071,-3.0703,-3.0703,-3.0703,-3.0691,-3.0703,-3.0728,-3.0709,-3.0703,-3.0728,-3.0759,-3.0794,-3.0804,-3.0806,-3.0807,-3.0808,-3.0855,-3.0703,-3.0036,-2.9737,-2.9379,-2.8703,-2.8408,-2.8051,-2.7374,-2.728,-2.6971,-2.6113,-2.5999,-2.5905,-2.571,-2.569,-2.5671,-2.5676,-2.6229,-2.703,-2.8119,-2.8808,-2.9669,-3.0756,-3.0801,-3.0796,-3.081,-3.0804,-3.0806,-3.0798,-3.0755,-3.0714,-3.071,-3.0646,-3.063,-2.4564,-2.4615,-2.481,-2.5236,-2.5362,-2.5408,-2.5476,0.0,0.0,0.0,0.0,0.0,-2.6483,-2.6733,0.0,-2.9028,-2.8992,0.0,0.0,0.0,0.0,0.0,0.0,0.0,0.0,0.0,0.0,0.0,0.0,-3.6007,-3.6007,-3.6007,-3.6005,-3.6001,-3.5999,-3.6003,-3.6007,-3.6005,-3.5767,-3.5291,-3.5731,-3.4811,-3.2719,-3.3177,-3.2455,-3.0798,-3.0806,-3.0802,-3.0802,-3.0804,-3.0789,-3.0745,-3.0709,-3.0703,-3.0703,-3.0691,-3.071,-3.0704,-3.0697,-3.0683,-3.0649,-3.0653,-3.0645,-3.0645,-3.0645,-3.0649,-3.0658,-3.0685,-3.0698,-3.0691,-3.0697,-3.0722,-3.0767,-3.0789,-3.0793,-3.0798,-3.0799,-3.0852,-3.076,-3.0292,-2.9861,-2.9449,-2.8974,-2.8231,-2.7546,-2.7075,-2.6663,-2.6234,-2.5769,-2.5709,-2.5707,-2.5691,-2.5709,-2.5709,-2.5694,-2.6093,-2.6888,-2.8179,-2.8699,-2.9508,-3.0742,-3.0795,-3.0799,-3.0798,-3.0793,-3.0774,-3.0753,-3.0685,-3.0651,-3.0642,-3.0554,-3.052,-2.4391,-2.4476,-2.4561,-2.47,-2.479,-2.4855,-2.4934,0.0,0.0,0.0,0.0,0.0,0.0,0.0,0.0,0.0,0.0,0.0,0.0,0.0,0.0,0.0,0.0,0.0,0.0,0.0,0.0,0.0,0.0,-3.5991,-3.5991,-3.5991,-3.6007,-3.5997,-3.5985,-3.5985,-3.5985,-3.5988,-3.5926,-3.5802,-3.5869,-3.4944,-3.3219,-3.3346,-3.2445,-3.0798,0.0,0.0,-3.0799,-3.0784,-3.0748,-3.0697,-3.0697,-3.0691,-3.071,-3.0691,-3.0704,-3.0704,-3.0688,-3.0734,-3.0787,-3.0787,-3.0787,-3.0787,-3.0787,-3.069,-3.061,-3.0664,-3.0676,-3.0688,-3.0698,-3.0698,-3.0717,-3.0773,-3.0784,-3.0806,-3.0807,-3.0847,-3.0817,-3.0547,-2.9902,-2.9316,-2.9043,-2.7773,-2.6855,-2.6973,-2.6268,-2.5741,-2.5878,-2.5778,-2.5698,-2.5702,-2.5699,-2.5699,-2.5702,-2.5702,-2.6444,-2.8182,-2.8281,-2.9043,-3.0735,-3.0801,-3.0801,-3.0799,-3.0769,-3.0748,-3.0685,-3.0622,-3.0582,-3.0577,-3.0442,-3.0367,-2.3393,-2.3667,-2.3968,-2.4758,-2.4993,-2.5077,-2.5152,0.0,0.0,0.0,0.0,0.0,0.0,0.0,0.0,0.0,0.0,0.0,0.0,0.0,0.0,0.0,0.0,0.0,0.0,0.0,0.0,0.0,0.0,-3.5991,-3.5991,-3.6004,-3.5974,-3.5914,-3.5919,-3.5929,-3.5922,-3.5919,-3.5576,-3.49,-3.5573,-3.4647,-3.2328,-3.3069,-3.244,-3.0804,0.0,-3.0808,-3.0803,-3.0736,-3.0711,-3.0704,-3.0704,-3.069,-3.0695,-3.0707,-3.0707,-3.068,-3.064,-3.1051,-3.1623,-3.1622,-3.1613,-3.1613,-3.1613,-3.1149,-3.0597,-3.061,-3.0618,-3.0637,-3.0688,-3.0703,-3.0704,-3.0716,-3.0755,-3.0806,-3.0807,-3.0843,-3.0461,-2.8981,-2.8592,-2.8026,-2.6542,-2.6074,-2.6152,-2.6894,-2.6269,-2.5976,-2.6719,-2.6152,-2.5703,-2.5702,-2.5702,-2.5702,-2.5702,-2.5697,-2.6417,-2.8114,-2.8278,-2.9057,-3.0729,-3.0806,-3.0804,-3.0808,-3.0698,-3.063,-3.0618,-3.0558,-3.0491,-3.0419,-3.0344,-3.0273,-2.2645,-2.3196,-2.3784,-2.4274,-2.516,-2.5936,-2.6006,0.0,0.0,0.0,0.0,0.0,0.0,0.0,0.0,0.0,0.0,0.0,0.0,0.0,0.0,0.0,0.0,0.0,0.0,0.0,0.0,0.0,0.0,0.0,-3.5951,-3.5942,-3.5929,-3.5899,-3.5899,-3.5908,-3.5905,-3.5908,-3.5705,-3.5354,-3.5251,-3.435,-3.2791,-3.2727,-3.2002,-3.0789,0.0,-3.0761,-3.0736,-3.0704,-3.0703,-3.0695,-3.0661,-3.0653,-3.0637,-3.0649,-3.066,-3.0701,-3.111,-3.1178,-3.1167,-3.16,-3.1446,-3.11,-3.11,-3.0849,-3.054,-3.055,-3.0558,-3.0613,-3.0637,-3.068,-3.0703,-3.0698,-3.0759,-3.0672,-3.0201,-3.0121,-2.9762,-2.8498,-2.8247,-2.7995,-2.7235,-2.7102,-2.7085,-2.7006,-2.6655,-2.6383,-2.6305,-2.5951,-2.5697,-2.5697,-2.5699,-2.5699,-2.5694,-2.5691,-2.6427,-2.8098,-2.911,-2.9978,-3.0726,-3.0709,-3.0665,-3.0649,-3.0546,-3.0492,-3.0481,-3.0386,-3.0304,-3.0241,-3.0174,-3.009,-2.2168,-2.2849,-2.358,-2.4119,0.0,-2.64,-2.6674,0.0,0.0,0.0,0.0,0.0,0.0,0.0,0.0,0.0,0.0,0.0,0.0,0.0,0.0,0.0,0.0,0.0,0.0,0.0,0.0,0.0,0.0,-3.5958,-3.5909,-3.5899,-3.5908,-3.5903,-3.5903,-3.5897,-3.5898,-3.5898,-3.5794,-3.5591,-3.4909,-3.4072,-3.3059,-3.2405,-3.1621,-3.0773,-3.0724,-3.0704,-3.0697,-3.0688,-3.0692,-3.0665,-3.061,-3.0602,-3.0604,-3.0586,-3.0694,-3.0955,-3.1562,-3.1463,-3.1152,-3.1777,-3.1441,-3.0777,-3.0777,-3.0642,-3.0469,-3.0469,-3.051,-3.0559,-3.0585,-3.0649,-3.0673,-3.069,-3.0749,-3.0578,-2.9937,-2.978,-2.9464,-2.8411,-2.82,-2.8148,-2.7998,-2.7984,-2.7908,-2.763,-2.7245,-2.6837,-2.6366,-2.5956,-2.5705,-2.5709,-2.5693,-2.5691,-2.5676,-2.5849,-2.6598,-2.8072,-2.9426,-3.0325,-3.0659,-3.061,-3.0554,-3.0482,-3.0402,-3.0356,-3.0323,-3.0234,-3.0133,-3.0064,-2.9988,-2.9926,-2.2014,-2.2588,-2.3103,-2.4838,0.0,0.0,-2.6602,-2.6895,0.0,0.0,0.0,0.0,0.0,0.0,0.0,0.0,0.0,0.0,0.0,0.0,0.0,0.0,0.0,0.0,0.0,0.0,0.0,0.0,-3.5938,-3.5909,-3.5909,-3.5899,-3.5903,-3.5911,-3.5911,-3.5898,-3.5905,-3.5905,-3.5483,-3.4684,-3.4625,-3.3749,-3.2191,-3.2127,-3.1584,-3.0717,-3.0704,-3.0703,-3.07,-3.0637,-3.0621,-3.0604,-3.0602,-3.0604,-3.0598,-3.053,-3.0972,-3.1623,-3.17,-3.2158,-3.275,-3.2776,-3.2261,-3.1611,-3.1611,-3.1053,-3.0417,-3.0417,-3.0406,-3.0444,-3.0579,-3.0606,-3.0613,-3.0692,-3.0703,-3.0691,-3.0619,-3.0603,-3.0146,-2.851,-2.8197,-2.794,-2.714,-2.7056,-2.7591,-2.9093,-2.8001,-2.7276,-2.8012,-2.6705,-2.569,-2.5693,-2.5693,-2.5662,-2.56,-2.6281,-2.7097,-2.7954,-2.8184,-2.8981,-3.054,-3.0528,-3.0482,-3.0413,-3.0344,-3.0248,-3.0122,-3.0109,-3.0038,-2.9905,-2.991,-2.9912,-2.0702,-2.2142,-2.3514,-2.373,0.0,0.0,0.0,0.0,0.0,0.0,0.0,0.0,0.0,0.0,0.0,0.0,0.0,0.0,0.0,0.0,0.0,0.0,0.0,0.0,0.0,0.0,0.0,-3.5943,-3.5919,-3.5894,-3.5903,-3.5911,-3.5898,-3.5892,-3.5898,-3.5872,-3.5838,-3.5346,-3.4653,-3.379,-3.3784,-3.3186,-3.2018,-3.1481,-3.1035,-3.0697,-3.0703,-3.068,-3.0637,-3.0623,-3.0597,-3.0588,-3.055,-3.055,-3.0588,-3.1017,-3.1388,-3.1711,-3.2199,-3.2231,-3.2031,-3.2031,-3.1456,-3.0778,-3.0772,-3.0535,-3.0267,-3.0267,-3.0318,-3.0355,-3.0458,-3.052,-3.054,-3.0576,-3.0637,-3.054,-2.9958,-2.9868,-2.9537,-2.8365,-2.8174,-2.7917,-2.7054,-2.7815,-2.8236,-2.7277,-2.7475,-2.7475,-2.6724,-2.6057,-2.5648,-2.5632,-2.5604,-2.5571,-2.5529,-2.5783,-2.6276,-2.7085,-2.8171,-2.9263,-3.0372,-3.0386,-3.0328,-3.0222,-3.0099,-3.0026,-2.9981,-2.994,-2.9857,-2.977,-2.9737,-2.9664,-2.0754,-2.2603,-2.4413,0.0,0.0,0.0,0.0,0.0,0.0,0.0,0.0,0.0,0.0,0.0,0.0,0.0,0.0,0.0,0.0,0.0,0.0,0.0,0.0,0.0,0.0,0.0,-3.5899,-3.5903,-3.5903,-3.5897,-3.5898,-3.5905,-3.5905,-3.5905,-3.5885,-3.5859,-3.5803,-3.4982,-3.4119,-3.3262,-3.2992,-3.2415,-3.1566,-3.097,-3.0697,-3.0668,-3.0673,-3.0621,-3.0567,-3.0578,-3.0559,-3.055,-3.0499,-3.0609,-3.0876,-3.136,-3.1686,-3.1947,-3.2517,-3.2163,-3.1475,-3.1475,-3.0882,-3.0194,-3.0199,-3.0199,-3.018,-3.018,-3.0194,-3.0253,-3.0316,-3.0398,-3.0481,-3.0492,-3.0577,-3.0477,-2.9829,-2.9757,-2.9528,-2.8689,-2.856,-2.8312,-2.7459,-2.831,-2.8501,-2.6759,-2.7231,-2.7363,-2.6162,-2.5764,-2.56,-2.5576,-2.5529,-2.5486,-2.5432,-2.5393,-2.5698,-2.6491,-2.786,-2.9033,-2.9826,-3.0113,-3.0166,-3.0049,-2.9956,-2.9874,-2.9841,-2.9736,-2.9682,-2.9608,-2.9474,-2.9373,-2.2568,-2.4133,0.0,0.0,0.0,0.0,0.0,0.0,0.0,0.0,0.0,0.0,0.0,0.0,0.0,0.0,0.0,0.0,0.0,0.0,0.0,0.0,0.0,0.0,0.0,-3.5908,-3.5903,-3.5905,-3.5905,-3.5898,-3.5905,-3.5898,-3.5898,-3.5898,-3.5838,-3.5803,-3.5803,-3.4933,-3.4043,-3.3184,-3.231,-3.1479,-3.0691,-3.0697,-3.0668,-3.0602,-3.0604,-3.0568,-3.0491,-3.0491,-3.05,-3.0499,-3.0433,-3.0842,-3.1473,-3.1408,-3.1848,-3.2485,-3.2485,-3.2003,-3.1401,-3.1401,-3.0844,-3.0204,-3.0204,-3.0157,-3.0094,-3.0094,-3.0098,-3.0098,-3.018,-3.0292,-3.0417,-3.0479,-3.0499,-3.0519,-3.0588,-3.0598,-3.0365,-2.9574,-2.9414,-2.9142,-2.8343,-2.8208,-2.8189,-2.817,-2.7445,-2.6907,-2.6889,-2.6121,-2.5571,-2.5505,-2.5499,-2.5432,-2.5311,-2.5303,-2.5608,-2.6338,-2.7069,-2.7908,-2.8848,-2.9665,-3.003,-2.9888,-2.9874,-2.9808,-2.9683,-2.9551,-2.9434,-2.9392,-2.9191,-2.9104,-2.1972,0.0,0.0,0.0,0.0,0.0,0.0,0.0,0.0,0.0,0.0,0.0,0.0,0.0,0.0,0.0,0.0,0.0,0.0,0.0,0.0,0.0,0.0,0.0,0.0,-3.5903,-3.5905,-3.5892,-3.5852,-3.5826,-3.5838,-3.5823,-3.5834,-3.5834,-3.5803,-3.5795,-3.5807,-3.4377,-3.3495,-3.3184,-3.1748,-3.0913,-3.0634,-3.0626,-3.0621,-3.0597,-3.0597,-3.0559,-3.049,-3.0449,-3.0394,-3.0343,-3.0286,-3.04,-3.0638,-3.1089,-3.1388,-3.1599,-3.1602,-3.1398,-3.1097,-3.0528,-3.0184,-2.9975,-2.9943,-2.994,-2.9953,-2.9953,-2.9988,-3.0053,-3.0109,-3.0194,-3.0292,-3.039,-3.0436,-3.0439,-3.0449,-3.054,-3.052,-3.0287,-3.0288,-2.9848,-2.8378,-2.8671,-2.85,-2.6649,-2.668,-2.6631,-2.5932,-2.5626,-2.5441,-2.5418,-2.5339,-2.5265,-2.5234,-2.5145,-2.5177,-2.5406,-2.611,-2.718,-2.8696,-2.8954,-2.9004,-2.8919,-2.8269,-2.8127,-2.8556,-2.8439,-2.8572,-2.8993,-2.8874,-2.8821,-2.223,0.0,0.0,0.0,0.0,0.0,0.0,0.0,0.0,0.0,0.0,0.0,0.0,0.0,0.0,0.0,0.0,0.0,0.0,0.0,0.0,0.0,0.0,0.0,-3.5821,-3.5897,-3.5898,-3.5905,-3.5838,-3.5803,-3.5795,-3.5799,-3.5799,-3.5799,-3.5457,-3.5282,-3.5274,-3.3592,-3.2722,-3.2663,-3.128,-3.0595,-3.0567,-3.0585,-3.0595,-3.0598,-3.0519,-3.0458,-3.0433,-3.0348,-3.0273,-3.0226,-3.018,-3.0318,-3.057,-3.0964,-3.1068,-3.1014,-3.107,-3.0844,-3.0468,-2.9978,-2.9844,-2.9842,-2.9771,-2.9806,-2.9857,-2.9857,-2.9891,-2.994,-3.0034,-3.0083,-3.0113,-3.0292,-3.0336,-3.0371,-3.0394,-3.0188,-3.0028,-3.0076,-2.9868,-2.9225,-2.7828,-2.8079,-2.7809,-2.5897,-2.6007,-2.6068,-2.5448,-2.5357,-2.534,-2.5322,-2.5233,-2.5138,-2.5111,-2.5006,-2.4912,-2.4931,-2.5589,-2.6446,-2.7476,-2.7783,-2.7882,-2.7827,-2.7159,-2.7025,-2.7385,-2.7218,-2.7483,-2.8124,-2.8012,-2.798,-2.2989,0.0,0.0,0.0,0.0,0.0,0.0,0.0,0.0,0.0,0.0,0.0,0.0,0.0,0.0,0.0,0.0,0.0,0.0,0.0,0.0,0.0,0.0,0.0,-3.5817,-3.5903,-3.5859,-3.5781,-3.5799,-3.5776,-3.5702,-3.5752,-3.5791,-3.5799,-3.4944,-3.4497,-3.4497,-3.2773,-3.1895,-3.1881,-3.0956,-3.0491,-3.0481,-3.054,-3.0588,-3.0559,-3.0383,-3.0286,-3.0266,-3.0232,-3.0157,-3.0079,-3.0087,-3.0414,-3.0865,-3.0865,-3.0734,-3.0615,-3.0732,-3.0302,-2.9683,-2.9701,-2.9738,-2.9754,-2.9699,-2.9736,-2.979,-2.979,-2.979,-2.9825,-2.994,-2.9926,-2.9943,-3.0138,-3.0221,-3.0273,-3.0271,-2.966,-2.9105,-2.9158,-2.8576,-2.7799,-2.6934,-2.6832,-2.6598,-2.5706,-2.5549,-2.5451,-2.5312,-2.5303,-2.5254,-2.5187,-2.5134,-2.5063,-2.4991,-2.4875,-2.4783,-2.4791,-2.534,-2.563,-2.5558,-2.6321,-2.673,-2.6673,-2.634,-2.6151,-2.614,-2.5953,-2.6218,-2.6931,-2.681,-2.6819,0.0,-2.4903,0.0,0.0,0.0,0.0,0.0,0.0,0.0,0.0,0.0,0.0,0.0,0.0,0.0,0.0,0.0,0.0,0.0,0.0,0.0,0.0,0.0,-3.5015,-3.5817,-3.5897,-3.558,-3.487,-3.5418,-3.5488,-3.4828,-3.5433,-3.5793,-3.5791,-3.4947,-3.4492,-3.4492,-3.2765,-3.187,-3.1806,-3.0917,-3.046,-3.0414,-3.0439,-3.0409,-3.0352,-3.026,-3.018,-3.0138,-3.0123,-3.0049,-2.9956,-2.9893,-2.9866,-2.9889,-2.9832,-2.9793,-2.9773,-2.985,-2.9719,-2.955,-2.9607,-2.9589,-2.957,-2.9551,-2.9626,-2.9719,-2.9719,-2.9719,-2.9735,-2.9753,-2.9789,-2.9842,-2.9943,-3.0068,-2.9994,-2.941,-2.9202,-2.8909,-2.8255,-2.802,-2.767,-2.6792,-2.6699,-2.6451,-2.5577,-2.5907,-2.6005,-2.5318,-2.5187,-2.5118,-2.5044,-2.5025,-2.4985,-2.4931,-2.4798,-2.4692,-2.4647,-2.463,-2.4561,-2.4448,-2.5279,-2.5723,-2.5703,-2.4759,-2.4526,-2.5044,-2.4806,-2.4988,-2.562,-2.6103,-2.64,0.0,0.0,0.0,0.0,0.0,0.0,0.0,0.0,0.0,0.0,0.0,0.0,0.0,0.0,0.0,0.0,0.0,0.0,0.0,0.0,0.0,0.0,0.0,-3.4845,-3.5236,-3.5663,-3.5521,-3.4618,-3.4933,-3.4808,-3.3973,-3.4318,-3.4561,-3.4559,-3.3708,-3.3264,-3.3264,-3.1919,-3.1216,-3.1177,-3.0609,-3.0316,-3.0266,-3.0323,-3.0323,-3.0254,-3.0152,-3.0083,-2.9984,-2.9937,-2.9874,-2.9808,-2.9737,-2.987,-3.0034,-2.9642,-2.9714,-2.9932,-2.9642,-2.9511,-2.9453,-2.9491,-2.9492,-2.9492,-2.9453,-2.9512,-2.9589,-2.9569,-2.9551,-2.957,-2.9589,-2.9551,-2.9458,-2.9281,-2.9371,-2.9375,-2.9033,-2.8358,-2.7666,-2.7217,-2.682,-2.6428,-2.6006,-2.6314,-2.6583,-2.6545,-2.6472,-2.624,-2.5798,-2.5336,-2.5012,-2.4912,-2.4889,-2.4832,-2.4719,-2.4613,-2.4497,-2.4374,-2.4229,-2.4095,-2.3917,-2.4275,-2.4511,-2.4553,-2.3795,-2.3549,-2.383,-2.363,-2.385,-2.4447,-2.4844,-2.5253,0.0,0.0,0.0,0.0,0.0,0.0,0.0,0.0,0.0,0.0,0.0,0.0,0.0,0.0,0.0,0.0,0.0,0.0,0.0,0.0,0.0,0.0,0.0,-3.4517,-3.4581,-3.5124,-3.51,-3.4217,-3.4241,-3.3934,-3.3091,-3.3153,-3.3195,-3.3195,-3.2344,-3.1909,-3.1909,-3.0965,-3.0491,-3.0471,-3.0279,-3.0147,-3.0094,-3.0199,-3.0207,-3.0161,-3.0034,-2.994,-2.9855,-2.9753,-2.9682,-2.9664,-2.9569,-2.9973,-3.0519,-2.9748,-2.9911,-3.042,-2.9692,-2.9433,-2.9372,-2.9372,-2.9412,-2.9433,-2.9372,-2.9412,-2.9433,-2.9372,-2.9351,-2.9351,-2.9412,-2.9291,-2.9026,-2.8521,-2.8449,-2.848,-2.8446,-2.735,-2.6327,-2.6197,-2.5585,-2.5099,-2.5163,-2.6014,-2.6883,-2.7458,-2.6931,-2.6434,-2.6279,-2.5503,-2.4922,-2.4798,-2.4723,-2.461,-2.4476,-2.4393,-2.4266,-2.4097,-2.3998,-2.3855,-2.3667,-2.3526,-2.3476,-2.3504,-2.3199,-2.2995,-2.2893,-2.2738,-2.2904,-2.342,-2.354,-2.399,0.0,0.0,0.0,0.0,0.0,0.0,0.0,0.0,0.0,0.0,0.0,0.0,0.0,0.0,0.0,0.0,0.0,0.0,0.0,0.0,0.0,0.0,-3.3965,-3.384,-3.453,-3.4024,-3.3297,-3.2407,-3.3041,-3.3052,-3.2144,-3.2798,-3.3197,-3.3197,-3.2356,-3.1902,-3.1902,-3.0975,-3.0449,-3.0328,-3.018,-3.0117,-3.0102,-3.0003,-2.9988,-3.0019,-2.9943,-2.9876,-2.9808,-2.9738,-2.9664,-2.9607,-2.9414,-2.9853,-3.0501,-2.9641,-2.9866,-3.0463,-2.9611,-2.931,-2.9304,-2.9304,-2.9283,-2.9243,-2.9222,-2.9283,-2.9304,-2.9197,-2.9134,-2.9134,-2.9071,-2.9048,-2.885,-2.8149,-2.7567,-2.7042,-2.6654,-2.6426,-2.6085,-2.5336,-2.5095,-2.5013,-2.5031,-2.6384,-2.7241,-2.6593,-2.6925,-2.6986,-2.6231,-2.5359,-2.4791,-2.4714,-2.4596,-2.4512,-2.4407,-2.4248,-2.4097,-2.4036,-2.3795,-2.3624,-2.3522,-2.3407,-2.3289,-2.3168,-2.2952,-2.2868,-2.2893,-2.2579,-2.2511,-2.2641,-2.3134,-2.3414,0.0,0.0,0.0,0.0,0.0,0.0,0.0,0.0,0.0,0.0,0.0,0.0,0.0,0.0,0.0,0.0,0.0,0.0,0.0,0.0,0.0,0.0,-3.334,-3.3529,-3.3848,-3.3517,-3.2947,-3.2069,-3.2361,-3.2178,-3.1285,-3.1557,-3.1734,-3.1734,-3.1332,-3.113,-3.112,-3.064,-3.0279,-3.0071,-3.0019,-2.9975,-2.9926,-2.9857,-2.9874,-2.9926,-2.9844,-2.9756,-2.9664,-2.9531,-2.9472,-2.9433,-2.933,-2.9786,-3.0394,-2.9598,-2.978,-3.0313,-2.9524,-2.9222,-2.9197,-2.9197,-2.9175,-2.9134,-2.9067,-2.9021,-2.898,-2.8863,-2.8815,-2.8815,-2.8773,-2.8767,-2.8505,-2.7383,-2.688,-2.6392,-2.5419,-2.5329,-2.5338,-2.4898,-2.4856,-2.5036,-2.5532,-2.6218,-2.6748,-2.6954,-2.6703,-2.6371,-2.6035,-2.5115,-2.4493,-2.4428,-2.4338,-2.4229,-2.4079,-2.3941,-2.3837,-2.3743,-2.3553,-2.3417,-2.3289,-2.3193,-2.307,-2.2927,-2.2893,-2.2816,-2.2738,-2.246,-2.2366,-2.2394,-2.3054,-2.3583,0.0,0.0,0.0,0.0,0.0,0.0,0.0,0.0,0.0,0.0,0.0,0.0,0.0,0.0,0.0,0.0,0.0,0.0,0.0,0.0,0.0,0.0,-3.2617,-3.2805,-3.2986,-3.2796,-3.2382,-3.172,-3.1681,-3.1382,-3.0715,-3.0626,-3.0602,-3.0613,-3.0521,-3.05,-3.0469,-3.0299,-3.0104,-2.9888,-2.9872,-2.9841,-2.9771,-2.9773,-2.9773,-2.979,-2.9719,-2.9645,-2.955,-2.9373,-2.9293,-2.927,-2.924,-2.9695,-3.0259,-2.947,-2.965,-3.0157,-2.9388,-2.9089,-2.9044,-2.8998,-2.8975,-2.8952,-2.8815,-2.8743,-2.8676,-2.8525,-2.85,-2.8518,-2.8492,-2.8492,-2.8146,-2.6741,-2.6469,-2.6117,-2.4745,-2.4599,-2.4726,-2.4711,-2.4914,-2.5208,-2.5649,-2.6029,-2.6462,-2.694,-2.6289,-2.5723,-2.5723,-2.4819,-2.4155,-2.4115,-2.402,-2.3901,-2.3735,-2.3628,-2.3531,-2.3383,-2.3313,-2.3175,-2.2935,-2.2927,-2.2825,-2.2651,-2.2721,-2.2685,-2.2569,-2.2394,-2.2412,-2.2598,-2.2924,-2.3583,0.0,0.0,0.0,0.0,0.0,0.0,0.0,0.0,0.0,0.0,0.0,0.0,0.0,0.0,0.0,0.0,0.0,0.0,0.0,0.0,0.0,0.0,-3.1914,-3.1257,-3.2077,-3.1427,-3.0884,-3.0775,-3.0768,-3.0715,-3.061,-3.061,-3.0604,-3.0607,-3.053,-3.0469,-3.0417,-3.0155,-2.9981,-2.9888,-2.9823,-2.9771,-2.9717,-2.9719,-2.9645,-2.9531,-2.9645,-2.9626,-2.9492,-2.9373,-2.9249,-2.92,-2.9062,-2.9517,-3.0105,-2.9245,-2.947,-3.0087,-2.9227,-2.8929,-2.8905,-2.8767,-2.8687,-2.8612,-2.8543,-2.8466,-2.837,-2.8255,-2.8228,-2.8201,-2.8209,-2.8291,-2.7941,-2.6471,-2.6313,-2.6153,-2.4869,-2.4599,-2.4631,-2.4682,-2.5319,-2.5583,-2.4818,-2.5976,-2.6745,-2.582,-2.5579,-2.5447,-2.5269,-2.4472,-2.3896,-2.3837,-2.3714,-2.3588,-2.3522,-2.3348,-2.3168,-2.3028,-2.2952,-2.2782,-2.2449,-2.2624,-2.2571,-2.2248,-2.2298,-2.236,-2.2405,-2.2338,-2.2665,-2.3325,-2.2596,-2.2975,0.0,0.0,0.0,0.0,0.0,0.0,0.0,0.0,0.0,0.0,0.0,0.0,0.0,0.0,0.0,0.0,0.0,0.0,0.0,0.0,0.0,0.0,-3.2363,-3.1764,-3.2077,-3.1261,-3.0496,-2.9906,-3.0331,-3.0393,-2.9854,-3.0322,-3.0586,-3.053,-3.046,-3.0359,-3.0207,-3.003,-2.9872,-2.9773,-2.9756,-2.9682,-2.957,-2.9531,-2.9472,-2.9433,-2.945,-2.9409,-2.9368,-2.9181,-2.9089,-2.9044,-2.8975,-2.9135,-2.9384,-2.9085,-2.9112,-2.9265,-2.8949,-2.8694,-2.8492,-2.844,-2.8335,-2.821,-2.8174,-2.8119,-2.8017,-2.8014,-2.8014,-2.8014,-2.8003,-2.8126,-2.7879,-2.6489,-2.6227,-2.6089,-2.5299,-2.5189,-2.5261,-2.5262,-2.5503,-2.5448,-2.4612,-2.4856,-2.5042,-2.4633,-2.4381,-2.4176,-2.4068,-2.3697,-2.344,-2.3417,-2.3283,-2.3206,-2.3164,-2.306,-2.297,-2.2893,-2.2686,-2.2537,-2.248,-2.2298,-2.2141,-2.2068,-2.2015,-2.2015,-2.213,-2.2622,-2.274,-2.2521,-2.3257,-2.3894,0.0,0.0,0.0,0.0,0.0,0.0,0.0,0.0,0.0,0.0,0.0,0.0,0.0,0.0,0.0,0.0,0.0,0.0,0.0,0.0,0.0,0.0,-3.2186,-3.1663,-3.166,-3.109,-3.0451,-2.9838,-3.03,0.0,-2.9829,-3.0296,-3.0511,-3.0398,-3.0371,-3.0247,-3.0038,-2.9907,-2.9789,-2.9701,-2.9645,-2.9589,-2.9492,-2.9412,-2.9353,-2.9353,-2.9265,-2.9218,-2.9218,-2.9085,-2.8994,-2.8947,-2.8881,-2.8858,-2.8876,-2.8876,-2.8761,-2.8637,-2.8637,-2.8414,-2.8156,-2.8146,-2.8017,-2.7876,-2.7882,-2.7777,-2.7719,-2.7754,-2.7783,-2.7783,-2.7842,-2.7596,-2.7165,-2.6291,-2.587,-2.5646,-2.5612,-2.5529,-2.5465,-2.5502,-2.5483,-2.5186,-2.4281,-2.4238,-2.4192,-2.3795,-2.3522,-2.3318,-2.32,-2.3133,-2.307,-2.3028,-2.2944,-2.2893,-2.2868,-2.273,-2.2624,-2.2544,-2.2375,-2.2237,-2.2192,-2.2015,-2.1911,-2.1869,-2.1811,-2.1927,-2.2235,-2.2889,-2.3066,-2.2815,-2.3897,-2.4351,0.0,0.0,0.0,0.0,0.0,0.0,0.0,0.0,0.0,0.0,0.0,0.0,0.0,0.0,0.0,0.0,0.0,0.0,0.0,0.0,0.0,0.0,-3.1339,-3.0807,-3.0804,-3.073,-3.0656,-3.0571,-3.0585,-3.0586,-3.0559,-3.0501,-3.0398,-3.0215,-3.018,-3.0098,-2.9888,-2.977,-2.97,-2.9701,-2.9569,-2.9492,-2.9492,-2.9353,-2.9293,-2.9272,-2.9138,-2.9089,-2.9089,-2.9108,-2.8975,-2.8785,-2.8785,-2.8712,-2.8587,-2.8587,-2.8458,-2.83,-2.83,-2.8101,-2.7869,-2.78,-2.7689,-2.7587,-2.7587,-2.7526,-2.7496,-2.7496,-2.7557,-2.76,-2.7672,-2.6727,-2.576,-2.5868,-2.5236,-2.4879,-2.5757,-2.5552,-2.5199,-2.5301,-2.5241,-2.4844,-2.3775,-2.424,-2.44,-2.336,-2.3116,-2.301,-2.2816,-2.279,-2.2764,-2.2712,-2.2685,-2.2659,-2.2579,-2.2337,-2.2153,-2.1982,-2.1982,-2.1869,-2.162,-2.184,-2.1869,-2.162,-2.1741,-2.2134,-2.2752,-2.305,-2.3603,-2.429,-2.443,-2.4191,-2.1421,0.0,0.0,0.0,0.0,0.0,0.0,0.0,0.0,0.0,0.0,0.0,0.0,0.0,0.0,0.0,0.0,0.0,0.0,0.0,0.0,0.0,-3.1337,-3.0781,-3.0735,-3.0711,-3.0385,0.0,-3.0173,-3.0221,-2.955,-3.0002,-3.0254,-3.0213,-3.0064,-2.9905,-2.977,-2.9719,-2.9626,-2.9472,-2.9394,-2.9351,-2.9347,-2.9222,-2.9156,-2.9156,-2.9067,-2.8975,-2.8881,-2.8834,-2.881,-2.8761,-2.8536,-2.8466,-2.8536,-2.8432,-2.8228,-2.8,-2.8,-2.7742,-2.7382,-2.7369,-2.7293,-2.7201,-2.723,-2.723,-2.723,-2.7404,-2.7465,-2.7539,-2.7672,-2.6924,-2.6065,-2.5703,-2.5341,-2.5068,-2.4935,-2.4711,-2.4801,-2.5641,-2.5257,-2.4518,-2.3679,-2.3595,-2.3501,-2.3063,-2.285,-2.2712,-2.2605,-2.2515,-2.246,-2.2487,-2.2315,-2.2169,-2.2186,-2.2113,-2.1998,-2.1869,-2.1869,-2.1811,-2.1738,-2.157,-2.157,-2.1658,-2.2079,-2.2735,-2.3556,-2.3719,-2.3866,-2.4098,-2.4129,-2.3408,0.0,0.0,0.0,0.0,0.0,0.0,-2.4144,-2.5021,-2.6295,0.0,0.0,0.0,0.0,0.0,0.0,0.0,0.0,0.0,0.0,0.0,0.0,0.0,-3.1118,-3.0622,-3.0194,-3.045,-3.0255,-2.9274,-2.9988,-3.0216,-2.9632,-2.9979,-3.0166,-3.0064,-2.9972,-2.9841,-2.97,-2.9645,-2.9531,-2.9353,-2.9291,-2.9246,-2.9262,-2.9152,-2.9067,-2.9021,-2.8947,-2.881,-2.8662,-2.8543,-2.8569,-2.8662,-2.8406,-2.8282,-2.8291,-2.8246,-2.8007,-2.773,-2.7666,-2.7365,-2.7021,-2.6989,-2.6908,-2.6842,-2.6908,-2.6923,-2.6888,-2.6708,-2.6509,-2.6429,-2.6892,-2.6103,-2.5155,-2.4898,-2.4694,-2.45,-2.4226,-2.4042,-2.4295,-2.5496,-2.4726,-2.383,-2.3668,-2.3237,-2.2868,-2.2712,-2.2525,-2.2432,-2.2405,-2.2377,-2.2293,-2.2192,-2.2101,-2.1998,-2.1882,-2.184,-2.1811,-2.1768,-2.1648,-2.1648,-2.1768,-2.1526,-2.1526,-2.1705,-2.1966,-2.2459,-2.3144,-2.3654,-2.3902,-2.3918,-2.3506,-2.2667,0.0,0.0,0.0,0.0,0.0,0.0,-2.4183,-2.4868,-2.585,-2.7756,0.0,0.0,0.0,0.0,0.0,0.0,0.0,0.0,0.0,0.0,0.0,0.0,0.0,-3.0318,-2.9485,-3.0025,-3.0056,-2.9129,-2.977,-3.0213,-3.0158,-3.0155,-3.0079,-2.9888,-2.9872,-2.9806,-2.9664,-2.955,-2.9414,-2.9312,-2.9222,-2.9178,-2.9178,-2.9108,-2.8975,-2.8839,-2.8785,-2.8662,-2.844,-2.8255,-2.8282,-2.844,-2.83,-2.8101,-2.7971,-2.7979,-2.7748,-2.7386,-2.7289,-2.7019,-2.6708,-2.6657,-2.6556,-2.6437,-2.6506,-2.6488,-2.6286,-2.5727,-2.5181,-2.4965,-2.5754,-2.4915,-2.3836,-2.3829,-2.3665,-2.3545,-2.3511,-2.3369,-2.3624,-2.4923,-2.3903,-2.2998,-2.3547,-2.2997,-2.246,-2.2377,-2.2254,-2.2197,-2.2254,-2.2293,-2.222,-2.1928,-2.1969,-2.194,-2.1678,-2.1634,-2.1603,-2.1648,-2.1481,-2.145,-2.165,-2.162,-2.162,-2.1664,-2.1655,-2.1794,-2.2077,-2.3273,-2.38,-2.3669,-2.2798,-2.2057,0.0,0.0,0.0,0.0,0.0,0.0,-2.4139,-2.3944,-2.4297,0.0,0.0,0.0,0.0,0.0,0.0,0.0,0.0,0.0,0.0,0.0,0.0,0.0,0.0,-2.9591,-2.9428,-2.9442,-2.9072,-2.814,-2.8772,-2.9218,-2.9257,-2.9703,-2.9924,-2.9806,-2.9755,-2.9626,-2.9394,-2.9334,-2.933,-2.9304,-2.913,-2.9044,-2.9026,-2.881,-2.8644,-2.8569,-2.8518,-2.8388,-2.8228,-2.8027,-2.8073,-2.8228,-2.7864,-2.7719,-2.7659,-2.743,-2.7181,-2.6923,-2.6791,-2.659,-2.64,-2.633,-2.5912,-2.5379,-2.5413,-2.4996,-2.4629,-2.5212,-2.5328,-2.531,-2.5558,-2.521,-2.4578,-2.3573,-2.321,-2.2983,-2.2449,-2.2303,-2.2567,-2.3532,-2.3,-2.2483,-2.2647,-2.2479,-2.2338,-2.2265,-2.2118,-2.2044,-2.2073,-2.1945,-2.1827,-2.1811,-2.1738,-2.1617,-2.1479,-2.1587,-2.1603,-2.1371,-2.1587,-2.162,-2.147,-2.1389,-2.1404,-2.1467,-2.1843,-2.2,-2.2027,-2.3587,-2.3926,-2.308,-2.2984,-2.2128,0.0,0.0,0.0,-2.3758,0.0,0.0,0.0,-2.4313,-2.4841,-2.6621,-2.5957,0.0,0.0,0.0,0.0,0.0,0.0,0.0,0.0,0.0,0.0,0.0,0.0,-2.9213,-2.8745,-2.8597,-2.8338,-2.7838,-2.8077,-2.8464,-2.8918,-2.9148,-2.9387,-2.9735,-2.9682,-2.9532,-2.9293,-2.927,-2.9222,-2.9152,-2.8994,-2.8834,-2.87,-2.8569,-2.8388,-2.8156,-2.8128,-2.8017,-2.7893,-2.7654,-2.7624,-2.7701,-2.7539,-2.7434,-2.7293,-2.7085,-2.6825,-2.6521,-2.6435,-2.6045,-2.552,-2.5483,-2.4919,-2.4311,-2.4243,-2.3963,-2.3915,-2.5102,-2.4939,-2.4512,-2.4927,-2.4463,-2.3687,-2.3056,-2.264,-2.2245,-2.1864,-2.1797,-2.1943,-2.2355,-2.2092,-2.2019,-2.268,-2.2387,-2.2049,-2.2003,-2.1928,-2.1899,-2.184,-2.1811,-2.1738,-2.1587,-2.1556,-2.1495,-2.1309,-2.1433,-2.1464,-2.1371,-2.1355,-2.1371,-2.1421,-2.1199,-2.1119,-2.1135,-2.1358,-2.1401,-2.1214,-2.2378,-2.2536,-2.1698,-2.1541,-2.0874,0.0,0.0,0.0,0.0,0.0,-2.539,0.0,0.0,0.0,-2.6535,0.0,0.0,0.0,0.0,0.0,0.0,0.0,0.0,0.0,0.0,0.0,0.0,-2.9182,-2.8314,-2.7547,-2.7239,-2.708,-2.7048,-2.7077,-2.7399,-2.8134,-2.8438,-2.8862,-2.9454,-2.9532,-2.9474,-2.9312,-2.92,-2.9089,-2.8952,-2.881,-2.8637,-2.8388,-2.8317,-2.8101,-2.7789,-2.7701,-2.7612,-2.7509,-2.7244,-2.7117,-2.7117,-2.7247,-2.7152,-2.6908,-2.6708,-2.647,-2.6189,-2.6082,-2.5507,-2.4857,-2.4745,-2.4188,-2.3468,-2.3285,-2.3202,-2.3458,-2.4852,-2.4422,-2.3681,-2.4333,-2.3691,-2.285,-2.2557,-2.2147,-2.1753,-2.1544,-2.1481,-2.1481,-2.1481,-2.134,-2.1581,-2.2668,-2.2178,-2.1661,-2.1661,-2.1661,-2.1631,-2.157,-2.1631,-2.1601,-2.1277,-2.1355,-2.1324,-2.1183,-2.1262,-2.1309,-2.1293,-2.1103,-2.1071,-2.1261,-2.1007,-2.0971,-2.1225,-2.0938,-2.0709,-2.0539,-2.0905,-2.0848,-2.0426,-2.0102,-1.9656,0.0,0.0,0.0,0.0,-2.5305,0.0,0.0,0.0,-2.47,-2.5577,0.0,0.0,0.0,0.0,0.0,0.0,0.0,0.0,0.0,0.0,0.0,0.0,-2.6371,-2.571,-2.562,-2.4744,-2.4212,-2.4326,-2.4879,-2.5302,-2.552,-2.7479,-2.8617,-2.8627,-2.9139,-2.9372,-2.9304,-2.9067,-2.8887,-2.8815,-2.8619,-2.8458,-2.83,-2.7989,-2.7818,-2.7683,-2.74,-2.7244,-2.7213,-2.6956,-2.6825,-2.6758,-2.6892,-2.6809,-2.6606,-2.6297,-2.5997,-2.5738,-2.5567,-2.5313,-2.5057,-2.4909,-2.4295,-2.3459,-2.2795,-2.2697,-2.2928,-2.3721,-2.3961,-2.4031,-2.4111,-2.4095,-2.3703,-2.2467,-2.2213,-2.202,-2.1295,-2.1167,-2.1151,-2.1071,-2.0991,-2.1055,-2.1437,-2.1278,-2.1103,-2.1103,-2.1103,-2.1103,-2.1071,-2.0991,-2.099,-2.1087,-2.1039,-2.1023,-2.1103,-2.1247,-2.1214,-2.0958,-2.1135,-2.1151,-2.0893,-2.0777,-2.1258,-2.2394,-2.1047,-2.0582,-2.1038,-2.0339,-2.0051,-2.015,-2.0458,-1.9967,0.0,0.0,0.0,0.0,0.0,0.0,-2.5526,0.0,-2.5117,0.0,0.0,0.0,0.0,0.0,0.0,0.0,-2.4232,0.0,0.0,0.0,0.0,0.0,0.0,0.0,-2.367,-2.2714,-2.2393,-2.3042,-2.2873,-2.3417,-2.4956,-2.5887,-2.7008,-2.8332,-2.8539,-2.8806,-2.9197,-2.8952,-2.8743,-2.8569,-2.8326,-2.8101,-2.7911,-2.7659,-2.7509,-2.7338,-2.7166,-2.7055,-2.699,-2.6657,-2.6436,-2.6332,-2.6225,-2.617,-2.617,-2.5957,-2.5647,-2.5323,-2.5036,-2.4571,-2.4022,-2.3358,-2.2878,-2.2522,-2.2692,-2.2524,-2.2578,-2.3723,-2.367,-2.3305,-2.3714,-2.327,-2.2568,-2.1979,-2.1587,-2.124,-2.0824,-2.0761,-2.0745,-2.0697,-2.0613,-2.0595,-2.0695,-2.0811,-2.0828,-2.073,-2.0795,-2.0828,-2.073,-2.0745,-2.0843,-2.0876,-2.086,-2.0844,-2.0909,-2.1023,-2.1007,-2.0844,-2.0846,-2.0748,-2.0527,-2.0478,-2.0654,-2.1064,-2.0461,-2.0127,-2.0102,-1.9664,-1.9406,-1.9347,-1.9879,-1.9728,-2.7924,0.0,0.0,0.0,0.0,0.0,0.0,0.0,0.0,0.0,0.0,0.0,0.0,0.0,0.0,0.0,0.0,-2.3152,0.0,0.0,0.0,0.0,0.0,0.0,0.0,-2.069,-2.0696,-2.1703,-2.114,-2.179,-2.4138,-2.4582,-2.5775,-2.7903,-2.7995,-2.8371,-2.9067,-2.8785,-2.8543,-2.8335,-2.8045,-2.776,-2.7526,-2.7373,-2.7198,-2.707,-2.6942,-2.6723,-2.6521,-2.6247,-2.5933,-2.5592,-2.5433,-2.54,-2.54,-2.5422,-2.508,-2.4532,-2.4318,-2.3668,-2.2815,-2.2184,-2.1919,-2.1998,-2.2682,-2.2591,-2.2519,-2.3732,-2.3471,-2.2909,-2.3592,-2.2814,-2.1858,-2.175,-2.1148,-2.0543,-2.0342,-2.0308,-2.0308,-2.0273,-2.0185,-2.0131,-2.0096,-2.0323,-2.0494,-2.0323,-2.046,-2.0527,-2.0392,-2.0527,-2.0628,-2.0626,-2.0644,-2.0662,-2.0711,-2.0712,-2.0712,-2.0613,-2.0434,-2.0376,-2.0496,-2.0263,-2.0237,-2.0421,-2.001,-1.9677,-1.952,-1.9165,-1.8912,-1.8683,-1.9268,-1.9348,0.0,0.0,0.0,-2.5385,0.0,0.0,0.0,0.0,-2.551,0.0,0.0,0.0,0.0,0.0,0.0,0.0,0.0,0.0,0.0,0.0,0.0,0.0,0.0,0.0,0.0,-1.8472,-1.8902,-1.9908,-1.9788,-2.0444,-2.2286,-2.3865,-2.5442,-2.708,-2.7579,-2.8202,-2.9003,-2.8474,-2.8201,-2.8201,-2.7806,-2.7526,-2.7404,-2.7135,-2.7023,-2.6975,-2.6657,-2.6168,-2.5529,-2.5661,-2.5204,-2.4402,-2.4689,-2.4574,-2.4188,-2.4639,-2.4153,-2.3277,-2.3237,-2.2595,-2.1824,-2.2108,-2.223,-2.2348,-2.2761,-2.2789,-2.2787,-2.3374,-2.3371,-2.332,-2.3921,-2.324,-2.2337,-2.211,-2.1188,-2.022,-1.9894,-1.9823,-1.9788,-1.9747,-1.9711,-1.969,-1.9647,-1.9741,-1.9833,-1.9833,-1.9955,-2.0041,-2.0005,-2.02,-2.0339,-2.0388,-2.0339,-2.0339,-2.0423,-2.0354,-2.0254,-2.0135,-1.9925,-2.0192,-2.0975,-2.0165,-2.0288,-2.1505,-2.0028,-1.939,-1.9778,-1.8934,-1.8442,-1.8319,-1.8932,-1.9045,0.0,0.0,-2.8534,-2.7216,0.0,0.0,0.0,0.0,0.0,0.0,0.0,0.0,0.0,0.0,0.0,0.0,0.0,0.0,0.0,0.0,0.0,0.0,0.0,0.0,0.0,0.0,0.0,-1.8031,-1.8102,-1.8821,-2.0495,-2.2116,-2.3929,-2.6042,-2.6643,-2.7515,-2.8707,-2.8414,-2.8045,-2.7607,-2.743,-2.7198,-2.6923,-2.6792,-2.6371,-2.5749,-2.5614,-2.4978,-2.3994,-2.428,-2.4103,-2.3655,-2.3912,-2.3809,-2.361,-2.4063,-2.377,-2.3091,-2.2378,-2.1886,-2.1585,-2.1584,-2.1612,-2.1726,-2.24,-2.2321,-2.2119,-2.2482,-2.1969,-2.1431,-2.2184,-2.1374,-2.049,-2.0833,-2.0229,-1.9551,-1.9427,-1.9369,-1.9347,-1.9325,-1.931,-1.9325,-1.9465,-1.9288,-1.925,-1.9596,-1.9741,-1.9797,-1.9848,-1.999,-2.0111,-2.0146,-2.015,-2.0115,-2.0025,-1.994,-1.9869,-1.9833,-1.972,-1.9692,-1.9743,-1.9383,-1.9304,-1.9532,-1.8936,-1.8784,-1.9181,-1.8712,-1.8669,-1.8963,-1.9467,-1.9476,-2.8958,-2.9208,0.0,-2.8119,-2.7788,0.0,-2.6859,0.0,-2.6727,0.0,0.0,0.0,0.0,0.0,0.0,0.0,0.0,0.0,0.0,-1.9056,0.0,0.0,0.0,0.0,0.0,0.0,-1.5855,-1.7015,-1.7162,-1.8019,0.0,-2.125,-2.3058,-2.541,-2.6093,-2.7058,-2.836,-2.8128,-2.776,-2.7241,-2.7085,-2.6875,-2.664,-2.6167,-2.5611,-2.4942,-2.4541,-2.3923,-2.3115,-2.3356,-2.3343,-2.3077,-2.3283,-2.3216,-2.3053,-2.3406,-2.3112,-2.2351,-2.1338,-2.0964,-2.0932,-2.1007,-2.1077,-2.1251,-2.1597,-2.1566,-2.1409,-2.1269,-2.0897,-2.0606,-2.122,-2.0553,-1.9778,-2.0182,-1.958,-1.8945,-1.8869,-1.8846,-1.8822,-1.8874,-1.8889,-1.8927,-1.904,-1.8874,-1.8874,-1.9339,-1.9435,-1.9472,-1.9545,-1.9726,-1.9848,-1.9884,-1.9904,-1.9833,-1.9654,-1.9632,-1.9566,-1.9449,-1.9362,-1.9169,-1.884,-1.8703,-1.8542,-1.8274,-1.8394,-1.8535,-1.8735,-1.8663,-1.8829,-1.9192,-1.9572,-1.9577]},{"header":{"parameterUnit":"m.s-1","parameterCategory":1,"la1":30.6,"la2":29.2853,"lo1":-89.7004,"lo2":-87.6739,"dy":0.0162,"dx":0.0183,"nx":112,"ny":82,"refTime":"2023-08-23T12:00:00:Z","depth":0,"parameterNumber":3,"parameterNumberName":"V-component_of_WINDS"},"data":[0.0,0.0,0.0,0.0,0.0,0.0,0.0,0.0,0.0,0.0,0.0,0.0,0.0,0.0,0.0,0.0,0.0,0.0,0.0,0.0,0.0,0.0,0.0,0.0,0.0,0.0,0.0,0.0,0.0,0.0,0.0,0.0,0.0,0.0,0.0,0.0,0.0,0.0,0.0,0.0,0.0,0.0,0.0,0.0,0.0,0.0,0.0,0.0,0.0,0.0,0.0,0.0,0.0,0.0,0.0,0.0,0.0,0.0,0.0,0.0,0.0,0.0,0.0,0.0,0.0,0.0,0.0,0.0,0.0,0.0,0.0,0.0,0.0,0.0,0.0,0.0,0.0,0.0,0.0,0.0,0.0,0.0,0.0,0.0,0.0,0.0,0.0,0.0,0.0,0.0,-0.933,-0.9184,-0.9101,-0.8829,-0.8382,-0.7992,-0.7286,-0.6319,0.0,0.0,0.0,0.0,0.0,0.0,0.0,0.0,0.0,0.0,0.0,0.0,0.0,0.0,0.0,0.0,0.0,0.0,0.0,0.0,0.0,0.0,0.0,0.0,0.0,0.0,0.0,0.0,0.0,0.0,0.0,0.0,0.0,0.0,0.0,0.0,0.0,0.0,0.0,0.0,0.0,0.0,0.0,0.0,0.0,0.0,0.0,0.0,0.0,0.0,0.0,0.0,0.0,0.0,0.0,0.0,0.0,0.0,0.0,0.0,0.0,0.0,0.0,0.0,0.0,0.0,0.0,0.0,0.0,0.0,0.0,0.0,0.0,0.0,0.0,0.0,0.0,0.0,0.0,0.0,0.0,0.0,0.0,0.0,0.0,0.0,0.0,0.0,0.0,0.0,0.0,0.0,0.0,0.0,0.0,0.0,0.0,0.0,0.0,0.0,0.0,0.0,0.0,0.0,-0.9176,-0.9147,-0.9074,-0.8694,-0.7862,-0.7731,-0.7035,-0.554,0.0,0.0,0.0,0.0,0.0,0.0,0.0,0.0,0.0,0.0,0.0,0.0,0.0,0.0,0.0,0.0,0.0,0.0,0.0,0.0,0.0,0.0,0.0,0.0,0.0,0.0,0.0,0.0,0.0,0.0,0.0,0.0,0.0,0.0,0.0,0.0,0.0,0.0,0.0,0.0,0.0,0.0,0.0,0.0,0.0,0.0,0.0,0.0,0.0,0.0,0.0,0.0,0.0,0.0,0.0,0.0,0.0,0.0,0.0,0.0,0.0,0.0,0.0,0.0,0.0,0.0,0.0,0.0,0.0,0.0,0.0,0.0,0.0,0.0,0.0,0.0,0.0,0.0,0.0,0.0,0.0,0.0,0.0,0.0,0.0,0.0,0.0,0.0,0.0,0.0,0.0,0.0,0.0,0.0,0.0,0.0,0.0,0.0,0.0,0.0,0.0,0.0,0.0,-0.9517,-0.9573,-0.9594,-0.9197,-0.8641,-0.7992,-0.7834,-0.7168,-0.5707,-0.5313,0.0,0.0,0.0,0.0,0.0,0.0,0.0,0.0,0.0,0.0,0.0,0.0,0.0,0.0,0.0,0.0,0.0,0.0,0.0,0.0,0.0,0.0,0.0,0.0,0.0,0.0,0.0,0.0,0.0,0.0,0.0,0.0,0.0,0.0,0.0,0.0,0.0,0.0,0.0,0.0,0.0,0.0,0.0,0.0,0.0,0.0,0.0,0.0,0.0,0.0,0.0,0.0,0.0,0.0,0.0,0.0,0.0,0.0,0.0,0.0,0.0,0.0,0.0,0.0,0.0,0.0,0.0,0.0,0.0,0.0,0.0,0.0,0.0,0.0,0.0,0.0,0.0,0.0,0.0,0.0,0.0,0.0,0.0,0.0,0.0,0.0,0.0,0.0,0.0,0.0,0.0,0.0,0.0,0.0,0.0,0.0,0.0,0.0,0.0,0.0,0.0,0.0,-0.9616,-0.9736,-0.97,-0.9185,-0.8634,-0.8122,-0.7763,-0.7118,-0.5876,-0.5503,0.0,0.0,0.0,0.0,0.0,0.0,0.0,0.0,0.0,0.0,0.0,0.0,0.0,0.0,0.0,0.0,0.0,0.0,0.0,0.0,0.0,0.0,0.0,0.0,0.0,0.0,0.0,0.0,0.0,0.0,0.0,0.0,0.0,0.0,0.0,0.0,0.0,0.0,0.0,0.0,0.0,0.0,0.0,0.0,0.0,0.0,0.0,0.0,0.0,0.0,0.0,0.0,0.0,0.0,0.0,0.0,0.0,0.0,0.0,0.0,0.0,0.0,0.0,0.0,0.0,0.0,0.0,0.0,0.0,0.0,0.0,0.0,0.0,0.0,0.0,0.0,0.0,0.0,0.0,0.0,0.0,0.0,0.0,0.0,0.0,0.0,0.0,0.0,0.0,0.0,0.0,0.0,0.0,0.0,0.0,0.0,0.0,0.0,0.0,0.0,0.0,0.0,-0.9207,-0.9252,-0.8853,-0.8822,-0.8528,-0.7797,-0.73,-0.6568,-0.5513,-0.5333,0.0,0.0,0.0,0.0,0.0,0.0,0.0,0.0,0.0,0.0,0.0,0.0,0.0,0.0,0.0,0.0,0.0,0.0,0.0,0.0,0.0,0.0,0.0,0.0,0.0,0.0,0.0,0.0,0.0,0.0,0.0,0.0,0.0,0.0,0.0,0.0,0.0,0.0,0.0,0.0,0.0,0.0,0.0,0.0,0.0,0.0,0.0,0.0,0.0,0.0,0.0,0.0,0.0,0.0,0.0,0.0,0.0,0.0,0.0,0.0,0.0,0.0,0.0,0.0,0.0,0.0,0.0,0.0,0.0,0.0,0.0,0.0,0.0,0.0,0.0,0.0,0.0,0.0,0.0,0.0,0.0,0.0,0.0,0.0,0.0,0.0,0.0,0.0,0.0,0.0,0.0,0.0,0.0,0.0,0.0,0.0,0.0,0.0,0.0,0.0,0.0,0.0,-0.9555,-0.9605,0.0,-0.9051,-0.8536,-0.7932,-0.7705,-0.6998,-0.5482,0.0,0.0,0.0,0.0,0.0,0.0,0.0,0.0,0.0,0.0,0.0,0.0,0.0,0.0,0.0,0.0,0.0,0.0,0.0,0.0,0.0,0.0,0.0,0.0,0.0,0.0,0.0,0.0,0.0,0.0,0.0,0.0,0.0,0.0,0.0,0.0,0.0,0.0,0.0,0.0,0.0,0.0,0.0,0.0,0.0,0.0,0.0,0.0,0.0,0.0,0.0,0.0,0.0,0.0,0.0,0.0,0.0,0.0,0.0,0.0,0.0,0.0,0.0,0.0,0.0,0.0,0.0,0.0,0.0,0.0,0.0,0.0,0.0,0.0,0.0,0.0,0.0,0.0,0.0,0.0,0.0,0.0,0.0,0.0,0.0,0.0,0.0,0.0,0.0,0.0,0.0,0.0,0.0,0.0,0.0,0.0,0.0,0.0,0.0,0.0,0.0,0.0,-0.9446,-0.9683,-0.9771,0.0,-0.9066,-0.8551,-0.8127,-0.7856,-0.7119,-0.5775,0.0,0.0,0.0,0.0,0.0,0.0,0.0,0.0,0.0,0.0,0.0,0.0,0.0,0.0,0.0,0.0,0.0,0.0,0.0,0.0,0.0,0.0,0.0,0.0,0.0,0.0,0.0,0.0,0.0,0.0,0.0,0.0,0.0,0.0,0.0,0.0,0.0,0.0,0.0,0.0,0.0,0.0,0.0,0.0,0.0,0.0,0.0,0.0,0.0,0.0,0.0,0.0,0.0,0.0,0.0,0.0,0.0,0.0,0.0,0.0,0.0,0.0,0.0,0.0,0.0,0.0,0.0,0.0,0.0,0.0,0.0,0.0,0.0,0.0,0.0,0.0,0.0,0.0,0.0,0.0,0.0,0.0,0.0,0.0,0.0,0.0,0.0,0.0,0.0,0.0,0.0,0.0,0.0,0.0,0.0,0.0,0.0,0.0,0.0,0.0,0.0,0.0,-0.9328,-0.959,-0.9621,-0.9132,-0.8747,-0.8447,-0.8236,-0.7458,-0.6824,0.0,0.0,0.0,0.0,0.0,0.0,0.0,0.0,0.0,0.0,0.0,0.0,0.0,0.0,0.0,0.0,0.0,0.0,0.0,0.0,0.0,0.0,0.0,0.0,0.0,0.0,0.0,0.0,0.0,0.0,0.0,0.0,0.0,0.0,0.0,0.0,0.0,0.0,0.0,0.0,0.0,0.0,0.0,0.0,0.0,0.0,0.0,0.0,0.0,0.0,0.0,0.0,0.0,0.0,0.0,0.0,0.0,0.0,0.0,0.0,0.0,0.0,0.0,0.0,0.0,0.0,0.0,0.0,0.0,0.0,0.0,0.0,0.0,0.0,0.0,0.0,0.0,0.0,0.0,0.0,0.0,0.0,0.0,0.0,0.0,0.0,0.0,0.0,0.0,0.0,0.0,0.0,0.0,0.0,0.0,0.0,0.0,0.0,0.0,0.0,0.0,0.0,0.0,-0.9402,-0.92,-0.9059,-0.9247,-0.879,-0.8382,-0.8112,-0.7916,-0.7534,-0.6798,0.0,0.0,0.0,0.0,0.0,0.0,0.0,0.0,0.0,0.0,0.0,0.0,0.0,0.0,0.0,0.0,0.0,0.0,0.0,0.0,0.0,0.0,0.0,0.0,0.0,0.0,0.0,0.0,0.0,0.0,0.0,0.0,0.0,0.0,0.0,0.0,0.0,0.0,0.0,0.0,0.0,0.0,0.0,0.0,0.0,0.0,0.0,0.0,0.0,0.0,0.0,0.0,0.0,0.0,0.0,0.0,0.0,0.0,0.0,0.0,0.0,0.0,0.0,0.0,0.0,0.0,0.0,0.0,0.0,0.0,0.0,0.0,0.0,0.0,0.0,0.0,0.0,0.0,0.0,0.0,0.0,0.0,0.0,0.0,0.0,0.0,0.0,0.0,0.0,0.0,0.0,0.0,0.0,0.0,0.0,0.0,0.0,0.0,0.0,0.0,0.0,0.0,-0.9245,-0.9099,-0.8989,-0.9175,-0.8788,-0.8454,-0.8256,-0.8382,-0.8179,-0.7476,0.0,0.0,0.0,0.0,0.0,0.0,0.0,0.0,0.0,0.0,0.0,0.0,0.0,0.0,0.0,0.0,0.0,0.0,0.0,0.0,0.0,0.0,0.0,0.0,0.0,0.0,0.0,0.0,0.0,0.0,0.0,0.0,0.0,0.0,0.0,0.0,0.0,0.0,0.0,0.0,0.0,0.0,0.0,0.0,0.0,0.0,0.0,0.0,0.0,0.0,0.0,0.0,0.0,0.0,0.0,0.0,0.0,0.0,0.0,0.0,0.0,0.0,0.0,0.0,0.0,0.0,0.0,0.0,0.0,0.0,0.0,0.0,0.0,0.0,0.0,0.0,0.0,0.0,0.0,0.0,0.0,0.0,0.0,0.0,0.0,0.0,0.0,0.0,0.0,0.0,0.0,0.0,0.0,0.0,0.0,0.0,0.0,0.0,0.0,0.0,0.0,0.0,-0.8883,-0.9079,-0.9128,-0.9045,-0.8732,-0.8607,-0.8628,-0.8831,-0.8766,-0.8242,0.0,0.0,0.0,0.0,0.0,0.0,0.0,0.0,0.0,0.0,0.0,0.0,0.0,0.0,0.0,0.0,0.0,0.0,0.0,0.0,0.0,0.0,0.0,0.0,0.0,0.0,0.0,0.0,0.0,0.0,0.0,0.0,0.0,0.0,0.0,0.0,0.0,0.0,0.0,0.0,0.0,0.0,0.0,0.0,0.0,0.0,0.0,0.0,0.0,0.0,0.0,0.0,0.0,0.0,0.0,0.0,0.0,0.0,0.0,0.0,-0.5567,0.0,0.0,0.0,0.0,0.0,0.0,0.0,0.0,0.0,0.0,0.0,0.0,0.0,0.0,0.0,0.0,0.0,0.0,0.0,0.0,0.0,0.0,0.0,0.0,0.0,0.0,0.0,0.0,0.0,0.0,0.0,0.0,0.0,0.0,0.0,0.0,0.0,0.0,0.0,0.0,0.0,-0.8587,-0.844,-0.8551,-0.9003,-0.8762,-0.8601,-0.8643,-0.9077,-0.916,-0.8533,-0.8691,0.0,0.0,0.0,0.0,0.0,0.0,0.0,0.0,0.0,0.0,0.0,0.0,0.0,0.0,0.0,0.0,0.0,0.0,0.0,0.0,0.0,0.0,0.0,0.0,0.0,0.0,0.0,0.0,0.0,0.0,0.0,0.0,0.0,0.0,0.0,0.0,0.0,0.0,0.0,0.0,0.0,0.0,0.0,0.0,0.0,0.0,0.0,0.0,0.0,0.0,0.0,0.0,0.0,0.0,0.0,0.0,0.0,0.0,0.0,0.0,-0.595,0.0,0.0,0.0,0.0,0.0,0.0,0.0,0.0,0.0,0.0,0.0,0.0,0.0,0.0,0.0,0.0,0.0,0.0,0.0,0.0,0.0,0.0,0.0,0.0,0.0,0.0,0.0,0.0,0.0,0.0,0.0,0.0,0.0,0.0,0.0,0.0,0.0,0.0,0.0,0.0,-0.8224,-0.8257,-0.8456,-0.87,-0.879,-0.8826,-0.8944,-0.946,-0.971,-0.9525,-0.9551,0.0,0.0,0.0,0.0,0.0,0.0,0.0,0.0,0.0,0.0,0.0,0.0,0.0,0.0,0.0,0.0,0.0,0.0,0.0,0.0,0.0,0.0,0.0,0.0,0.0,0.0,0.0,0.0,0.0,0.0,0.0,0.0,0.0,0.0,0.0,0.0,0.0,0.0,0.0,0.0,0.0,0.0,0.0,0.0,0.0,0.0,0.0,0.0,0.0,0.0,0.0,0.0,0.0,-0.5148,-0.5479,-0.5871,-0.6077,-0.6058,-0.5849,-0.6093,-0.6347,-0.6558,-0.6056,0.0,0.0,0.0,0.0,0.0,0.0,0.0,0.0,0.0,0.0,0.0,0.0,0.0,0.0,0.0,0.0,0.0,0.0,0.0,0.0,0.0,0.0,0.0,0.0,-0.9607,-0.9277,-0.8315,0.0,0.0,0.0,0.0,0.0,0.0,0.0,0.0,0.0,0.0,0.0,-0.7991,-0.8269,-0.8477,-0.8381,-0.874,-0.9139,-0.9322,-0.9913,-1.03,-1.0414,-1.0257,-0.9928,0.0,0.0,0.0,0.0,0.0,0.0,0.0,0.0,0.0,0.0,0.0,0.0,0.0,0.0,0.0,0.0,0.0,0.0,0.0,0.0,0.0,0.0,0.0,0.0,0.0,0.0,0.0,0.0,0.0,0.0,0.0,0.0,0.4861,0.3667,0.0,0.0,0.0,0.0,0.0,0.0,0.0,0.0,0.0,0.0,0.0,0.0,0.0,-0.3997,-0.4287,-0.5118,-0.576,-0.6158,-0.6217,-0.6258,-0.6393,-0.6614,-0.6572,-0.6338,-0.6546,0.0,-0.6528,-0.6498,0.0,0.0,0.0,0.0,0.0,0.0,0.0,0.0,0.0,0.0,0.0,0.0,0.0,0.0,0.0,0.0,0.0,0.0,0.0,0.0,0.0,0.0,-0.9636,-0.9538,-0.9364,-0.9193,0.0,-0.9103,-0.9061,-0.947,-0.8799,0.0,0.0,0.0,0.0,0.0,0.0,0.0,-0.814,-0.8253,-0.8401,-0.8519,-0.897,-0.9348,-0.9557,-1.0243,-1.0487,-1.0078,-1.0227,-1.0025,-0.9464,-0.8962,0.0,0.0,0.0,0.0,0.0,0.0,0.0,0.0,0.0,0.0,0.0,0.0,0.0,0.0,0.0,0.0,0.0,0.0,0.0,0.0,0.0,0.0,0.0,0.0,0.0,0.0,0.0,0.0,0.0,0.5733,0.4502,0.3081,0.297,0.2509,0.0,0.0,0.0,0.0,0.0,0.0,0.0,0.0,0.0,-0.3319,-0.4216,-0.4815,-0.518,-0.5564,-0.5884,-0.6246,-0.6371,-0.6387,-0.6416,-0.6651,-0.6716,-0.6506,-0.6665,-0.6799,-0.6799,-0.653,-0.6479,-0.6475,0.0,0.0,0.0,0.0,-0.6605,-0.6982,-0.7334,-0.7775,-0.8208,-0.8329,0.0,0.0,0.0,0.0,0.0,0.0,0.0,0.0,0.0,0.0,-1.0309,-1.0353,-1.0277,-1.0264,-1.0552,-1.0362,-1.0132,0.0,-0.9425,-0.8738,-0.8606,0.0,0.0,0.0,0.0,-0.808,-0.7907,-0.8101,-0.823,-0.7974,-0.8842,-0.9526,-0.9559,-1.0433,-1.0815,-1.0502,-1.0465,-1.0159,-0.9554,-0.9078,-0.8731,0.0,0.0,0.0,0.0,0.0,0.0,0.0,0.0,0.0,0.0,0.0,0.0,0.0,0.0,0.0,0.0,0.0,0.0,0.0,0.0,0.0,0.0,0.0,0.0,0.0,0.0,0.0,0.0,0.5272,0.4157,0.2744,0.2469,0.1903,0.0,0.0,0.0,0.0,0.0,0.0,-0.2066,-0.3063,-0.3773,-0.4192,-0.4844,-0.5294,-0.5577,-0.5705,-0.589,-0.6203,-0.6392,-0.6428,-0.638,-0.6623,-0.6717,-0.6593,-0.6678,-0.6827,-0.6983,-0.6554,-0.6545,-0.6712,-0.6499,-0.6422,-0.6449,-0.6503,-0.6817,-0.7203,-0.741,-0.7832,-0.8231,-0.8339,-0.8579,-0.8741,-0.8739,0.0,0.0,0.0,0.0,-1.0376,-1.0647,-1.0748,-1.0827,-1.09,-1.09,-1.0966,-1.1138,-1.0943,-1.0721,0.0,-0.9827,-0.9238,-0.918,0.0,0.0,0.0,0.0,-0.8043,-0.7811,-0.8071,-0.8054,-0.7646,-0.873,-0.9464,-0.9536,-1.0289,-1.0719,-1.0741,-1.043,-1.0013,-0.9548,-0.9017,-0.8765,-0.8676,0.0,0.0,0.0,0.0,0.0,0.0,0.0,0.0,0.0,0.0,0.0,0.0,0.0,0.0,0.0,0.0,0.0,0.0,0.0,0.0,0.0,0.0,0.0,0.0,0.0,0.0,0.0,0.0,0.0,0.299,0.2199,0.0,0.0,0.0,0.0,-0.1051,-0.1428,-0.2181,-0.3404,-0.3912,-0.4347,-0.4858,-0.5188,-0.5449,-0.5592,-0.599,-0.6252,-0.6392,-0.6584,-0.6617,-0.6572,-0.6572,-0.6595,-0.6588,-0.6397,-0.6487,-0.6818,-0.6713,-0.6704,-0.6813,-0.6688,-0.6728,-0.6803,-0.7069,-0.7258,-0.7453,-0.784,-0.7862,-0.783,-0.8249,-0.8771,-0.9183,-0.9304,-0.9798,0.0,0.0,-1.0722,-1.0572,-1.1345,-1.1192,-1.0749,-1.0629,-1.0629,-1.0576,-1.0409,-1.0235,-1.0187,0.0,-0.9926,-0.9256,-0.8569,0.0,-0.7746,-0.8128,-0.7855,-0.7811,-0.8231,-0.8098,-0.7972,-0.7972,-0.8597,-0.9157,-0.9502,-0.9735,-0.9984,-1.0244,-0.9618,-0.9369,-0.9496,-0.867,-0.8445,-0.8949,-0.8568,0.0,0.0,0.0,0.0,0.0,0.0,0.0,0.0,0.0,0.0,0.0,0.0,0.0,0.0,0.0,0.0,0.0,0.0,0.0,0.0,0.0,0.0,0.0,0.0,0.0,0.0,0.0,0.0,0.246,0.1878,0.0,0.0,-0.006,-0.0476,-0.1549,-0.2145,-0.2816,-0.3539,-0.3998,-0.4517,-0.5016,-0.5147,-0.5367,-0.5617,-0.5885,-0.6083,-0.628,-0.6544,-0.6572,-0.6379,-0.6573,-0.654,-0.6336,-0.6467,-0.6555,-0.6705,-0.6671,-0.6721,-0.6787,-0.6769,-0.6842,-0.6964,-0.7086,-0.7203,-0.7374,-0.7724,-0.7896,-0.8103,-0.8789,-0.9184,-0.9457,-0.9681,-1.0063,-1.0501,-1.082,-1.0947,-1.1039,-1.115,-1.1128,-1.0953,-1.0767,-1.0643,-1.0588,-1.0525,-1.0463,-1.0372,-1.0098,-0.9786,-0.933,-0.8845,-0.8368,-0.7965,-0.7887,-0.7882,-0.7838,-0.7787,-0.7937,-0.8026,-0.803,-0.8596,-0.9119,-0.9544,-0.977,-0.9799,-0.9634,-0.9579,-0.9419,-0.9113,-0.8752,-0.8603,-0.8776,-0.85,-0.8317,0.0,0.0,0.0,0.0,0.0,0.0,0.0,0.0,0.0,0.0,0.0,0.0,0.0,0.0,0.0,0.0,0.0,0.0,0.0,0.0,0.0,0.0,0.0,0.0,0.0,0.0,0.2812,0.2027,0.1421,0.0714,-0.0319,-0.0635,-0.1079,-0.1779,-0.2455,-0.3002,-0.3392,-0.3921,-0.4364,-0.4824,-0.4957,-0.509,-0.5355,-0.5557,-0.5752,-0.5951,-0.621,-0.6276,-0.6083,-0.6346,-0.6346,-0.6203,-0.6285,-0.6438,-0.6588,-0.6403,-0.6437,-0.6604,-0.6588,-0.6726,-0.6957,-0.6885,-0.7032,-0.7267,-0.7502,-0.7902,-0.8375,-0.8851,-0.9143,-0.9369,-0.9666,-1.0082,-1.0457,-1.0588,-1.0871,-1.1109,-1.0927,-1.0898,-1.087,-1.0618,-1.0491,-1.0498,-1.0498,-1.0364,-1.011,-0.9728,-0.953,-0.9332,-0.8894,-0.8436,-0.8072,-0.7824,-0.7775,-0.7681,-0.7687,-0.7697,-0.7792,-0.8066,-0.8342,-0.8685,-0.9094,-0.9164,-0.9179,-0.9105,-0.9121,-0.9087,-0.8841,-0.8569,-0.8423,-0.8496,-0.83,-0.8163,-0.808,0.0,0.0,0.0,0.0,0.0,0.0,0.0,0.0,0.0,0.0,0.0,0.0,0.0,0.0,0.0,0.0,0.0,0.0,0.0,0.0,0.0,0.0,0.0,0.3924,0.3023,0.2148,0.1671,0.0807,0.0067,-0.0472,-0.101,-0.1412,-0.1614,-0.2285,-0.2824,-0.2956,-0.3629,-0.41,-0.43,-0.4631,-0.4764,-0.4764,-0.5024,-0.5223,-0.5362,-0.5554,-0.5686,-0.5888,-0.5888,-0.602,-0.6137,-0.5909,-0.6,-0.6338,-0.5973,-0.5936,-0.6163,-0.6139,-0.6393,-0.6787,-0.6581,-0.6735,-0.7021,-0.7312,-0.786,-0.841,-0.8475,-0.8705,-0.8934,-0.9128,-0.9722,-1.0288,-1.0288,-1.0554,-1.078,-1.0661,-1.0604,-1.0485,-1.0098,-1.011,-1.0238,-1.0238,-0.9843,-0.946,-0.9274,-0.9396,-0.9268,-0.8576,-0.8182,-0.7992,-0.8,-0.7531,0.0,-0.7938,-0.7564,-0.7432,-0.7952,-0.7855,-0.7822,-0.8197,-0.8043,-0.8094,-0.8584,-0.8342,-0.836,-0.8705,-0.8155,-0.79,-0.8121,-0.7941,-0.773,-0.7322,0.0,0.0,0.0,0.0,0.0,0.0,0.0,0.0,0.0,0.0,0.0,0.0,0.0,0.0,0.0,0.0,0.0,0.0,0.0,0.0,0.0,0.0,0.3461,0.291,0.2067,0.1432,0.1079,0.0337,-0.0202,-0.0337,-0.0942,-0.1412,-0.1614,-0.2327,-0.2814,-0.296,-0.3421,-0.3769,-0.3964,-0.4231,-0.4431,-0.4422,-0.4888,-0.5153,-0.5156,-0.5484,-0.5554,-0.5561,-0.562,-0.5686,-0.562,-0.5774,-0.5913,-0.6017,-0.6098,-0.6106,-0.6199,-0.6185,-0.6221,-0.639,-0.6404,-0.6641,-0.6958,-0.7332,-0.7749,-0.818,-0.857,-0.8754,-0.888,-0.9188,-0.9599,-0.9992,-1.0114,-1.0373,-1.0682,-1.0623,-1.0315,-0.9988,-0.9865,-0.958,-0.9338,-0.9338,-0.9274,-0.9011,-0.856,-0.8619,-0.8554,-0.7917,-0.7722,-0.7611,-0.747,-0.7435,0.0,-0.7621,-0.7879,-0.8058,-0.8245,-0.8073,-0.8155,-0.8631,-0.8088,-0.7958,-0.8421,-0.8444,-0.8496,-0.8615,-0.8359,-0.8176,-0.8122,-0.7768,-0.7816,0.0,0.0,0.0,0.0,0.0,0.0,0.0,0.0,0.0,0.0,0.0,0.0,0.0,0.0,0.0,0.0,0.0,0.0,0.0,0.0,0.0,0.0,0.3769,0.299,0.2187,0.1536,0.1063,0.0768,0.0138,-0.0343,-0.0411,-0.1016,-0.1486,-0.1642,-0.2359,-0.2865,-0.2922,-0.3348,-0.3539,-0.3487,-0.3895,-0.4099,-0.4024,-0.4501,-0.4775,-0.4907,-0.5249,-0.5352,-0.5292,-0.5484,-0.5554,-0.5428,-0.5627,-0.569,-0.5752,-0.5818,-0.5885,0.0,0.0,0.0,0.0,0.0,-0.6493,-0.6879,-0.72,-0.7648,-0.8117,-0.8641,-0.877,-0.8835,-0.9081,-0.9358,-0.9612,-0.9737,-0.9916,-1.0147,-1.0087,-0.9855,-0.955,-0.9488,-0.9168,-0.8958,-0.9081,-0.8823,-0.8501,-0.8166,-0.7972,0.0,-0.7134,-0.7265,-0.7424,-0.7118,-0.7158,-0.7328,-0.7639,-0.772,-0.784,-0.819,-0.804,-0.8005,-0.8317,-0.7912,0.0,0.0,0.0,-0.8195,-0.8315,-0.8269,0.0,0.0,0.0,-0.7743,-0.8137,0.0,0.0,0.0,-0.7785,-0.8157,0.0,0.0,0.0,0.0,0.0,0.0,0.0,0.0,0.0,0.0,0.0,0.0,0.0,0.0,0.0,0.0,0.3465,0.2786,0.1844,0.1323,0.0954,0.0583,0.0071,-0.035,-0.056,-0.1162,-0.1631,-0.1742,-0.2384,-0.2838,-0.2969,0.0,0.0,0.0,0.0,-0.3858,-0.3704,-0.4057,-0.433,-0.466,-0.495,-0.5087,-0.5087,-0.5418,-0.5488,-0.5362,-0.5362,-0.5422,-0.555,-0.5425,-0.5422,-0.5602,-0.5528,-0.5724,-0.5962,-0.5928,-0.6278,-0.6732,-0.693,0.0,0.0,-0.8571,-0.8705,-0.8765,-0.8888,-0.9058,-0.9169,-0.9169,-0.9267,-0.9364,-0.9243,-0.9209,-0.9169,-0.8977,-0.8807,-0.8765,-0.9017,-0.8501,-0.7917,-0.7837,-0.726,-0.6749,-0.635,-0.6872,-0.7259,-0.6899,-0.6819,-0.7042,-0.7822,-0.7429,-0.7271,-0.788,0.0,0.0,-0.754,-0.7551,-0.7631,-0.7694,-0.7694,-0.7788,-0.8061,-0.8021,-0.7912,-0.7744,-0.7706,-0.7623,-0.752,-0.7793,-0.802,-0.8253,-0.824,-0.8601,0.0,0.0,0.0,0.0,0.0,0.0,0.0,0.0,0.0,0.0,0.0,0.0,0.0,0.0,0.0,0.3985,0.3076,0.2255,0.1939,0.1162,0.061,0.0366,-0.0142,-0.056,-0.077,-0.1298,-0.1685,-0.1831,-0.2541,-0.3088,-0.3321,-0.3505,-0.354,-0.3395,-0.3682,-0.3788,-0.3635,-0.3988,-0.4293,-0.44,0.0,0.0,-0.4691,-0.502,-0.509,-0.4897,-0.4897,-0.5027,-0.5219,-0.5153,-0.5289,-0.5422,-0.5259,-0.5242,-0.5304,-0.5277,-0.5741,-0.6355,-0.6494,-0.7042,-0.7797,-0.8052,-0.8242,-0.8301,-0.8366,-0.843,0.0,-0.8471,-0.8627,-0.8819,-0.8872,-0.8676,-0.8533,-0.859,-0.8239,-0.7922,-0.7847,-0.7591,-0.7199,-0.6806,-0.6613,-0.635,-0.5815,-0.6145,-0.6486,-0.6721,-0.689,-0.7047,-0.7345,-0.7644,-0.7806,-0.764,-0.7673,-0.7827,-0.7872,-0.7683,-0.7658,-0.804,-0.8109,-0.8153,-0.8377,-0.826,-0.8161,-0.8115,-0.796,-0.7875,-0.7799,-0.8027,-0.8334,-0.8699,-0.8573,-0.8684,0.0,0.0,0.0,0.0,0.0,0.0,0.0,0.0,0.0,0.0,0.0,0.6284,0.0,0.0,0.4234,0.3689,0.2983,0.2353,0.1964,0.1166,0.0535,0.0447,-0.0145,-0.0572,-0.0715,-0.1241,-0.1633,-0.1679,-0.2513,-0.306,-0.306,-0.343,-0.3531,-0.3339,-0.356,-0.3609,-0.3491,-0.388,-0.4184,-0.4271,-0.4625,-0.4761,-0.4625,-0.4954,-0.4957,-0.4831,-0.4831,-0.4827,-0.4957,-0.4891,-0.4864,-0.4919,-0.4788,-0.4891,-0.5087,-0.5087,-0.5373,-0.5841,-0.6384,-0.6945,-0.7521,-0.7887,-0.8112,-0.8172,-0.8107,-0.8099,-0.8138,-0.8138,-0.8242,-0.8326,-0.8387,-0.8169,-0.8011,-0.8075,-0.7713,-0.7274,-0.7204,-0.6937,-0.6609,-0.6218,-0.6086,-0.5885,-0.5617,-0.5686,-0.5951,-0.6412,-0.6566,-0.6788,-0.7301,-0.7468,-0.7513,-0.764,-0.7821,-0.7844,-0.7731,-0.7591,-0.7652,-0.7917,-0.8047,-0.8242,-0.8641,-0.8571,-0.8457,-0.8471,-0.834,-0.8143,-0.7886,-0.8082,-0.8359,-0.867,-0.8696,-0.8976,0.0,0.0,0.0,0.0,0.0,0.0,0.0,0.0,0.7487,0.7399,0.6778,0.5997,0.5011,0.4512,0.4104,0.3392,0.3009,0.2508,0.1964,0.1154,0.0605,0.0526,-0.0074,-0.0583,-0.0729,-0.1262,-0.1601,-0.1671,-0.2488,-0.2962,-0.3022,-0.3341,-0.3503,-0.3277,-0.3503,-0.3561,-0.345,-0.3823,-0.4056,-0.4229,-0.4526,-0.464,-0.4596,-0.4837,-0.484,-0.473,-0.464,-0.4697,-0.4697,-0.4587,-0.4521,-0.4461,-0.4368,-0.4599,-0.4992,-0.5033,-0.5215,-0.5521,-0.6233,-0.6772,-0.718,-0.7608,-0.7852,-0.7912,-0.7852,-0.7792,-0.7722,-0.7722,-0.7792,-0.7792,-0.7792,-0.7661,-0.7536,-0.7531,-0.7138,-0.6745,-0.6679,-0.628,-0.5951,-0.5756,-0.5554,-0.5484,-0.5484,-0.5488,-0.5624,-0.6148,-0.618,-0.6509,-0.7301,-0.7145,-0.718,-0.7702,-0.7829,-0.7787,-0.7526,-0.7591,-0.7657,-0.7727,-0.7922,-0.8312,-0.8835,-0.877,-0.8717,-0.8724,-0.8572,-0.8282,-0.7903,-0.8098,-0.8355,-0.8669,-0.8776,-0.9207,0.8721,0.8824,0.0,0.8634,0.8675,0.8803,0.0,0.0,0.8104,0.7728,0.6821,0.591,0.5345,0.4709,0.4104,0.3392,0.2858,0.2353,0.1729,0.1,0.045,0.0073,-0.0292,-0.0729,-0.1093,-0.1451,-0.1811,-0.2183,-0.2529,-0.3016,-0.3703,-0.3627,-0.3669,-0.3986,-0.3826,-0.3747,-0.3728,-0.3787,-0.3909,-0.4066,-0.4041,-0.4214,-0.4516,-0.4414,-0.4422,-0.4513,-0.4206,-0.4164,-0.4375,-0.4277,-0.4325,-0.4397,-0.4386,-0.445,-0.4505,-0.4736,-0.5087,-0.5404,-0.5679,-0.6199,-0.678,-0.6937,-0.7012,-0.7077,-0.7269,-0.7068,-0.6872,-0.6872,-0.6942,-0.7012,-0.7012,-0.7012,-0.6946,-0.6806,-0.6474,-0.6079,-0.5815,-0.5484,-0.5156,-0.496,-0.5024,-0.5153,-0.5153,-0.5418,-0.5749,-0.6145,-0.6217,-0.6407,-0.6933,-0.7104,-0.727,-0.7513,-0.7536,-0.7521,-0.7521,-0.7787,-0.7922,-0.7987,-0.8112,-0.8431,-0.8952,-0.8705,-0.8595,-0.8724,-0.8505,-0.8243,-0.7982,-0.8142,-0.8439,-0.8865,-0.898,-0.9112,0.9962,0.0,0.0,0.0,0.9134,0.8974,0.8875,0.8662,0.8389,0.8161,0.7328,0.655,0.6246,0.544,0.4613,0.0,0.3317,0.2588,0.1886,0.1063,0.0443,0.0073,0.0,-0.0364,-0.1093,-0.1294,-0.1587,-0.2008,-0.2407,-0.2799,-0.3099,-0.3174,-0.345,-0.3763,-0.3684,-0.3649,-0.3802,-0.3823,-0.3901,-0.396,-0.3911,-0.401,-0.4119,-0.4147,-0.419,-0.4368,-0.4115,-0.4028,-0.3966,-0.3878,-0.3863,-0.3975,-0.4051,-0.4135,-0.4322,-0.4678,-0.491,-0.5114,-0.5592,-0.6086,-0.6564,-0.6806,-0.6974,-0.7109,-0.7176,-0.703,-0.6811,-0.6811,-0.6881,-0.6881,-0.6683,-0.6548,-0.6346,-0.6145,-0.5815,-0.5484,-0.5352,-0.509,-0.4894,-0.4827,-0.4894,-0.496,-0.509,-0.5219,-0.5484,-0.5954,-0.6148,-0.6368,-0.6824,-0.6946,-0.7162,-0.7606,-0.7526,-0.7526,-0.7596,-0.7727,-0.7857,-0.7987,-0.8247,-0.8506,-0.8894,-0.8829,-0.8784,-0.8747,-0.8606,-0.8416,-0.8249,-0.8229,-0.8406,-0.8707,-0.8707,-0.8854,1.0661,0.0,0.0,0.9616,0.9244,0.9036,0.8906,0.8805,0.8592,0.833,0.7637,0.7022,0.6837,0.6011,0.5081,0.4428,0.3677,0.2877,0.204,0.128,0.0729,0.0364,0.0576,0.0287,-0.0873,-0.1082,-0.1314,-0.1906,-0.228,-0.2581,-0.2674,-0.2798,-0.3137,-0.3526,-0.3526,-0.3515,-0.3651,-0.3737,-0.3766,-0.374,-0.3748,-0.3836,-0.4001,-0.4035,-0.4021,-0.41,-0.3897,-0.3694,-0.356,-0.3389,-0.337,-0.3559,-0.3628,-0.3851,-0.4114,-0.4476,-0.4704,-0.4825,-0.5387,-0.5822,-0.6106,-0.6364,-0.6539,-0.6671,-0.6738,-0.6651,-0.6482,-0.6482,-0.6482,-0.6482,-0.6152,-0.5951,-0.5749,-0.5418,-0.5153,-0.4957,-0.4957,-0.4827,-0.4631,-0.4631,-0.4697,-0.4827,-0.4957,-0.509,-0.5355,-0.5756,-0.6017,-0.6346,-0.6815,-0.7012,-0.7204,-0.7596,-0.7526,-0.7526,-0.7661,-0.7727,-0.7857,-0.7987,-0.8247,-0.8511,-0.877,-0.8759,-0.8759,-0.877,-0.8593,-0.8436,-0.8316,-0.8204,-0.8265,-0.8436,-0.8316,-0.8471,0.0,0.0,0.9466,0.898,0.8974,0.904,0.8943,0.892,0.87,0.8139,0.7571,0.7064,0.6706,0.5994,0.5179,0.4261,0.3624,0.2897,0.2031,0.158,0.1239,0.0948,0.1463,0.1239,0.0,-0.0745,-0.1298,-0.2111,-0.215,-0.2373,-0.3056,-0.2746,-0.2823,-0.3448,-0.3526,-0.3413,-0.3336,-0.3479,-0.3511,-0.3431,-0.3497,-0.3763,-0.4223,-0.4115,-0.3886,-0.3498,-0.3295,-0.3159,-0.3029,-0.2904,-0.2938,-0.3151,-0.336,-0.3498,-0.3691,-0.4139,-0.4428,-0.4619,-0.4761,-0.496,-0.5156,-0.5365,-0.5299,-0.5226,-0.5557,-0.5557,-0.5428,-0.5428,-0.5554,-0.555,-0.5219,-0.5153,-0.509,-0.4894,-0.4694,-0.4625,-0.4625,-0.4431,-0.43,-0.43,-0.4495,-0.4628,-0.4764,-0.5163,-0.5425,-0.5617,-0.5947,-0.6346,-0.6815,-0.7269,-0.7456,-0.7521,-0.7521,-0.7521,-0.7521,-0.7787,-0.7987,-0.7987,-0.8112,-0.8371,-0.877,-0.8436,-0.8431,-0.877,-0.8431,-0.8226,-0.8226,-0.8096,-0.8032,-0.8042,-0.8042,-0.8047,1.0578,0.0,0.9559,0.897,0.8861,0.8901,0.8769,0.8579,0.8431,0.8144,0.7429,0.685,0.6694,0.5923,0.5081,0.4315,0.3657,0.2971,0.2188,0.1678,0.1189,0.0803,0.102,0.0,0.0,0.0,0.0,-0.1486,-0.1613,-0.176,-0.2272,-0.2275,-0.2588,-0.3217,-0.3137,-0.3125,-0.3409,-0.3484,-0.3548,-0.3442,-0.3537,-0.3683,-0.3806,-0.3772,-0.3686,-0.3498,-0.3295,-0.3125,-0.2968,-0.2802,-0.2854,-0.3015,-0.3317,-0.3432,-0.3434,-0.3958,-0.4158,-0.4228,-0.4631,-0.4953,-0.516,-0.5303,-0.5232,-0.5092,-0.5368,-0.5231,-0.5017,-0.5017,-0.5017,-0.5014,-0.4686,-0.4556,-0.4486,-0.4225,-0.4092,-0.4092,-0.4092,-0.4095,-0.4097,-0.4097,-0.4231,-0.4431,-0.4628,-0.4827,-0.516,-0.569,-0.6086,-0.6416,-0.6745,-0.6942,-0.7073,-0.7073,-0.7199,-0.733,-0.733,-0.7722,-0.7922,-0.7792,-0.8182,-0.8376,-0.8247,-0.8236,-0.8236,-0.8247,-0.8112,-0.8047,-0.8047,-0.8052,-0.8047,-0.8107,-0.7782,-0.7727,1.0337,0.984,0.926,0.869,0.8636,0.8695,0.8563,0.8337,0.8217,0.7992,0.7429,0.6886,0.6753,0.6014,0.5202,0.442,0.3734,0.3006,0.239,0.191,0.1429,0.1111,0.1189,0.0893,0.0,0.0,0.0,-0.1173,-0.1219,-0.144,-0.1957,-0.204,-0.2354,-0.2982,-0.2904,-0.2981,-0.3215,-0.3448,-0.3526,-0.3604,-0.3625,-0.3655,-0.3549,-0.3476,-0.334,-0.3226,-0.3027,-0.287,-0.2729,-0.2543,-0.2661,-0.2833,-0.2974,-0.3102,-0.3197,-0.3542,-0.3716,-0.3866,-0.4374,-0.4654,-0.4819,-0.5024,-0.5021,-0.4884,-0.5229,-0.5026,-0.4752,-0.4752,-0.4619,-0.4353,-0.409,-0.3956,-0.3889,-0.3761,-0.3694,-0.3694,-0.3758,-0.3892,-0.3961,-0.3961,-0.4028,-0.4231,-0.4558,-0.4827,-0.5163,-0.569,-0.602,-0.635,-0.6675,-0.6811,-0.6881,-0.6881,-0.7007,-0.7073,-0.7073,-0.7461,-0.7661,-0.7661,-0.7922,-0.8117,-0.7987,-0.7982,-0.8047,-0.7987,-0.7922,-0.7922,-0.7922,-0.7857,-0.7852,-0.7907,-0.7456,-0.7265,0.9541,0.9087,0.8602,0.8171,0.8182,0.8293,0.8364,0.8226,0.8003,0.7815,0.7482,0.7159,0.0,0.0,0.554,0.4585,0.3852,0.3151,0.2485,0.2193,0.1967,0.0,0.0,0.0,0.0,0.0,0.0,-0.1096,0.0,-0.1267,-0.2109,-0.1962,-0.22,-0.2747,-0.2747,-0.2826,-0.2826,-0.3215,-0.3528,-0.3765,-0.3765,-0.3673,-0.3435,-0.3281,-0.2976,-0.2691,-0.2491,-0.2327,-0.2178,-0.2175,-0.2353,-0.2552,-0.249,-0.2643,-0.2897,-0.3101,-0.3277,-0.3471,-0.3958,-0.4204,-0.4308,-0.4498,-0.4558,-0.4625,-0.4954,-0.4758,-0.4492,-0.4492,-0.4159,-0.3692,-0.3496,-0.3295,-0.3228,-0.3431,-0.3498,-0.3563,-0.3758,-0.3758,-0.3758,-0.3758,-0.3825,-0.3959,-0.4492,-0.5027,-0.5425,-0.555,-0.5752,-0.6086,-0.6609,-0.6811,-0.6881,-0.6881,-0.6881,-0.6881,-0.6881,-0.7073,-0.7265,-0.7456,-0.7456,-0.7652,-0.7922,-0.7792,-0.7731,-0.7922,-0.7731,-0.7661,-0.7647,-0.7512,-0.7507,-0.7442,-0.692,-0.6666,0.9362,0.8902,0.8308,0.8089,0.8066,0.8128,0.8002,0.7775,0.7594,0.7425,0.7229,0.6916,0.0,0.0,0.0,0.4577,0.3788,0.0,0.2257,0.1893,0.0,0.1439,0.0,0.0767,0.0379,0.0452,0.0,0.0,-0.0534,-0.0754,-0.1221,-0.1634,-0.2121,-0.2589,-0.2589,-0.2668,-0.2826,-0.2902,-0.3059,-0.3295,-0.3295,-0.3244,-0.3147,-0.3013,-0.2792,-0.2565,-0.2446,-0.2352,-0.2237,-0.2192,-0.2258,-0.2304,-0.2398,-0.2432,-0.2481,-0.2714,-0.3036,-0.3401,-0.3585,-0.3822,-0.4003,-0.4121,-0.3961,-0.3763,-0.3897,-0.3694,-0.3424,-0.3424,-0.3222,-0.2954,-0.2889,-0.2956,-0.3092,-0.3092,-0.3226,-0.3295,-0.336,-0.3493,-0.3563,-0.3563,-0.3761,-0.4028,-0.4298,-0.4697,-0.5093,-0.5425,-0.5554,-0.5815,-0.628,-0.6416,-0.6482,-0.6412,-0.6482,-0.6548,-0.6548,-0.6811,-0.7012,-0.7073,-0.733,-0.7396,-0.7204,-0.7269,-0.7269,-0.7204,-0.7143,-0.7136,-0.7117,-0.7049,-0.7112,-0.7234,-0.6849,-0.6475,0.8667,0.8434,0.8018,0.7801,0.768,0.7569,0.7499,0.7254,0.707,0.7138,0.703,0.0,0.0,0.0,0.0,0.0,0.0,0.0,0.2001,0.1655,0.1445,0.0,0.0779,0.0,0.0231,0.0308,0.0231,0.0,-0.0305,-0.0609,-0.1077,-0.1638,-0.2043,-0.2353,-0.2431,-0.2589,-0.2668,-0.2668,-0.2746,-0.2826,-0.2826,-0.2789,-0.2722,-0.2581,-0.2445,-0.2241,0.0,-0.2153,-0.2039,-0.2056,-0.2042,-0.2002,-0.2079,-0.2119,-0.2113,-0.2311,-0.2581,-0.285,-0.3102,-0.3225,-0.342,-0.3917,-0.3936,-0.3696,-0.3696,-0.3493,-0.3222,-0.309,-0.2824,-0.2621,-0.2686,-0.2688,-0.2757,-0.2822,-0.2956,-0.2956,-0.2956,-0.3092,-0.3159,-0.3295,-0.3694,-0.4028,-0.4097,-0.4428,-0.4761,-0.5027,-0.5156,-0.5352,-0.5683,-0.6017,-0.6086,-0.5947,-0.6083,-0.6152,-0.6152,-0.6416,-0.6613,-0.6683,-0.7003,-0.7068,-0.6881,-0.7007,-0.7007,-0.6811,-0.6881,-0.6854,-0.6661,-0.6744,-0.6735,-0.6647,-0.6225,-0.5791,0.7896,0.7845,0.7771,0.749,0.7204,0.6972,0.6828,0.6658,0.6563,0.6835,0.0,0.6911,0.6618,0.5873,0.5008,0.4154,0.0,0.2182,0.1807,0.1632,0.1369,0.0936,0.0706,0.0471,0.0079,0.0393,0.0467,0.0,-0.0228,-0.0537,-0.1171,-0.1648,-0.2043,-0.2196,-0.2353,-0.2431,-0.2431,-0.2433,-0.2433,-0.2433,-0.2433,-0.2406,-0.2353,-0.2143,-0.2017,-0.1899,-0.1842,-0.1802,-0.1739,-0.1911,-0.1877,-0.1802,-0.1722,-0.1711,-0.1732,-0.179,-0.1953,-0.2163,-0.2473,-0.2607,-0.2727,-0.3693,-0.3973,-0.3825,-0.3828,-0.3558,-0.3288,-0.3092,-0.2758,-0.2423,-0.2621,-0.2488,-0.2423,-0.2621,-0.2686,-0.2686,-0.2686,-0.2686,-0.2753,-0.2956,-0.3491,-0.3828,-0.3758,-0.4159,-0.4492,-0.4492,-0.4694,-0.4827,-0.4957,-0.5488,-0.5818,-0.5617,-0.5756,-0.5888,-0.5888,-0.6017,-0.6214,-0.635,-0.6523,-0.6654,-0.6749,-0.6793,-0.6719,-0.6609,-0.6745,-0.6655,-0.6341,-0.6496,-0.6294,-0.5824,-0.5459,-0.4872,0.7599,0.7806,0.7832,0.7245,0.6954,0.6626,0.6063,0.616,0.0,0.0,0.6981,0.7534,0.7358,0.6662,0.0,0.5143,0.0,0.0,0.0,0.0,0.1482,0.0,0.0,0.0,0.0,0.0,0.0,0.0,0.0,-0.0078,-0.0686,-0.1477,-0.2043,-0.2431,-0.2353,-0.2275,-0.2275,-0.212,-0.2043,-0.2043,-0.2043,-0.196,-0.195,-0.1862,-0.1746,-0.1735,-0.1651,0.0,-0.1905,-0.1826,-0.1714,-0.1688,-0.1599,-0.1505,-0.148,-0.1467,-0.168,-0.2045,-0.2095,-0.2234,-0.2445,-0.3001,-0.3102,-0.2887,-0.2758,-0.2624,-0.2557,-0.2423,-0.2288,-0.2221,-0.2288,-0.2356,-0.2424,-0.2423,-0.2554,-0.2686,-0.2686,-0.2686,-0.2686,-0.2753,-0.309,-0.336,-0.3293,-0.3761,-0.4095,-0.4095,-0.4428,-0.4561,-0.4431,-0.5156,-0.562,-0.5425,-0.5554,-0.5683,-0.5683,-0.5683,-0.5815,-0.5954,-0.6024,-0.6069,-0.6083,-0.6085,-0.6073,-0.6017,-0.6214,-0.6197,-0.5895,-0.5927,-0.5796,-0.5389,-0.4893,-0.4316,0.7264,0.7359,0.7424,0.6728,0.6379,0.604,0.5874,0.0,0.0,0.0,0.7148,0.7513,0.7349,0.0,0.0,0.0,0.0,0.0,0.0,0.0,0.0,0.0,0.0,0.0,0.0,0.0,0.0,0.0,0.0,0.0078,-0.0386,-0.1249,-0.1963,-0.2353,-0.2275,-0.2118,-0.1884,-0.1806,-0.1729,-0.1572,-0.1572,-0.1572,-0.157,-0.1513,-0.1403,-0.1455,-0.1469,-0.1523,-0.154,-0.1518,-0.1464,-0.1356,-0.1336,-0.1249,-0.1235,-0.1235,-0.1372,-0.151,-0.1578,-0.1715,-0.1849,-0.2161,-0.242,-0.2488,-0.2356,-0.2288,-0.2221,-0.1951,-0.1951,-0.2018,-0.1884,-0.2018,-0.2087,-0.2018,-0.195,-0.1949,-0.188,-0.2016,-0.215,-0.2285,-0.2621,-0.2956,-0.3092,-0.336,-0.3627,-0.3696,-0.3894,-0.4028,-0.4164,-0.4628,-0.496,-0.5096,-0.516,-0.5339,-0.5484,-0.5484,-0.56,-0.5745,-0.5814,-0.5871,-0.5885,-0.581,-0.5741,-0.5624,-0.5756,-0.5611,-0.5265,-0.5213,-0.4819,-0.4171,-0.3779,-0.3109,0.6856,0.6931,0.6918,0.6211,0.5774,0.5477,0.5581,0.5698,0.0,0.0,0.7102,0.7391,0.7204,0.0,0.0,0.0,0.0,0.0,0.0,0.0,0.0,0.0,0.0,0.0,0.0,0.0,0.0,0.0,0.0,0.0,-0.0471,-0.1178,-0.1728,-0.2118,-0.2118,-0.1884,-0.1572,-0.1493,-0.1336,-0.1178,-0.1178,-0.1254,-0.1246,-0.1216,-0.1185,-0.1155,-0.1265,-0.125,-0.1179,-0.1221,-0.1226,-0.1109,-0.1085,-0.1076,-0.1009,-0.1009,-0.1009,-0.1009,-0.1076,-0.1144,-0.1144,-0.1345,-0.1817,-0.2221,-0.2018,-0.2018,-0.2018,-0.1614,-0.1681,-0.1748,-0.1547,-0.1614,-0.1614,-0.148,-0.1344,-0.121,-0.1143,-0.1344,-0.1614,-0.1748,-0.2218,-0.2621,-0.2824,-0.3025,-0.3159,-0.3429,-0.3431,-0.3563,-0.3894,-0.4077,-0.4326,-0.4656,-0.4825,-0.4983,-0.526,-0.5314,-0.5378,-0.5429,-0.5636,-0.572,-0.5752,-0.5522,-0.5391,-0.5296,-0.5296,-0.5104,-0.4607,-0.4509,-0.3909,-0.2918,-0.2523,-0.1813,0.6643,0.6612,0.6573,0.5662,0.5251,0.4989,0.4613,0.0,0.0,0.6034,0.6806,0.7396,0.7012,0.6338,0.5634,0.0,0.0,0.3423,0.0,0.0,0.0,0.0,0.0,0.0,0.0,0.0,0.0,0.0,0.0,0.0,-0.1178,-0.1493,-0.1729,-0.1886,-0.1729,-0.1571,-0.1335,-0.11,-0.0943,-0.0943,-0.0943,-0.101,-0.1215,-0.1185,-0.1154,-0.1123,-0.1093,-0.1215,0.0,-0.1144,-0.1212,-0.1282,-0.1144,-0.101,-0.0809,-0.0809,-0.0741,-0.0539,-0.0539,-0.0607,-0.0606,-0.0807,-0.121,-0.1614,-0.1412,-0.148,-0.1614,-0.1412,-0.1344,-0.1344,-0.1344,-0.1143,-0.0874,-0.0874,-0.1008,-0.1143,-0.1076,-0.121,-0.1344,-0.1344,-0.1817,-0.2288,-0.2423,-0.2622,-0.2889,-0.3159,-0.3228,-0.336,-0.3758,-0.3806,-0.4003,-0.4397,-0.4702,-0.4839,-0.4781,-0.5001,-0.5075,-0.4967,-0.5091,-0.5148,-0.515,-0.5036,-0.49,-0.4827,-0.5024,-0.4749,-0.3877,-0.388,-0.3207,-0.2004,-0.1476,-0.0941,0.6467,0.6143,0.5924,0.5389,0.4932,0.4708,0.4941,0.0,0.5915,0.6411,0.7145,0.7531,0.733,0.6454,0.5623,0.5186,0.4248,0.0,0.0,0.0,0.0,0.0,0.0,0.0,0.0,0.0,0.0,0.0,0.0,0.0,-0.0864,-0.1257,-0.1493,-0.1729,-0.1493,-0.1335,-0.11,-0.0864,-0.0786,-0.0864,-0.0774,-0.0918,-0.1211,-0.1106,-0.1077,-0.112,-0.1108,-0.1093,0.0,-0.1076,-0.1076,-0.101,-0.0943,-0.0876,-0.0809,-0.0674,-0.0539,-0.0472,-0.0472,-0.0472,-0.0472,-0.0336,-0.0538,-0.0808,-0.0941,-0.0941,-0.0874,-0.074,-0.0673,-0.0672,-0.0538,-0.0403,-0.0269,-0.0135,-0.0202,-0.0269,-0.0404,-0.0606,-0.0808,-0.1144,-0.1547,-0.1951,-0.2221,-0.2423,-0.2622,-0.3025,-0.3092,-0.3226,-0.356,-0.3593,-0.3716,-0.4088,-0.425,-0.4397,-0.4543,-0.4655,-0.4686,-0.4755,-0.4769,-0.4842,-0.4964,-0.4724,-0.4567,-0.4498,-0.4289,-0.3889,-0.3291,-0.2885,-0.2147,-0.1208,-0.0806,-0.0269,0.6601,0.6075,0.5683,0.5352,0.4977,0.491,0.0,0.0,0.6233,0.6814,0.7247,0.7416,0.7099,0.6211,0.5364,0.4863,0.3937,0.3223,0.0,0.0,0.0,0.0,0.0,0.0,0.0,0.0,0.0,0.0,0.0,0.0,-0.0393,-0.0943,-0.1257,-0.1415,-0.1178,-0.0943,-0.0707,-0.055,-0.055,-0.0707,-0.0613,-0.0679,-0.1047,-0.0875,-0.0852,-0.0901,-0.0901,-0.0823,0.0,-0.0808,-0.074,-0.0472,-0.0472,-0.0404,-0.0337,-0.0135,-0.0067,0.0,0.0,0.0,0.0,0.0269,0.0202,0.0067,-0.0134,-0.0269,-0.0336,-0.0135,0.0,0.0067,0.0336,0.0336,0.0269,0.0471,0.0472,0.0337,0.0135,-0.0135,-0.0404,-0.0875,-0.1278,-0.1681,-0.2018,-0.2221,-0.249,-0.2822,-0.2891,-0.2948,-0.3257,-0.3296,-0.3407,-0.3661,-0.3717,-0.3912,-0.4234,-0.4339,-0.4381,-0.4546,-0.4552,-0.458,-0.4622,-0.4431,-0.4148,-0.3828,-0.3422,-0.2885,-0.2351,-0.1748,-0.1076,-0.0336,0.0,0.0538,0.7055,0.6535,0.6079,0.5683,0.556,0.5612,0.0,0.0,0.6341,0.6791,0.7024,0.6844,0.6046,0.54,0.471,0.3707,0.3199,0.0,0.0,0.0,0.0,0.0,0.0,0.0,0.0,0.0,0.0,0.0,0.0,0.0,0.0,-0.055,-0.0943,-0.0943,-0.0707,-0.0471,-0.0314,-0.0314,-0.0314,-0.0314,-0.0306,-0.0374,-0.0583,-0.0638,-0.0553,-0.054,-0.054,-0.0405,0.0,-0.0337,-0.0067,0.0269,0.0269,0.047,0.0806,0.0806,0.0941,0.1076,0.1076,0.1076,0.1076,0.1076,0.1076,0.1076,0.1076,0.0605,0.0067,0.0403,0.0605,0.0874,0.121,0.1008,0.0874,0.1076,0.0808,0.0472,0.0337,0.0,-0.0337,-0.0472,-0.1078,-0.1681,-0.1884,-0.2087,-0.2287,-0.2619,-0.2555,-0.2531,-0.2844,-0.2886,-0.2982,-0.3067,-0.3081,-0.3299,-0.3744,-0.4035,-0.4228,-0.4177,-0.4427,-0.4426,-0.4023,-0.4028,-0.3625,-0.2753,-0.2484,-0.1879,-0.0807,-0.0605,-0.0067,0.0809,0.1009,0.148,0.6936,0.6405,0.6071,0.6256,0.6025,0.5879,0.6311,0.6471,0.6482,0.6245,0.6389,0.6315,0.5707,0.4823,0.4114,0.3945,0.3259,0.2774,0.0,0.0,0.0,0.0,0.0,0.0,0.0,0.0,0.0,0.0,0.0,0.0,-0.0236,-0.0236,-0.0393,-0.0707,-0.0471,-0.0393,-0.0314,-0.0157,-0.0157,-0.0314,-0.0153,-0.0299,-0.0583,-0.0284,-0.0276,-0.0337,-0.0202,-0.0067,0.0135,0.0135,0.0269,0.047,0.0605,0.0739,0.0807,0.0941,0.1076,0.1143,0.121,0.121,0.1277,0.1748,0.1749,0.1748,0.2083,0.1612,0.0941,0.121,0.1277,0.1345,0.148,0.1412,0.1344,0.1277,0.1144,0.0942,0.0404,0.0067,-0.0202,-0.0607,-0.1077,-0.148,-0.1681,-0.1884,-0.2072,-0.2358,-0.2354,-0.2394,-0.2573,-0.2604,-0.2681,-0.2893,-0.2915,-0.3042,-0.3474,-0.3589,-0.3623,-0.3641,-0.3568,-0.3359,-0.313,-0.2801,-0.2433,-0.1945,-0.1544,-0.0941,-0.0269,0.0067,0.0538,0.1144,0.1615,0.1951,0.0,0.6768,0.644,0.6748,0.6623,0.6565,0.688,0.6745,0.6416,0.6007,0.577,0.5455,0.4979,0.4121,0.352,0.3633,0.3142,0.0,0.0,0.0,0.0,0.0,0.0,0.0,0.0,0.0,0.0,0.0,0.0,0.0,-0.0079,-0.0079,-0.0157,-0.0236,-0.0236,-0.0157,-0.0157,-0.0079,0.0,-0.0079,0.0153,0.0149,0.0,0.0284,0.0345,0.0135,0.0269,0.0403,0.0,0.0605,0.0739,0.1008,0.1143,0.1277,0.1344,0.1547,0.1614,0.1614,0.1747,0.1814,0.1882,0.2285,0.2285,0.2285,0.2619,0.2284,0.1814,0.1816,0.195,0.2017,0.1883,0.1817,0.1749,0.1547,0.1412,0.1144,0.0606,0.0269,-0.0067,-0.0607,-0.0935,-0.1259,-0.1456,-0.164,-0.1812,-0.1971,-0.2029,-0.2132,-0.2193,-0.2305,-0.2397,-0.2438,-0.2486,-0.2579,-0.2858,-0.3078,-0.3157,-0.3049,-0.2789,-0.2557,-0.2287,-0.1896,-0.145,-0.1006,-0.0537,-0.0067,0.0403,0.0739,0.1143,0.1681,0.2084,0.2354,0.0,0.7441,0.0,0.722,0.7289,0.7418,0.7483,0.69,0.0,0.5931,0.5235,0.4505,0.3884,0.3335,0.2968,0.2946,0.2831,0.0,0.0,0.0,0.0,0.0,0.0,0.0,0.0,0.0,0.0,0.0,0.0,0.0,0.0314,-0.0079,-0.0079,0.0314,0.0157,0.0079,0.0,0.0,0.0157,0.0313,0.0537,0.0748,0.0944,0.1136,0.1106,0.0,0.0874,0.0941,0.1143,0.1143,0.148,0.1951,0.1951,0.2085,0.2221,0.2356,0.2423,0.2423,0.2621,0.2753,0.2753,0.2753,0.2753,0.2753,0.2753,0.2753,0.2619,0.2354,0.2487,0.2619,0.2287,0.2221,0.2154,0.1951,0.1614,0.121,0.0874,0.0539,0.0135,-0.0403,-0.0789,-0.1032,-0.1286,-0.138,-0.1477,-0.1535,-0.1597,-0.1701,-0.1653,-0.1877,-0.1971,-0.1746,-0.1849,-0.1959,-0.1903,-0.2465,-0.2709,-0.245,-0.2156,-0.1836,-0.1543,-0.1143,-0.0605,0.0067,0.0403,0.0806,0.121,0.1547,0.1883,0.2288,0.2418,0.2753,0.7669,0.0,0.73,0.7415,0.7458,0.7464,0.0,0.7146,0.6601,0.0,0.0,0.4643,0.3869,0.321,0.2928,0.347,0.3101,0.0,0.0,0.0,0.0,0.0,0.0,0.0,0.0,0.0,0.0,0.0,0.0,0.0236,0.0314,0.0236,0.0236,0.055,0.0628,0.055,0.0236,0.0393,0.0545,0.0764,0.1006,0.113,0.1061,0.1292,0.1268,0.121,0.1344,0.1412,0.148,0.1817,0.2018,0.2153,0.242,0.2552,0.2552,0.2621,0.2621,0.2688,0.2889,0.2956,0.2956,0.3228,0.3295,0.3295,0.3295,0.3023,0.2686,0.2621,0.2619,0.2686,0.2621,0.2488,0.2288,0.2154,0.1817,0.1412,0.0874,0.0539,0.0134,-0.0393,-0.0714,-0.0962,-0.1253,-0.1302,-0.1409,-0.1614,-0.1549,-0.1473,-0.1426,-0.1363,-0.1301,-0.1291,-0.129,-0.1289,-0.1177,-0.1777,-0.2068,-0.1905,-0.151,-0.1036,-0.0604,0.0,0.0538,0.0807,0.148,0.1817,0.1951,0.2285,0.2552,0.2822,0.3086,0.3422,0.7568,0.7467,0.729,0.7296,0.7212,0.7046,0.6946,0.0,0.0,0.0,0.0,0.0,0.3958,0.3282,0.0,0.35,0.3303,0.0,0.0,0.0,0.0,0.0,0.0,0.0,0.0,0.0,0.0,0.0,0.0,0.0786,0.0786,0.0786,0.0864,0.1021,0.11,0.0943,0.0786,0.0864,0.1015,0.1232,0.1482,0.152,0.15,0.1739,0.1701,0.1614,0.1817,0.1884,0.1884,0.2154,0.2356,0.242,0.2619,0.2686,0.2686,0.282,0.2822,0.2889,0.3159,0.3293,0.3424,0.356,0.3627,0.3627,0.3627,0.3424,0.3155,0.2887,0.2956,0.3023,0.2753,0.2688,0.2624,0.2356,0.2018,0.1614,0.1143,0.0673,0.0268,-0.0198,-0.0391,-0.0514,-0.0759,-0.0801,-0.0842,-0.0886,-0.0931,-0.0916,-0.0787,-0.0842,-0.0898,-0.0785,-0.0842,-0.0842,-0.0673,-0.1025,-0.1174,-0.1169,-0.0814,-0.0451,0.0067,0.0605,0.1143,0.1614,0.2018,0.2287,0.2555,0.2887,0.3222,0.3491,0.3887,0.4289,0.7399,0.725,0.7101,0.6966,0.6642,0.6312,0.6159,0.0,0.0,0.0,0.0,0.0,0.0,0.0,0.0,0.0,0.0,0.0,0.0,0.0,0.0,0.0,0.0,0.0,0.0,0.0,0.0,0.0,0.0,0.1335,0.1335,0.1335,0.1415,0.165,0.1492,0.1492,0.1492,0.1414,0.149,0.1641,0.188,0.1984,0.2032,0.2186,0.2198,0.1951,0.0,0.0,0.2221,0.2423,0.2622,0.2753,0.2753,0.282,0.2822,0.3023,0.3092,0.3092,0.3429,0.3706,0.3917,0.3917,0.3917,0.3917,0.3917,0.3904,0.3758,0.3291,0.336,0.3429,0.2956,0.2956,0.2958,0.2557,0.2153,0.1817,0.1412,0.0875,0.0471,0.0133,0.0065,0.0,-0.0127,-0.0182,-0.0117,-0.0059,-0.0229,-0.0281,-0.0169,-0.0394,-0.0505,-0.028,-0.0449,-0.0449,-0.028,-0.0224,-0.0231,-0.0246,-0.0185,0.0127,0.0671,0.1076,0.1547,0.2221,0.2354,0.2622,0.309,0.3489,0.3823,0.4161,0.4686,0.515,0.6985,0.6675,0.631,0.6058,0.5655,0.5273,0.5003,0.0,0.0,0.0,0.0,0.0,0.0,0.0,0.0,0.0,0.0,0.0,0.0,0.0,0.0,0.0,0.0,0.0,0.0,0.0,0.0,0.0,0.0,0.1335,0.1335,0.1493,0.1728,0.2118,0.204,0.2198,0.2591,0.204,0.1864,0.2058,0.2254,0.2347,0.219,0.224,0.2268,0.2154,0.0,0.2357,0.2424,0.2757,0.3025,0.3092,0.3092,0.3226,0.3362,0.3431,0.3431,0.3496,0.383,0.4157,0.4444,0.4585,0.4513,0.4373,0.4373,0.4308,0.4164,0.3758,0.3692,0.3694,0.3429,0.3295,0.3092,0.2755,0.2285,0.1817,0.1412,0.101,0.0665,0.0443,0.0312,0.0245,0.0174,0.0057,-0.0057,-0.0176,-0.0115,-0.0057,-0.0058,0.0,0.0112,0.028,0.0224,0.0224,0.028,0.0561,0.0692,0.0798,0.0432,0.0571,0.1409,0.1817,0.2154,0.2357,0.2956,0.3422,0.3692,0.4159,0.4625,0.4954,0.5282,0.5679,0.6761,0.6324,0.5765,0.5381,0.5062,0.4748,0.4352,0.0,0.0,0.0,0.0,0.0,0.0,0.0,0.0,0.0,0.0,0.0,0.0,0.0,0.0,0.0,0.0,0.0,0.0,0.0,0.0,0.0,0.0,0.0,0.1805,0.1962,0.2198,0.2353,0.2353,0.2511,0.2826,0.2511,0.234,0.2317,0.2388,0.2402,0.2293,0.236,0.2378,0.2356,0.0,0.2691,0.2757,0.3092,0.3295,0.3362,0.3493,0.356,0.3694,0.3763,0.3832,0.3974,0.4303,0.4521,0.4727,0.4864,0.484,0.4648,0.4648,0.461,0.4564,0.4361,0.4159,0.3894,0.3694,0.3496,0.3295,0.2956,0.2488,0.2078,0.1781,0.1447,0.1169,0.0995,0.0925,0.0855,0.0773,0.0651,0.0532,0.053,0.0523,0.0461,0.0459,0.0566,0.0561,0.0561,0.0449,0.0449,0.0673,0.0785,0.0981,0.1227,0.1335,0.1571,0.2149,0.2619,0.3088,0.3424,0.3954,0.4353,0.4691,0.5153,0.5617,0.5947,0.6276,0.6671,0.6304,0.5803,0.5174,0.4688,0.0,0.424,0.3868,0.0,0.0,0.0,0.0,0.0,0.0,0.0,0.0,0.0,0.0,0.0,0.0,0.0,0.0,0.0,0.0,0.0,0.0,0.0,0.0,0.0,0.0,0.2042,0.2196,0.2353,0.2511,0.2589,0.2589,0.2668,0.2904,0.2904,0.2738,0.2567,0.2518,0.2457,0.2384,0.2479,0.2489,0.2557,0.2891,0.3092,0.3159,0.3429,0.3565,0.3629,0.3758,0.3825,0.3961,0.4095,0.4314,0.4557,0.4858,0.4983,0.5073,0.5246,0.5121,0.4944,0.4944,0.4922,0.4894,0.4894,0.4628,0.4295,0.3959,0.3763,0.3563,0.3226,0.2825,0.2541,0.2225,0.1952,0.1673,0.1613,0.154,0.1414,0.1284,0.1161,0.1097,0.1206,0.107,0.0996,0.1036,0.102,0.0954,0.0842,0.0729,0.0785,0.1177,0.1242,0.151,0.2025,0.2251,0.252,0.2952,0.342,0.3887,0.442,0.4815,0.5216,0.562,0.6083,0.6474,0.6872,0.7199,0.7531,0.5438,0.4956,0.4386,0.3989,0.0,0.0,0.3384,0.2708,0.0,0.0,0.0,0.0,0.0,0.0,0.0,0.0,0.0,0.0,0.0,0.0,0.0,0.0,0.0,0.0,0.0,0.0,0.0,0.0,0.2041,0.2196,0.2196,0.2353,0.2589,0.2747,0.2747,0.2904,0.3062,0.3062,0.2948,0.2654,0.2649,0.2582,0.2463,0.2528,0.2694,0.2958,0.3092,0.3295,0.3498,0.3694,0.3828,0.3961,0.3825,0.3961,0.43,0.4495,0.4836,0.5221,0.5234,0.5454,0.5701,0.5779,0.5544,0.529,0.529,0.5196,0.509,0.509,0.5156,0.5163,0.4434,0.4097,0.3894,0.3565,0.3295,0.3023,0.2746,0.2476,0.2306,0.2181,0.191,0.1648,0.1601,0.1359,0.1205,0.127,0.1223,0.1251,0.1407,0.1341,0.129,0.1234,0.1234,0.1457,0.2071,0.2357,0.2848,0.3742,0.3149,0.3046,0.3682,0.4087,0.442,0.4749,0.5282,0.5811,0.6334,0.6675,0.7073,0.7456,0.7596,0.7666,0.521,0.4706,0.4093,0.3865,0.0,0.0,0.0,0.0,0.0,0.0,0.0,0.0,0.0,0.0,0.0,0.0,0.0,0.0,0.0,0.0,0.0,0.0,0.0,0.0,0.0,0.0,0.0,0.2277,0.2354,0.2431,0.2589,0.2747,0.2904,0.2982,0.2904,0.2981,0.3372,0.317,0.3032,0.3031,0.2881,0.2758,0.2661,0.2754,0.292,0.3159,0.3295,0.3496,0.3694,0.3964,0.4164,0.4231,0.4361,0.4498,0.464,0.5051,0.5323,0.552,0.5895,0.6046,0.6154,0.6154,0.6043,0.5843,0.5981,0.5866,0.5815,0.5815,0.5756,0.5557,0.496,0.4561,0.4292,0.4025,0.3694,0.3345,0.3281,0.3008,0.2779,0.2731,0.2465,0.2258,0.201,0.1762,0.1603,0.1609,0.156,0.156,0.1693,0.1708,0.1681,0.1624,0.2015,0.2406,0.2627,0.3166,0.3751,0.4411,0.4022,0.4113,0.4878,0.5153,0.5484,0.5943,0.6535,0.6863,0.706,0.7396,0.7722,0.7977,0.8247,0.8506,0.4744,0.4189,0.354,0.0,0.0,0.0,0.0,0.0,0.0,0.0,0.0,0.0,0.0,0.0,0.0,0.0,0.0,0.0,0.0,0.0,0.0,0.0,0.0,0.0,0.0,0.0,0.2353,0.2589,0.2589,0.2668,0.2904,0.3062,0.3062,0.3062,0.3061,0.3137,0.3526,0.3291,0.3285,0.3423,0.3177,0.305,0.2901,0.2982,0.3159,0.3426,0.3563,0.3828,0.4092,0.4298,0.4431,0.4498,0.4831,0.5122,0.5305,0.5812,0.6087,0.6282,0.6616,0.669,0.6547,0.6547,0.6423,0.628,0.635,0.635,0.6346,0.6346,0.628,0.6086,0.555,0.5087,0.4691,0.4489,0.4161,0.3877,0.3861,0.3654,0.343,0.3205,0.2939,0.2664,0.2342,0.198,0.1743,0.1754,0.1725,0.1793,0.1887,0.1971,0.2071,0.2125,0.2627,0.3016,0.3292,0.3852,0.4416,0.497,0.4975,0.5185,0.573,0.599,0.6412,0.6937,0.733,0.7657,0.7787,0.8177,0.8371,0.856,0.9011,0.9332,0.3827,0.3284,0.0,0.0,0.0,0.0,0.0,0.0,0.0,0.0,0.0,0.0,0.0,0.0,0.0,0.0,0.0,0.0,0.0,0.0,0.0,0.0,0.0,0.0,0.0,0.2511,0.2589,0.2826,0.2826,0.2904,0.3062,0.3141,0.3141,0.3141,0.3372,0.3526,0.3526,0.3595,0.3653,0.3781,0.3681,0.3378,0.3023,0.3159,0.3426,0.3825,0.3961,0.4228,0.4625,0.4625,0.4694,0.4831,0.5229,0.5716,0.626,0.6676,0.7133,0.75,0.75,0.7242,0.689,0.689,0.6697,0.642,0.642,0.6548,0.6741,0.6741,0.6811,0.6811,0.6346,0.5683,0.509,0.4827,0.4831,0.4697,0.4367,0.43,0.4132,0.3697,0.3221,0.2806,0.2542,0.2034,0.1724,0.1723,0.1739,0.1882,0.2116,0.217,0.2406,0.285,0.2905,0.3292,0.4122,0.4405,0.4804,0.5538,0.6125,0.6315,0.6132,0.6509,0.6933,0.7521,0.7657,0.7987,0.8511,0.8823,0.9139,0.9338,0.9767,1.0021,0.348,0.0,0.0,0.0,0.0,0.0,0.0,0.0,0.0,0.0,0.0,0.0,0.0,0.0,0.0,0.0,0.0,0.0,0.0,0.0,0.0,0.0,0.0,0.0,0.0,0.2589,0.2826,0.2982,0.3215,0.3292,0.3372,0.3528,0.3608,0.3608,0.3526,0.3604,0.3684,0.3462,0.3447,0.3781,0.3617,0.3522,0.3558,0.3625,0.3828,0.4164,0.4164,0.4431,0.4761,0.4891,0.5223,0.5624,0.5818,0.6047,0.6443,0.7035,0.7391,0.7513,0.7587,0.7683,0.7681,0.7541,0.7386,0.7335,0.7466,0.7396,0.726,0.726,0.7199,0.7007,0.6675,0.628,0.5888,0.5359,0.5093,0.4957,0.4891,0.4564,0.4289,0.4122,0.3652,0.3203,0.2795,0.2382,0.2055,0.1922,0.2041,0.2388,0.3069,0.3317,0.3519,0.3685,0.407,0.4398,0.4677,0.523,0.5639,0.5865,0.6449,0.684,0.6889,0.7152,0.7433,0.7681,0.784,0.8265,0.8935,0.924,0.9768,1.0338,1.0724,1.0919,0.2927,0.0,0.0,0.0,0.0,0.0,0.0,0.0,0.0,0.0,0.0,0.0,0.0,0.0,0.0,0.0,0.0,0.0,0.0,0.0,0.0,0.0,0.0,0.0,0.2348,0.2668,0.2904,0.3062,0.3372,0.3526,0.3604,0.3763,0.3763,0.3763,0.3649,0.3631,0.3707,0.3457,0.3511,0.3866,0.391,0.4028,0.4092,0.3959,0.4028,0.43,0.4697,0.496,0.5229,0.5488,0.5885,0.6218,0.6346,0.6721,0.7198,0.7648,0.8035,0.8238,0.818,0.8193,0.8164,0.8032,0.7927,0.7857,0.8047,0.7917,0.7722,0.7722,0.7591,0.7396,0.7003,0.6876,0.6745,0.5888,0.5554,0.5355,0.5223,0.4916,0.4555,0.4361,0.3866,0.333,0.2986,0.2642,0.2372,0.2266,0.2561,0.3085,0.3747,0.3959,0.4184,0.4408,0.4791,0.5171,0.5395,0.5946,0.6327,0.6332,0.6976,0.7396,0.7555,0.7836,0.8061,0.8177,0.8563,0.8977,0.9496,0.9907,1.0481,1.1149,1.1532,1.1661,0.2315,0.0,0.0,0.0,0.0,0.0,0.0,0.0,0.0,0.0,0.0,0.0,0.0,0.0,0.0,0.0,0.0,0.0,0.0,0.0,0.0,0.0,0.0,0.0,0.2112,0.2589,0.2901,0.313,0.3368,0.3602,0.3752,0.3837,0.3841,0.3763,0.3673,0.3626,0.3626,0.3589,0.3704,0.3985,0.4419,0.4625,0.4691,0.4292,0.4231,0.4431,0.5289,0.5818,0.602,0.6288,0.6548,0.6806,0.6946,0.7513,0.8342,0.8342,0.8813,0.9287,0.903,0.8761,0.8511,0.8517,0.8317,0.8112,0.8236,0.8177,0.8052,0.8052,0.8052,0.7922,0.7396,0.7531,0.7466,0.6544,0.6148,0.5885,0.5474,0.523,0.5001,0.4553,0.3952,0.3413,0.3247,0.2939,0.2737,0.2815,0.3307,0.386,0.4236,0.4291,0.4567,0.5124,0.5285,0.5614,0.6173,0.6549,0.6815,0.6933,0.7566,0.802,0.8181,0.8425,0.8621,0.8795,0.9522,0.9973,1.0165,1.0684,1.1264,1.178,1.2289,1.2364,0.0,0.196,0.0,0.0,0.0,0.0,0.0,0.0,0.0,0.0,0.0,0.0,0.0,0.0,0.0,0.0,0.0,0.0,0.0,0.0,0.0,0.0,0.0,0.1299,0.2112,0.2668,0.3191,0.3434,0.3645,0.373,0.3661,0.388,0.3999,0.3841,0.3827,0.3854,0.3854,0.3661,0.3913,0.4541,0.4552,0.4824,0.5226,0.4957,0.502,0.5352,0.5951,0.6346,0.6544,0.6609,0.6937,0.733,0.7661,0.8072,0.85,0.8766,0.8967,0.9032,0.8913,0.8874,0.8894,0.877,0.8765,0.8759,0.8823,0.8635,0.8382,0.8382,0.8312,0.8107,0.8042,0.7982,0.7857,0.7466,0.6942,0.6375,0.5717,0.5346,0.5098,0.4982,0.4501,0.4074,0.4004,0.3693,0.3482,0.3538,0.4103,0.4585,0.4864,0.5124,0.5454,0.5782,0.595,0.6114,0.6332,0.6761,0.7139,0.7359,0.7943,0.8457,0.8778,0.889,0.8983,0.9039,0.9566,1.0097,1.0631,1.1174,1.1852,1.2565,1.3086,1.3234,0.0,0.0,0.0,0.0,0.0,0.0,0.0,0.0,0.0,0.0,0.0,0.0,0.0,0.0,0.0,0.0,0.0,0.0,0.0,0.0,0.0,0.0,0.0,0.1141,0.2001,0.265,0.3186,0.341,0.3595,0.3658,0.3571,0.3834,0.3938,0.3785,0.384,0.3937,0.3937,0.399,0.4248,0.4659,0.5122,0.555,0.602,0.562,0.562,0.5881,0.6478,0.6876,0.7129,0.7326,0.7657,0.7987,0.8247,0.8706,0.9182,0.9062,0.9226,0.9509,0.9062,0.9022,0.9145,0.9087,0.9017,0.9017,0.9145,0.8952,0.8765,0.8829,0.8823,0.8689,0.8624,0.8753,0.8656,0.7914,0.7255,0.6647,0.6105,0.5705,0.5378,0.5229,0.491,0.466,0.4469,0.4403,0.4449,0.4561,0.4966,0.5339,0.5542,0.5733,0.6005,0.6327,0.6495,0.6712,0.6972,0.7408,0.7783,0.8096,0.8521,0.8949,0.9361,0.9624,0.9717,0.961,1.0223,1.0732,1.1239,1.1653,1.2218,1.293,1.3141,1.3286,0.0,0.0,0.0,0.0,0.0,0.0,0.0,0.0,0.0,0.0,0.0,0.0,0.0,0.0,0.0,0.0,0.0,0.0,0.0,0.0,0.0,0.0,0.0,0.0979,0.1812,0.2533,0.3071,0.3295,0.3448,0.3567,0.3551,0.3704,0.3855,0.3855,0.39,0.3918,0.3918,0.4352,0.4625,0.4758,0.5749,0.6408,0.6741,0.635,0.6214,0.6342,0.7003,0.7396,0.7652,0.8042,0.8371,0.8576,0.8829,0.9379,0.9916,0.9379,0.9575,1.0031,0.9362,0.921,0.9402,0.9402,0.9274,0.921,0.9402,0.9274,0.921,0.9402,0.9466,0.9466,0.9274,0.9588,0.9642,0.8381,0.7623,0.7035,0.6502,0.6126,0.5776,0.5449,0.5322,0.5164,0.4948,0.5174,0.5408,0.5524,0.5847,0.6103,0.6248,0.63,0.6445,0.6761,0.7031,0.7348,0.7717,0.8103,0.8474,0.883,0.9152,0.9517,0.9925,1.0352,1.0514,1.0403,1.1065,1.1528,1.1728,1.2026,1.2501,1.2982,1.3048,1.3161,0.0,0.0,0.0,0.0,0.0,0.0,0.0,0.0,0.0,0.0,0.0,0.0,0.0,0.0,0.0,0.0,0.0,0.0,0.0,0.0,0.0,0.0,0.0,0.0738,0.1659,0.2305,0.284,0.3335,0.3473,0.3547,0.3591,0.3882,0.4003,0.4003,0.4116,0.4129,0.4129,0.4422,0.4891,0.5484,0.6346,0.6815,0.6881,0.7134,0.7199,0.7068,0.7466,0.7727,0.7987,0.8317,0.8576,0.877,0.9204,0.9628,0.991,0.9774,0.9776,0.9898,0.955,0.9594,0.9734,0.9734,0.9798,0.9856,0.9919,0.9798,0.9734,1.0053,1.0174,1.0174,1.0295,1.0358,1.0216,0.9555,0.8824,0.801,0.6769,0.6222,0.5962,0.5908,0.5909,0.5832,0.5664,0.597,0.6164,0.6017,0.6402,0.6728,0.6845,0.6854,0.6933,0.7203,0.7461,0.767,0.7871,0.8408,0.883,0.9106,0.9614,1.0028,1.0411,1.0667,1.0922,1.1175,1.1569,1.1778,1.1728,1.2323,1.2607,1.2615,1.3289,1.3586,0.0,0.0,0.0,0.0,0.0,0.0,0.0,0.0,0.0,0.0,0.0,0.0,0.0,0.0,0.0,0.0,0.0,0.0,0.0,0.0,0.0,0.0,-0.0073,0.0658,0.1626,0.227,0.281,0.3371,0.3401,0.3453,0.3357,0.3735,0.3896,0.3896,0.4264,0.4444,0.4512,0.5059,0.5749,0.6666,0.7068,0.7335,0.7531,0.7722,0.7657,0.7531,0.7927,0.8252,0.8506,0.8888,0.9081,0.921,0.953,0.9894,1.017,0.9903,1.0037,1.029,0.9879,0.9919,1.0053,1.0053,1.0117,1.0174,1.0364,1.0491,1.0548,1.0863,1.0989,1.0989,1.1045,1.1115,1.0871,0.9967,0.9519,0.8959,0.7711,0.6965,0.6553,0.6613,0.6544,0.6475,0.6425,0.6659,0.6793,0.6533,0.6968,0.7375,0.7343,0.7499,0.7664,0.7996,0.8203,0.8461,0.8823,0.919,0.951,0.9895,1.0241,1.0549,1.0922,1.1124,1.1377,1.1619,1.1728,1.1877,1.2026,1.2578,1.2783,1.2735,1.3311,1.3684,0.0,0.0,0.0,0.0,0.0,0.0,0.0,0.0,0.0,0.0,0.0,0.0,0.0,0.0,0.0,0.0,0.0,0.0,0.0,0.0,0.0,0.0,0.0,0.0716,0.1657,0.2221,0.2762,0.3334,0.333,0.3368,0.3364,0.3625,0.3825,0.3894,0.4425,0.4694,0.4894,0.5752,0.6605,0.7521,0.7587,0.7787,0.8047,0.8117,0.8117,0.8052,0.8382,0.8641,0.8894,0.9332,0.9518,0.9652,0.9926,1.0225,1.0567,1.0219,1.0354,1.0679,1.0335,1.0301,1.0428,1.0555,1.0618,1.0681,1.0989,1.1178,1.1296,1.167,1.1732,1.174,1.1802,1.1802,1.1515,1.0399,0.9962,0.9506,0.828,0.7521,0.709,0.7144,0.7144,0.7109,0.7053,0.7219,0.7339,0.7219,0.7662,0.8049,0.8049,0.8304,0.8554,0.8837,0.8981,0.9295,0.971,0.9969,1.0293,1.0718,1.0871,1.1116,1.156,1.1619,1.1819,1.2107,1.2017,1.2126,1.2382,1.2735,1.2939,1.3047,1.3302,1.3684,0.0,0.0,0.0,0.0,0.0,0.0,0.0,0.0,0.0,0.0,0.0,0.0,0.0,0.0,0.0,0.0,0.0,0.0,0.0,0.0,0.0,0.0,0.0139,0.0887,0.1821,0.2198,0.2634,0.3167,0.3234,0.3364,0.3758,0.3758,0.3961,0.4233,0.4631,0.4894,0.509,0.6272,0.706,0.7521,0.7852,0.8047,0.8172,0.8382,0.8641,0.8888,0.8641,0.8705,0.9017,0.9332,0.9716,0.9983,1.0434,1.067,1.0883,1.0789,1.0799,1.0876,1.0782,1.0744,1.0807,1.1115,1.1373,1.156,1.1677,1.1864,1.2042,1.2359,1.2421,1.2482,1.256,1.2375,1.2004,1.0965,1.0365,0.9519,0.7901,0.7521,0.7413,0.7311,0.75,0.7639,0.7469,0.7756,0.8049,0.8389,0.8559,0.8824,0.9322,0.9333,0.9413,0.951,0.9762,1.0012,1.0167,1.0702,1.1175,1.1418,1.1569,1.1859,1.2316,1.2157,1.2255,1.2716,1.2745,1.2715,1.2676,1.2832,1.3086,1.3467,1.3244,1.3601,0.0,0.0,0.0,0.0,0.0,0.0,0.0,0.0,0.0,0.0,0.0,0.0,0.0,0.0,0.0,0.0,0.0,0.0,0.0,0.0,0.0,0.0,0.0141,0.0901,0.1821,0.2323,0.2802,0.3209,0.3456,0.3597,0.3666,0.3857,0.4095,0.4495,0.4824,0.5422,0.6214,0.6933,0.7587,0.8117,0.8252,0.8441,0.8689,0.8888,0.9081,0.921,0.9285,0.9414,0.9542,0.9977,1.0301,1.0428,1.0618,1.0749,1.0695,1.0658,1.0812,1.1015,1.0968,1.1303,1.1802,1.1926,1.2174,1.2413,1.2544,1.2666,1.2842,1.2989,1.2989,1.2989,1.3058,1.2744,1.2195,1.0972,1.053,1.008,0.8835,0.8306,0.8086,0.8147,0.8225,0.8207,0.7997,0.8256,0.8561,0.8784,0.9298,0.9768,1.0031,1.0304,1.0498,1.0549,1.0795,1.1006,1.1049,1.1309,1.1578,1.1728,1.1999,1.2236,1.2461,1.2745,1.2977,1.3064,1.3228,1.3228,1.3035,1.3392,1.3462,1.3332,1.37,1.4004,0.0,0.0,0.0,0.0,0.0,0.0,0.0,0.0,0.0,0.0,0.0,0.0,0.0,0.0,0.0,0.0,0.0,0.0,0.0,0.0,0.0,0.0,0.0351,0.1037,0.1936,0.2515,0.3066,0.3466,0.372,0.0,0.3861,0.4056,0.4492,0.5087,0.5355,0.6017,0.7073,0.7526,0.7982,0.8517,0.8641,0.8765,0.9017,0.9274,0.9396,0.9396,0.9792,0.9989,0.9989,1.0371,1.0624,1.0751,1.087,1.0933,1.094,1.094,1.1185,1.1498,1.1498,1.1988,1.2536,1.2605,1.2842,1.3147,1.3224,1.3398,1.3519,1.3536,1.3476,1.3476,1.3354,1.2868,1.2024,1.1092,1.0782,1.0558,0.996,0.9292,0.8831,0.8843,0.8899,0.8919,0.8838,0.9123,0.9408,0.9614,1.0167,1.0626,1.088,1.1158,1.1377,1.1418,1.1628,1.1728,1.1778,1.1959,1.2157,1.2304,1.253,1.2774,1.3007,1.3228,1.3362,1.3467,1.3563,1.3635,1.3693,1.3821,1.3791,1.3641,1.4076,1.4344,0.0,0.0,0.0,0.0,0.0,0.0,0.0,0.0,0.0,0.0,0.0,0.0,0.0,0.0,0.0,0.0,0.0,0.0,0.0,0.0,0.0,0.0,0.0752,0.1412,0.2154,0.2824,0.3357,0.3754,0.3959,0.4095,0.4295,0.4558,0.5087,0.6079,0.6346,0.6811,0.7521,0.7977,0.8306,0.8517,0.8829,0.9017,0.9017,0.9396,0.9518,0.9582,1.0104,1.0301,1.0301,1.0308,1.0618,1.1122,1.1122,1.131,1.1622,1.1622,1.1934,1.2305,1.2305,1.2658,1.307,1.326,1.358,1.383,1.383,1.395,1.401,1.401,1.389,1.3761,1.3571,1.2605,1.1672,1.1382,1.117,1.1012,1.1,1.0324,0.9673,0.946,0.9563,0.9724,0.997,1.0227,1.0546,1.0955,1.115,1.141,1.1877,1.1927,1.1977,1.2076,1.2126,1.2175,1.2323,1.2638,1.2919,1.3208,1.3208,1.3467,1.3973,1.3515,1.3467,1.3973,1.3784,1.3966,1.4705,1.4194,1.4112,1.4523,1.4247,1.4536,0.0467,0.0,0.0,0.0,0.0,0.0,0.0,0.0,0.0,0.0,0.0,0.0,0.0,0.0,0.0,0.0,0.0,0.0,0.0,0.0,0.0,0.0,0.0821,0.1546,0.2284,0.3025,0.3664,0.0,0.4375,0.4584,0.4945,0.5425,0.5881,0.6284,0.6872,0.7456,0.7977,0.8312,0.8635,0.9081,0.9268,0.9466,0.9606,0.9919,1.011,1.011,1.0364,1.0618,1.087,1.0996,1.1059,1.1185,1.1747,1.1864,1.1747,1.1996,1.2421,1.2834,1.2834,1.3381,1.4103,1.4172,1.4359,1.4616,1.4478,1.4478,1.4478,1.4189,1.407,1.3881,1.3571,1.3277,1.2854,1.2122,1.2019,1.1957,1.1364,1.1196,1.1042,1.0621,1.0527,1.047,1.0296,1.0629,1.1021,1.1436,1.1769,1.2076,1.2274,1.248,1.2578,1.2529,1.2754,1.2929,1.2939,1.3025,1.3218,1.3467,1.3467,1.3563,1.3716,1.3941,1.3941,1.3732,1.427,1.4694,1.5079,1.4821,1.4769,1.484,1.4714,1.5129,0.0,0.0,0.0,0.0,0.0,0.0,0.19,0.1695,0.1321,0.0,0.0,0.0,0.0,0.0,0.0,0.0,0.0,0.0,0.0,0.0,0.0,0.0,0.0951,0.1605,0.2443,0.3268,0.3916,0.444,0.4683,0.4989,0.5492,0.5963,0.6412,0.6872,0.7265,0.7787,0.8306,0.8571,0.8958,0.9396,0.9588,0.9786,0.9862,1.018,1.0364,1.0491,1.0751,1.1059,1.1435,1.1677,1.1615,1.1435,1.2058,1.2297,1.2228,1.2428,1.2911,1.345,1.3494,1.4094,1.4824,1.4883,1.5069,1.5264,1.5069,1.5001,1.4904,1.4501,1.4169,1.3905,1.3776,1.3516,1.3095,1.2482,1.2582,1.2618,1.2079,1.2184,1.2246,1.1686,1.1399,1.1239,1.1353,1.1523,1.1778,1.2076,1.2421,1.2627,1.2676,1.2725,1.2871,1.3007,1.3084,1.3218,1.3409,1.3515,1.3563,1.3668,1.3858,1.3858,1.3668,1.4046,1.4046,1.3695,1.4265,1.4795,1.5318,1.5215,1.5154,1.5091,1.5047,1.5433,0.0,0.0,0.0,0.0,0.0,0.0,0.132,0.163,0.1581,0.0969,0.0,0.0,0.0,0.0,0.0,0.0,0.0,0.0,0.0,0.0,0.0,0.0,0.0,0.1788,0.2709,0.3554,0.4224,0.4614,0.5049,0.5463,0.5862,0.6272,0.6806,0.7521,0.7587,0.7917,0.8576,0.8894,0.9204,0.9524,0.9919,1.0047,1.0047,1.0308,1.0618,1.0926,1.1122,1.1435,1.1926,1.2359,1.2297,1.1926,1.2305,1.2658,1.2895,1.2972,1.3459,1.4181,1.4282,1.4746,1.5342,1.5468,1.5565,1.5651,1.5458,1.537,1.5253,1.4853,1.4392,1.3981,1.4129,1.3669,1.3077,1.2804,1.2983,1.3119,1.2898,1.3154,1.3298,1.2562,1.2113,1.2036,1.2586,1.2617,1.2578,1.2725,1.2978,1.3075,1.2978,1.2871,1.2958,1.3372,1.3266,1.3314,1.381,1.3915,1.3962,1.3858,1.415,1.4197,1.3926,1.3973,1.3973,1.3868,1.4063,1.4631,1.553,1.5477,1.5456,1.5444,1.5378,1.566,0.0,0.0,0.0,0.0,0.0,0.0,0.0263,0.0209,0.0106,0.0,0.0,0.0,0.0,0.0,0.0,0.0,0.0,0.0,0.0,0.0,0.0,0.0,0.0,0.2394,0.3093,0.3811,0.4475,0.4962,0.5723,0.6077,0.5886,0.6789,0.7461,0.7917,0.8182,0.8635,0.9268,0.939,0.953,0.9734,1.0244,1.0428,1.0421,1.1059,1.1428,1.1615,1.174,1.205,1.2421,1.2773,1.272,1.2421,1.3216,1.3519,1.364,1.4052,1.4529,1.5001,1.5235,1.5584,1.5941,1.6056,1.5879,1.5628,1.5573,1.5318,1.5019,1.5074,1.4994,1.4909,1.4756,1.4924,1.4841,1.3817,1.374,1.3741,1.3224,1.3203,1.3293,1.3381,1.3013,1.2656,1.2683,1.2783,1.2832,1.292,1.3094,1.318,1.3132,1.3382,1.3573,1.3563,1.3716,1.3905,1.4082,1.3952,1.3962,1.428,1.3952,1.3973,1.4414,1.4359,1.4302,1.4276,1.4873,1.5333,1.5567,1.606,1.6291,1.6311,1.6243,1.6524,0.0,0.0,0.0,-0.1557,0.0,0.0,0.0,-0.0424,-0.0379,-0.0058,-0.0113,0.0,0.0,0.0,0.0,0.0,0.0,0.0,0.0,0.0,0.0,0.0,0.0,0.2684,0.3402,0.4083,0.4615,0.5097,0.5904,0.6245,0.6081,0.6931,0.7668,0.8107,0.8371,0.8818,0.9518,0.9652,0.9919,1.018,1.0624,1.0996,1.1233,1.1615,1.205,1.2536,1.2597,1.2842,1.3155,1.3563,1.3623,1.3511,1.3881,1.413,1.4359,1.4706,1.5177,1.57,1.5884,1.5961,1.6102,1.6234,1.6028,1.5638,1.5743,1.5636,1.5531,1.6069,1.5888,1.5541,1.5652,1.5435,1.5091,1.4407,1.4078,1.39,1.3662,1.3621,1.3645,1.3834,1.3738,1.356,1.3293,1.3253,1.3248,1.3286,1.3372,1.342,1.3515,1.3563,1.3716,1.3952,1.3999,1.4093,1.4373,1.4186,1.414,1.428,1.4269,1.428,1.4381,1.4569,1.4651,1.4662,1.5025,1.5336,1.5626,1.6184,1.6299,1.6056,1.6233,1.6678,0.0,0.0,0.0,0.0,0.0,-0.1998,0.0,0.0,0.0,-0.0637,0.0,0.0,0.0,0.0,0.0,0.0,0.0,0.0,0.0,0.0,0.0,0.0,0.2361,0.3038,0.3688,0.4436,0.4897,0.5074,0.5817,0.6263,0.6108,0.6959,0.7666,0.8099,0.8468,0.8941,0.9524,0.9983,1.0301,1.0681,1.1059,1.1498,1.205,1.2166,1.2658,1.3329,1.3511,1.3692,1.3941,1.441,1.4647,1.4647,1.4488,1.4666,1.5069,1.5342,1.5748,1.6285,1.6457,1.6486,1.6375,1.6613,1.6392,1.6129,1.6154,1.6171,1.635,1.7081,1.6707,1.6199,1.649,1.5905,1.5124,1.493,1.4451,1.4127,1.4125,1.415,1.415,1.415,1.4326,1.4352,1.3959,1.3859,1.38,1.38,1.38,1.3847,1.3941,1.3847,1.3894,1.4419,1.4269,1.4316,1.4627,1.4477,1.4373,1.4362,1.464,1.4686,1.4408,1.4777,1.5097,1.5279,1.5143,1.5324,1.5903,1.626,1.6142,1.5603,1.6205,1.6713,0.0,0.0,0.0,0.0,-0.3782,0.0,0.0,0.0,-0.2052,-0.1564,0.0,0.0,0.0,0.0,0.0,0.0,0.0,0.0,0.0,0.0,0.0,0.0,0.318,0.3842,0.4287,0.5147,0.5479,0.4949,0.5801,0.6133,0.5716,0.6851,0.7601,0.7939,0.877,0.9402,0.9734,1.0364,1.08,1.0989,1.149,1.1934,1.2305,1.2903,1.3268,1.3502,1.4112,1.441,1.4469,1.4942,1.5177,1.5294,1.5137,1.5323,1.5672,1.6036,1.6482,1.6955,1.7245,1.7479,1.7709,1.785,1.7732,1.7517,1.71,1.6872,1.6888,1.7393,1.7329,1.7062,1.7119,1.6871,1.6443,1.5586,1.5266,1.5064,1.4704,1.4616,1.4605,1.4617,1.4766,1.4743,1.4392,1.4488,1.4571,1.4571,1.4571,1.4571,1.4617,1.4766,1.4834,1.4697,1.4731,1.4789,1.4776,1.4534,1.4512,1.4812,1.4593,1.4605,1.4971,1.5165,1.573,1.6723,1.6077,1.6008,1.666,1.647,1.6237,1.5957,1.6789,1.7281,0.0,0.0,0.0,0.0,0.0,0.0,-0.3758,0.0,-0.2806,0.0,0.0,0.0,0.0,0.0,0.0,0.0,0.1111,0.0,0.0,0.0,0.0,0.0,0.0,0.0,0.5031,0.5453,0.5531,0.5161,0.5544,0.5784,0.5819,0.6695,0.749,0.8191,0.8861,0.9499,1.0053,1.0681,1.1178,1.1615,1.2097,1.2658,1.3164,1.364,1.3941,1.4231,1.4597,1.4843,1.4961,1.5468,1.5806,1.5979,1.6228,1.6353,1.6353,1.6616,1.7056,1.7567,1.7941,1.8016,1.7938,1.8005,1.7955,1.7995,1.7969,1.7677,1.7482,1.8203,1.7756,1.7166,1.7468,1.6984,1.6322,1.5969,1.5612,1.5291,1.5199,1.5153,1.5142,1.5175,1.5322,1.5379,1.5244,1.5051,1.4994,1.513,1.504,1.4994,1.513,1.5142,1.5074,1.5028,1.5017,1.5006,1.4983,1.4789,1.4777,1.5006,1.4869,1.5005,1.5468,1.5855,1.6137,1.631,1.613,1.6298,1.6942,1.6794,1.6795,1.6892,1.7588,1.8077,-0.5681,0.0,0.0,0.0,0.0,0.0,0.0,0.0,0.0,0.0,0.0,0.0,0.0,0.0,0.0,0.0,0.0,0.1213,0.0,0.0,0.0,0.0,0.0,0.0,0.0,0.5641,0.5545,0.5311,0.5467,0.5686,0.5962,0.6587,0.733,0.8265,0.8961,0.9631,1.0364,1.1122,1.1677,1.2174,1.2781,1.339,1.395,1.4249,1.4538,1.4775,1.5088,1.5196,1.5158,1.6005,1.6363,1.6462,1.7235,1.7457,1.7457,1.739,1.7643,1.807,1.8325,1.8243,1.8066,1.8287,1.8392,1.8541,1.9032,1.8623,1.8154,1.9047,1.8338,1.7499,1.8021,1.727,1.6396,1.6539,1.6008,1.548,1.568,1.5724,1.5724,1.5768,1.5913,1.6013,1.6057,1.5736,1.5513,1.5736,1.5558,1.5468,1.5647,1.5468,1.5334,1.5402,1.5345,1.5289,1.5255,1.5187,1.5187,1.5322,1.5398,1.5635,1.6086,1.6409,1.6534,1.6463,1.6349,1.6658,1.7346,1.7332,1.7406,1.7652,1.8284,1.8765,0.0,0.0,0.0,-0.5512,0.0,0.0,0.0,0.0,-0.3302,0.0,0.0,0.0,0.0,0.0,0.0,0.0,0.0,0.0,0.0,0.0,0.0,0.0,0.0,0.0,0.0,0.578,0.5644,0.5241,0.5674,0.6007,0.6024,0.6618,0.7356,0.8086,0.9228,1.0056,1.0485,1.1794,1.2482,1.2482,1.3338,1.395,1.4189,1.4656,1.4902,1.5029,1.5624,1.5491,1.5038,1.6427,1.6841,1.6771,1.7855,1.8602,1.9069,1.8483,1.8283,1.8268,1.8319,1.8216,1.8232,1.9134,1.941,1.9513,2.0315,1.981,1.912,1.9788,1.918,1.8467,1.9028,1.8157,1.7218,1.7509,1.6628,1.5869,1.6182,1.6269,1.6312,1.6423,1.6466,1.6522,1.6633,1.6491,1.6349,1.6349,1.6231,1.6156,1.62,1.5925,1.5748,1.5715,1.5748,1.5748,1.5671,1.576,1.5824,1.5944,1.6207,1.6497,1.6834,1.6622,1.7024,1.8125,1.703,1.708,1.8283,1.8125,1.8044,1.8002,1.8604,1.9045,0.0,0.0,-0.6195,-0.5537,0.0,0.0,0.0,0.0,0.0,0.0,0.0,0.0,0.0,0.0,0.0,0.0,0.0,0.0,0.0,0.0,0.0,0.0,0.0,0.0,0.0,0.0,0.0,0.5213,0.5319,0.5575,0.5974,0.6551,0.7373,0.8399,0.9369,1.0287,1.1163,1.1988,1.2781,1.3614,1.4052,1.4538,1.5001,1.5313,1.5379,1.5319,1.5543,1.5608,1.5731,1.6844,1.7432,1.7744,1.8851,1.954,1.9811,1.9226,1.9248,1.9548,1.9538,1.9534,1.9606,2.004,2.0154,2.026,2.0797,2.0364,1.9655,1.9716,1.8846,1.8062,1.8532,1.7856,1.7117,1.7559,1.7125,1.6625,1.674,1.6837,1.6892,1.6947,1.6934,1.6947,1.6846,1.6989,1.7031,1.6663,1.6491,1.6392,1.6362,1.6188,1.6069,1.6025,1.5957,1.6001,1.6144,1.6219,1.6306,1.6349,1.6547,1.667,1.664,1.6999,1.7382,1.7742,1.7581,1.814,1.9433,1.9209,1.9332,1.9809,2.0514,2.0614,-0.6885,-0.6676,0.0,-0.5402,-0.515,0.0,-0.3954,0.0,-0.3163,0.0,0.0,0.0,0.0,0.0,0.0,0.0,0.0,0.0,0.0,0.234,0.0,0.0,0.0,0.0,0.0,0.0,0.5305,0.5528,0.5452,0.5725,0.0,0.6905,0.7659,0.8811,0.9626,1.0659,1.1965,1.2597,1.339,1.4332,1.4706,1.5128,1.5536,1.5723,1.5772,1.5737,1.5785,1.591,1.6261,1.7361,1.7993,1.8521,1.9623,2.0271,2.0485,1.9991,2.0003,2.0302,2.016,2.0156,2.0302,2.0644,2.0712,2.0702,2.1131,2.0826,2.0227,1.992,1.9317,1.8882,1.9107,1.8506,1.7965,1.8332,1.7863,1.7284,1.7366,1.7421,1.7475,1.7447,1.7461,1.7419,1.7295,1.7447,1.7447,1.696,1.682,1.6778,1.6693,1.6479,1.6362,1.6318,1.6262,1.6349,1.6565,1.662,1.6637,1.6685,1.6905,1.7034,1.6963,1.7517,1.7828,1.788,1.8314,1.9027,1.9916,2.0278,2.0549,2.0852,2.1642,2.1743]}]]